[[{"header":{"parameterUnit":"m.s-1","parameterCategory":1,"la1":30.6,"la2":29.2853,"lo1":-89.7004,"lo2":-87.6739,"dy":0.0162,"dx":0.0183,"nx":112,"ny":82,"refTime":"2024-08-07T06:00:00:Z","depth":0,"parameterNumber":2,"parameterNumberName":"U-component_of_WINDS"},"data":[0.0,0.0,0.0,0.0,0.0,0.0,0.0,0.0,0.0,0.0,0.0,0.0,0.0,0.0,0.0,0.0,0.0,0.0,0.0,0.0,0.0,0.0,0.0,0.0,0.0,0.0,0.0,0.0,0.0,0.0,0.0,0.0,0.0,0.0,0.0,0.0,0.0,0.0,0.0,0.0,0.0,0.0,0.0,0.0,0.0,0.0,0.0,0.0,0.0,0.0,0.0,0.0,0.0,0.0,0.0,0.0,0.0,0.0,0.0,0.0,0.0,0.0,0.0,0.0,0.0,0.0,0.0,0.0,0.0,0.0,0.0,0.0,0.0,0.0,0.0,0.0,0.0,0.0,0.0,0.0,0.0,0.0,0.0,0.0,0.0,0.0,0.0,0.0,0.0,0.0,0.0,-2.4642,-2.6512,-2.8072,-2.9203,-2.7564,-2.563,-2.3714,0.0,0.0,0.0,0.0,0.0,0.0,0.0,0.0,0.0,0.0,0.0,0.0,0.0,0.0,0.0,0.0,0.0,0.0,0.0,0.0,0.0,0.0,0.0,0.0,0.0,0.0,0.0,0.0,0.0,0.0,0.0,0.0,0.0,0.0,0.0,0.0,0.0,0.0,0.0,0.0,0.0,0.0,0.0,0.0,0.0,0.0,0.0,0.0,0.0,0.0,0.0,0.0,0.0,0.0,0.0,0.0,0.0,0.0,0.0,0.0,0.0,0.0,0.0,0.0,0.0,0.0,0.0,0.0,0.0,0.0,0.0,0.0,0.0,0.0,0.0,0.0,0.0,0.0,0.0,0.0,0.0,0.0,0.0,0.0,0.0,0.0,0.0,0.0,0.0,0.0,0.0,0.0,0.0,0.0,0.0,0.0,0.0,0.0,0.0,0.0,0.0,0.0,0.0,0.0,-2.1806,-2.5851,-2.7066,-2.7655,-2.7896,-2.6561,-2.5136,-2.3684,0.0,0.0,0.0,0.0,0.0,0.0,0.0,0.0,0.0,0.0,0.0,0.0,0.0,0.0,0.0,0.0,0.0,0.0,0.0,0.0,0.0,0.0,0.0,0.0,0.0,0.0,0.0,0.0,0.0,0.0,0.0,0.0,0.0,0.0,0.0,0.0,0.0,0.0,0.0,0.0,0.0,0.0,0.0,0.0,0.0,0.0,0.0,0.0,0.0,0.0,0.0,0.0,0.0,0.0,0.0,0.0,0.0,0.0,0.0,0.0,0.0,0.0,0.0,0.0,0.0,0.0,0.0,0.0,0.0,0.0,0.0,0.0,0.0,0.0,0.0,0.0,0.0,0.0,0.0,0.0,0.0,0.0,0.0,0.0,0.0,0.0,0.0,0.0,0.0,0.0,0.0,0.0,0.0,0.0,0.0,0.0,0.0,0.0,0.0,0.0,0.0,0.0,0.0,-2.1824,-2.3332,-2.6767,-2.7445,-2.7625,-2.7625,-2.6363,-2.5031,-2.3684,-2.1425,0.0,0.0,0.0,0.0,0.0,0.0,0.0,0.0,0.0,0.0,0.0,0.0,0.0,0.0,0.0,0.0,0.0,0.0,0.0,0.0,0.0,0.0,0.0,0.0,0.0,0.0,0.0,0.0,0.0,0.0,0.0,0.0,0.0,0.0,0.0,0.0,0.0,0.0,0.0,0.0,0.0,0.0,0.0,0.0,0.0,0.0,0.0,0.0,0.0,0.0,0.0,0.0,0.0,0.0,0.0,0.0,0.0,0.0,0.0,0.0,0.0,0.0,0.0,0.0,0.0,0.0,0.0,0.0,0.0,0.0,0.0,0.0,0.0,0.0,0.0,0.0,0.0,0.0,0.0,0.0,0.0,0.0,0.0,0.0,0.0,0.0,0.0,0.0,0.0,0.0,0.0,0.0,0.0,0.0,0.0,0.0,0.0,0.0,0.0,0.0,0.0,0.0,-2.3595,-2.4911,-2.7111,-2.7535,-2.7565,-2.74,-2.5989,-2.4567,-2.3236,-2.0528,0.0,0.0,0.0,0.0,0.0,0.0,0.0,0.0,0.0,0.0,0.0,0.0,0.0,0.0,0.0,0.0,0.0,0.0,0.0,0.0,0.0,0.0,0.0,0.0,0.0,0.0,0.0,0.0,0.0,0.0,0.0,0.0,0.0,0.0,0.0,0.0,0.0,0.0,0.0,0.0,0.0,0.0,0.0,0.0,0.0,0.0,0.0,0.0,0.0,0.0,0.0,0.0,0.0,0.0,0.0,0.0,0.0,0.0,0.0,0.0,0.0,0.0,0.0,0.0,0.0,0.0,0.0,0.0,0.0,0.0,0.0,0.0,0.0,0.0,0.0,0.0,0.0,0.0,0.0,0.0,0.0,0.0,0.0,0.0,0.0,0.0,0.0,0.0,0.0,0.0,0.0,0.0,0.0,0.0,0.0,0.0,0.0,0.0,0.0,0.0,0.0,0.0,-2.358,-2.5779,-2.6572,-2.72,-2.732,-2.6707,-2.4866,-2.3191,-2.1904,-1.8728,0.0,0.0,0.0,0.0,0.0,0.0,0.0,0.0,0.0,0.0,0.0,0.0,0.0,0.0,0.0,0.0,0.0,0.0,0.0,0.0,0.0,0.0,0.0,0.0,0.0,0.0,0.0,0.0,0.0,0.0,0.0,0.0,0.0,0.0,0.0,0.0,0.0,0.0,0.0,0.0,0.0,0.0,0.0,0.0,0.0,0.0,0.0,0.0,0.0,0.0,0.0,0.0,0.0,0.0,0.0,0.0,0.0,0.0,0.0,0.0,0.0,0.0,0.0,0.0,0.0,0.0,0.0,0.0,0.0,0.0,0.0,0.0,0.0,0.0,0.0,0.0,0.0,0.0,0.0,0.0,0.0,0.0,0.0,0.0,0.0,0.0,0.0,0.0,0.0,0.0,0.0,0.0,0.0,0.0,0.0,0.0,0.0,0.0,0.0,0.0,0.0,0.0,-2.2847,-2.4926,0.0,-2.7186,-2.7355,-2.6647,-2.5525,-2.3954,-2.1829,0.0,0.0,0.0,0.0,0.0,0.0,0.0,0.0,0.0,0.0,0.0,0.0,0.0,0.0,0.0,0.0,0.0,0.0,0.0,0.0,0.0,0.0,0.0,0.0,0.0,0.0,0.0,0.0,0.0,0.0,0.0,0.0,0.0,0.0,0.0,0.0,0.0,0.0,0.0,0.0,0.0,0.0,0.0,0.0,0.0,0.0,0.0,0.0,0.0,0.0,0.0,0.0,0.0,0.0,0.0,0.0,0.0,0.0,0.0,0.0,0.0,0.0,0.0,0.0,0.0,0.0,0.0,0.0,0.0,0.0,0.0,0.0,0.0,0.0,0.0,0.0,0.0,0.0,0.0,0.0,0.0,0.0,0.0,0.0,0.0,0.0,0.0,0.0,0.0,0.0,0.0,0.0,0.0,0.0,0.0,0.0,0.0,0.0,0.0,0.0,0.0,0.0,-2.0213,-2.2458,-2.4448,0.0,-2.6557,-2.6677,-2.6019,-2.5181,-2.364,-2.1216,0.0,0.0,0.0,0.0,0.0,0.0,0.0,0.0,0.0,0.0,0.0,0.0,0.0,0.0,0.0,0.0,0.0,0.0,0.0,0.0,0.0,0.0,0.0,0.0,0.0,0.0,0.0,0.0,0.0,0.0,0.0,0.0,0.0,0.0,0.0,0.0,0.0,0.0,0.0,0.0,0.0,0.0,0.0,0.0,0.0,0.0,0.0,0.0,0.0,0.0,0.0,0.0,0.0,0.0,0.0,0.0,0.0,0.0,0.0,0.0,0.0,0.0,0.0,0.0,0.0,0.0,0.0,0.0,0.0,0.0,0.0,0.0,0.0,0.0,0.0,0.0,0.0,0.0,0.0,0.0,0.0,0.0,0.0,0.0,0.0,0.0,0.0,0.0,0.0,0.0,0.0,0.0,0.0,0.0,0.0,0.0,0.0,0.0,0.0,0.0,0.0,0.0,-1.969,-2.2577,-2.4582,-2.4582,-2.5211,-2.5345,-2.4642,-2.3445,-2.1884,0.0,0.0,0.0,0.0,0.0,0.0,0.0,0.0,0.0,0.0,0.0,0.0,0.0,0.0,0.0,0.0,0.0,0.0,0.0,0.0,0.0,0.0,0.0,0.0,0.0,0.0,0.0,0.0,0.0,0.0,0.0,0.0,0.0,0.0,0.0,0.0,0.0,0.0,0.0,0.0,0.0,0.0,0.0,0.0,0.0,0.0,0.0,0.0,0.0,0.0,0.0,0.0,0.0,0.0,0.0,0.0,0.0,0.0,0.0,0.0,0.0,0.0,0.0,0.0,0.0,0.0,0.0,0.0,0.0,0.0,0.0,0.0,0.0,0.0,0.0,0.0,0.0,0.0,0.0,0.0,0.0,0.0,0.0,0.0,0.0,0.0,0.0,0.0,0.0,0.0,0.0,0.0,0.0,0.0,0.0,0.0,0.0,0.0,0.0,0.0,0.0,0.0,0.0,-1.969,-2.2577,-2.4582,-2.4582,-2.5211,-2.5345,-2.4642,-2.4283,-2.2802,-1.9869,0.0,0.0,0.0,0.0,0.0,0.0,0.0,0.0,0.0,0.0,0.0,0.0,0.0,0.0,0.0,0.0,0.0,0.0,0.0,0.0,0.0,0.0,0.0,0.0,0.0,0.0,0.0,0.0,0.0,0.0,0.0,0.0,0.0,0.0,0.0,0.0,0.0,0.0,0.0,0.0,0.0,0.0,0.0,0.0,0.0,0.0,0.0,0.0,0.0,0.0,0.0,0.0,0.0,0.0,0.0,0.0,0.0,0.0,0.0,0.0,0.0,0.0,0.0,0.0,0.0,0.0,0.0,0.0,0.0,0.0,0.0,0.0,0.0,0.0,0.0,0.0,0.0,0.0,0.0,0.0,0.0,0.0,0.0,0.0,0.0,0.0,0.0,0.0,0.0,0.0,0.0,0.0,0.0,0.0,0.0,0.0,0.0,0.0,0.0,0.0,0.0,0.0,-2.0423,-2.2906,-2.4686,-2.494,-2.5136,-2.5061,-2.4612,-2.4328,-2.3041,-2.0273,0.0,0.0,0.0,0.0,0.0,0.0,0.0,0.0,0.0,0.0,0.0,0.0,0.0,0.0,0.0,0.0,0.0,0.0,0.0,0.0,0.0,0.0,0.0,0.0,0.0,0.0,0.0,0.0,0.0,0.0,0.0,0.0,0.0,0.0,0.0,0.0,0.0,0.0,0.0,0.0,0.0,0.0,0.0,0.0,0.0,0.0,0.0,0.0,0.0,0.0,0.0,0.0,0.0,0.0,0.0,0.0,0.0,0.0,0.0,0.0,0.0,0.0,0.0,0.0,0.0,0.0,0.0,0.0,0.0,0.0,0.0,0.0,0.0,0.0,0.0,0.0,0.0,0.0,0.0,0.0,0.0,0.0,0.0,0.0,0.0,0.0,0.0,0.0,0.0,0.0,0.0,0.0,0.0,0.0,0.0,0.0,0.0,0.0,0.0,0.0,0.0,0.0,-2.1515,-2.3415,-2.4836,-2.554,-2.5076,-2.4642,-2.4582,-2.4059,-2.2862,-2.0932,0.0,0.0,0.0,0.0,0.0,0.0,0.0,0.0,0.0,0.0,0.0,0.0,0.0,0.0,0.0,0.0,0.0,0.0,0.0,0.0,0.0,0.0,0.0,0.0,0.0,0.0,0.0,0.0,0.0,0.0,0.0,0.0,0.0,0.0,0.0,0.0,0.0,0.0,0.0,0.0,0.0,0.0,0.0,0.0,0.0,0.0,0.0,0.0,0.0,0.0,0.0,0.0,0.0,0.0,0.0,0.0,0.0,0.0,0.0,0.0,-2.3066,0.0,0.0,0.0,0.0,0.0,0.0,0.0,0.0,0.0,0.0,0.0,0.0,0.0,0.0,0.0,0.0,0.0,0.0,0.0,0.0,0.0,0.0,0.0,0.0,0.0,0.0,0.0,0.0,0.0,0.0,0.0,0.0,0.0,0.0,0.0,0.0,0.0,0.0,0.0,0.0,0.0,-2.1515,-2.3415,-2.4836,-2.554,-2.548,-2.5196,-2.4627,-2.4448,-2.358,-2.1605,0.0,0.0,0.0,0.0,0.0,0.0,0.0,0.0,0.0,0.0,0.0,0.0,0.0,0.0,0.0,0.0,0.0,0.0,0.0,0.0,0.0,0.0,0.0,0.0,0.0,0.0,0.0,0.0,0.0,0.0,0.0,0.0,0.0,0.0,0.0,0.0,0.0,0.0,0.0,0.0,0.0,0.0,0.0,0.0,0.0,0.0,0.0,0.0,0.0,0.0,0.0,0.0,0.0,0.0,0.0,0.0,0.0,0.0,0.0,0.0,0.0,-2.4207,0.0,0.0,0.0,0.0,0.0,0.0,0.0,0.0,0.0,0.0,0.0,0.0,0.0,0.0,0.0,0.0,0.0,0.0,0.0,0.0,0.0,0.0,0.0,0.0,0.0,0.0,0.0,0.0,0.0,0.0,0.0,0.0,0.0,0.0,0.0,0.0,0.0,0.0,0.0,0.0,-2.2847,-2.4283,-2.548,-2.6437,-2.5952,-2.5579,-2.5553,-2.4385,-2.3327,-2.2655,-2.1099,0.0,0.0,0.0,0.0,0.0,0.0,0.0,0.0,0.0,0.0,0.0,0.0,0.0,0.0,0.0,0.0,0.0,0.0,0.0,0.0,0.0,0.0,0.0,0.0,0.0,0.0,0.0,0.0,0.0,0.0,0.0,0.0,0.0,0.0,0.0,0.0,0.0,0.0,0.0,0.0,0.0,0.0,0.0,0.0,0.0,0.0,0.0,0.0,0.0,0.0,0.0,0.0,0.0,-3.1449,-3.1899,-3.2387,-3.1901,-3.172,-3.1511,-2.8334,-2.7265,-2.7681,0.0,0.0,0.0,0.0,0.0,0.0,0.0,0.0,0.0,0.0,0.0,0.0,0.0,0.0,0.0,0.0,0.0,0.0,0.0,0.0,0.0,0.0,0.0,0.0,0.0,-2.4822,-2.4552,0.0,0.0,0.0,0.0,0.0,0.0,0.0,0.0,0.0,0.0,0.0,0.0,-2.4268,-2.53,-2.6243,-2.744,-2.6535,-2.6017,-2.6391,-2.4355,-2.3243,-2.3555,-2.1845,-2.0218,0.0,0.0,0.0,0.0,0.0,0.0,0.0,0.0,0.0,0.0,0.0,0.0,0.0,0.0,0.0,0.0,0.0,0.0,0.0,0.0,0.0,0.0,0.0,0.0,0.0,0.0,0.0,0.0,0.0,0.0,0.0,0.0,-2.1014,-2.1948,0.0,0.0,0.0,0.0,0.0,0.0,0.0,0.0,0.0,0.0,0.0,0.0,0.0,0.0,-3.1337,-3.2911,-3.3737,-3.3782,-3.4523,-3.4686,-3.4305,-3.3911,-3.3714,-3.368,-3.2781,0.0,-2.9624,-2.8112,0.0,0.0,0.0,0.0,0.0,0.0,0.0,0.0,0.0,0.0,0.0,0.0,0.0,0.0,0.0,0.0,0.0,0.0,0.0,0.0,0.0,0.0,-2.7844,-2.7919,-2.756,-2.7081,0.0,-2.3984,-2.1515,-2.1335,0.0,0.0,0.0,0.0,0.0,0.0,0.0,0.0,-2.4388,-2.5689,-2.6752,-2.755,-2.7434,-2.6885,-2.5727,-2.5307,-2.4631,-2.3492,-2.2214,-2.1165,-2.0492,-1.9075,0.0,0.0,0.0,0.0,0.0,0.0,0.0,0.0,0.0,0.0,0.0,0.0,0.0,0.0,0.0,0.0,0.0,0.0,0.0,0.0,0.0,0.0,0.0,0.0,0.0,0.0,0.0,0.0,0.0,-2.0655,-2.2726,-2.4308,-2.4695,-2.4738,0.0,0.0,0.0,0.0,0.0,0.0,0.0,0.0,0.0,-3.1425,-3.2584,-3.3633,-3.4501,-3.5711,-3.6543,-3.6942,-3.7124,-3.711,-3.6853,-3.6027,-3.5617,-3.56,-3.4914,-3.3863,-3.2459,-3.0954,-2.9888,-2.911,0.0,0.0,0.0,0.0,-2.8185,-2.8419,-2.9302,-2.9399,0.0,0.0,0.0,0.0,0.0,0.0,0.0,0.0,0.0,0.0,0.0,0.0,0.0,-2.9071,-2.8921,-2.8697,-2.8697,-2.6752,-2.4672,0.0,-2.3161,-2.2547,-2.1066,0.0,0.0,0.0,0.0,0.0,-2.551,-2.6243,-2.6841,-2.755,-2.6864,-2.6261,-2.6093,-2.4598,-2.3757,-2.3967,-2.2471,-2.1472,-2.1284,-1.9938,-1.8533,0.0,0.0,0.0,0.0,0.0,0.0,0.0,0.0,0.0,0.0,0.0,0.0,0.0,0.0,0.0,0.0,0.0,0.0,0.0,0.0,0.0,0.0,0.0,0.0,0.0,0.0,0.0,0.0,-2.2774,-2.4749,-2.6502,-2.7047,-2.7054,0.0,0.0,0.0,0.0,0.0,0.0,-3.1311,-3.221,-3.3385,-3.5,-3.5844,-3.667,-3.7514,-3.8285,-3.8796,-3.9156,-3.8948,-3.8695,-3.8401,-3.7512,-3.706,-3.7043,-3.6451,-3.5893,-3.5216,-3.3339,-3.2138,-3.1393,-3.0666,-3.0717,-3.1157,-3.0801,-3.0774,-3.1049,-3.2167,-3.2337,-3.1831,-3.0999,0.0,-2.9052,-2.672,0.0,0.0,0.0,0.0,-2.6928,-2.925,-2.9462,-2.9265,-2.9924,-2.9953,-2.9819,-2.9819,-2.8906,-2.7545,0.0,-2.5495,-2.4986,-2.3026,0.0,0.0,0.0,0.0,-2.4911,-2.6393,-2.6737,-2.6971,-2.7312,-2.6322,-2.5728,-2.5906,-2.404,-2.3114,-2.3823,-2.2432,-2.1511,-2.1368,-2.0455,-1.9468,-1.843,0.0,0.0,0.0,0.0,0.0,0.0,0.0,0.0,0.0,0.0,0.0,0.0,0.0,0.0,0.0,0.0,0.0,0.0,0.0,0.0,0.0,0.0,0.0,0.0,0.0,0.0,0.0,0.0,0.0,-2.8583,-2.9905,0.0,0.0,0.0,0.0,-3.1035,-3.1843,-3.301,-3.466,-3.5587,-3.6798,-3.8395,-3.9221,-4.0047,-4.0855,-4.0914,-4.0436,-3.9478,-3.9474,-3.8946,-3.7936,-3.7872,-3.7838,-3.7838,-3.7804,-3.777,-3.7516,-3.4573,-3.2899,-3.2154,-3.1427,-3.1157,-3.1275,-3.1935,-3.2188,-3.2324,-3.3085,-3.3355,-3.3415,-3.4023,-3.3383,-3.21,-3.0626,-2.9326,0.0,0.0,-2.8509,-2.8757,-3.0113,-3.0402,-3.0582,-3.127,-3.0941,-3.0447,-3.0447,-2.9939,-2.9071,0.0,-2.6437,-2.557,-2.5435,0.0,-2.545,-2.545,-2.6019,-2.6482,-2.6572,-2.7141,-2.7261,-2.6616,-2.651,-2.5892,-2.4509,-2.4266,-2.367,-2.2508,-2.1813,-2.1272,-2.0797,-2.0127,-1.956,-1.8945,-1.8392,0.0,0.0,0.0,0.0,0.0,0.0,0.0,0.0,0.0,0.0,0.0,0.0,0.0,0.0,0.0,0.0,0.0,0.0,0.0,0.0,0.0,0.0,0.0,0.0,0.0,0.0,0.0,0.0,-3.0002,-3.1411,0.0,0.0,-3.2095,-3.2852,-3.366,-3.4504,-3.5679,-3.7312,-3.8175,-3.9111,-4.0212,-4.0524,-4.0888,-4.1306,-4.0939,-4.0646,-4.0403,-4.0049,-3.9679,-3.9292,-3.8819,-3.8616,-3.8582,-3.8108,-3.7905,-3.7821,-3.6755,-3.6146,-3.5876,-3.5622,-3.5216,-3.4827,-3.5081,-3.4861,-3.4472,-3.4742,-3.4844,-3.4793,-3.4573,-3.3556,-3.2311,-3.1418,-3.0511,-2.9902,-3.0422,-3.0197,-3.0138,-3.1509,-3.1475,-3.1225,-3.1422,-3.1287,-3.1165,-3.1165,-3.0642,-3.0028,-2.9549,-2.8757,-2.8038,-2.7604,-2.7171,-2.6871,-2.6871,-2.6707,-2.6737,-2.7171,-2.7475,-2.7306,-2.6563,-2.6068,-2.5398,-2.4408,-2.3489,-2.2801,-2.2322,-2.1455,-2.092,-2.0731,-2.0112,-1.971,-1.9522,-1.9007,-1.799,0.0,0.0,0.0,0.0,0.0,0.0,0.0,0.0,0.0,0.0,0.0,0.0,0.0,0.0,0.0,0.0,0.0,0.0,0.0,0.0,0.0,0.0,0.0,0.0,0.0,0.0,-3.0424,-3.16,-3.2991,-3.3716,-3.3448,-3.4651,-3.5679,-3.6229,-3.7294,-3.8377,-3.946,-4.0267,-4.0946,-4.1497,-4.1586,-4.1687,-4.1845,-4.1279,-4.0955,-4.0903,-4.0528,-4.0303,-4.0054,-3.958,-3.936,-3.9326,-3.8853,-3.8633,-3.8633,-3.8633,-3.8633,-3.8582,-3.8091,-3.7601,-3.7161,-3.7161,-3.684,-3.64,-3.64,-3.64,-3.6315,-3.5808,-3.4846,-3.3756,-3.3079,-3.2283,-3.1628,-3.1834,-3.1393,-3.1054,-3.1998,-3.1853,-3.1482,-3.1482,-3.1482,-3.1482,-3.1482,-3.118,-3.0851,-3.0851,-3.0163,-2.9445,-2.9011,-2.8547,-2.8248,-2.8248,-2.7874,-2.7679,-2.7889,-2.7919,-2.7558,-2.6592,-2.5837,-2.5119,-2.435,-2.3077,-2.2234,-2.2046,-2.1179,-2.063,-2.0376,-2.0012,-1.9798,-1.9798,-1.9296,-1.8668,-1.7928,0.0,0.0,0.0,0.0,0.0,0.0,0.0,0.0,0.0,0.0,0.0,0.0,0.0,0.0,0.0,0.0,0.0,0.0,0.0,0.0,0.0,0.0,0.0,-2.9063,-3.1145,-3.2778,-3.3354,-3.4697,-3.5447,-3.5156,-3.7312,-3.8762,-3.8781,-4.0249,-4.1148,-4.1148,-4.1901,-4.2341,-4.2341,-4.2577,-4.2711,-4.2747,-4.2121,-4.1508,-4.0938,-4.092,-4.0625,-4.007,-4.007,-4.007,-4.007,-4.007,-4.007,-4.007,-4.007,-4.007,-3.9935,-3.8531,-3.7956,-3.7939,-3.7939,-3.7922,-3.7905,-3.7905,-3.7905,-3.7905,-3.7905,-3.7415,-3.6649,-3.5926,-3.4704,-3.3507,-3.2796,-3.2109,-3.1497,-3.1497,-3.1497,-3.1482,-3.1482,-3.1482,-3.1482,-3.1482,-3.1482,-3.1482,-3.1482,-3.0507,-2.9639,-2.9639,-2.9624,-2.9609,-2.9609,-2.9594,0.0,-2.8712,-2.8622,-2.8091,-2.6664,-2.5879,-2.5147,-2.435,-2.3077,-2.2128,-2.1574,-2.102,-2.0467,-1.99,-1.9823,-1.9836,-1.9849,-1.9346,-1.9033,-1.9058,0.0,0.0,0.0,0.0,0.0,0.0,0.0,0.0,0.0,0.0,0.0,0.0,0.0,0.0,0.0,0.0,0.0,0.0,0.0,0.0,0.0,0.0,-3.065,-3.0696,-3.2832,-3.4281,-3.402,-3.5901,-3.7365,-3.7654,-3.8836,-3.9808,-4.0414,-4.1405,-4.1974,-4.1974,-4.2727,-4.3167,-4.3167,-4.3246,-4.336,-4.3581,-4.2388,-4.1789,-4.1834,-4.082,-4.0254,-4.007,-4.007,-4.007,-4.007,-4.007,-4.007,-4.007,-4.007,-4.007,-4.0037,-3.9631,-3.9157,-3.87,-3.87,-3.8362,-3.7905,-3.7905,-3.7905,-3.7905,-3.7905,-3.7414,-3.6671,-3.5938,-3.5061,-3.4229,-3.3452,-3.278,-3.2243,-3.2243,-3.1884,-3.1482,-3.1482,-3.1482,-3.1482,-3.1482,-3.1482,-3.1482,-3.1482,-3.124,-3.1001,-3.1001,-3.0582,-3.0253,-3.0253,-2.9864,0.0,-2.934,-2.931,-2.8582,-2.6638,-2.6231,-2.5654,-2.4376,-2.3568,-2.3102,-2.3003,-2.2035,-2.1639,-2.1907,-2.0966,-2.0614,-2.1016,-2.0489,-2.0413,0.0,0.0,0.0,0.0,0.0,0.0,0.0,0.0,0.0,0.0,0.0,0.0,0.0,0.0,0.0,0.0,0.0,0.0,0.0,0.0,0.0,0.0,-3.1621,-3.2903,-3.3328,-3.4562,-3.5569,-3.5885,-3.6998,-3.8126,-3.9124,-3.9937,-4.0744,-4.1552,-4.2359,-4.2947,-4.3296,-4.3754,-4.4158,-4.4488,-4.4291,-4.4118,-4.399,-4.297,-4.2352,-4.2224,-4.1393,-4.1001,-4.1001,-4.0679,-4.0544,0.0,-4.0206,-4.007,-4.007,-4.007,-4.007,0.0,0.0,0.0,0.0,0.0,-3.9174,-3.8819,-3.8819,-3.8819,-3.8819,-3.8819,-3.8303,-3.7653,-3.7228,-3.6367,-3.5419,-3.4659,-3.3946,-3.3258,-3.2631,-3.2228,-3.1884,-3.1541,-3.1482,-3.1482,-3.1482,-3.1482,-3.1482,-3.1482,0.0,0.0,-3.1482,-3.121,-3.0941,-3.0941,-3.0627,-3.0298,-2.9998,-2.9968,-2.9426,-2.7907,-2.7428,-2.682,-2.5713,-2.4803,0.0,0.0,0.0,-2.277,-2.3073,-2.1994,0.0,0.0,0.0,0.0,0.0,0.0,0.0,0.0,-2.2284,-2.2849,0.0,0.0,0.0,0.0,0.0,0.0,0.0,0.0,0.0,0.0,0.0,0.0,0.0,0.0,0.0,0.0,-3.3372,-3.4875,-3.6413,-3.6368,-3.6688,-3.8098,-3.7894,-3.829,-3.9863,-4.0689,-4.1479,-4.2378,-4.3167,-4.3956,-4.4672,0.0,0.0,0.0,0.0,-4.4934,-4.4343,-4.374,-4.3095,-4.2547,-4.239,-4.2286,-4.2269,-4.1627,-4.1322,-4.1288,-4.0612,-4.0273,-4.0206,-4.0206,-4.0155,-4.007,-4.007,-4.007,-4.007,-4.007,-4.007,-4.007,-4.007,0.0,0.0,-4.007,-3.9648,-3.9106,-3.9007,-3.802,-3.6774,-3.6027,-3.5231,-3.4368,-3.2961,-3.2572,-3.2347,-3.1631,-3.1482,-3.1482,-3.1482,-3.1482,-3.1482,-3.1482,-3.1482,-3.1482,-3.1482,-3.1482,-3.1482,-3.1482,-3.1482,-3.1315,-3.0702,-3.0612,-3.0372,-2.9635,0.0,0.0,-2.766,-2.6495,-2.5576,-2.5015,-2.4535,-2.4175,-2.4007,-2.3369,-2.3866,-2.5661,-2.4753,-2.4957,-2.6347,-2.5858,-2.5489,-2.5189,-2.4067,-2.4356,0.0,0.0,0.0,0.0,0.0,0.0,0.0,0.0,0.0,0.0,0.0,0.0,0.0,0.0,0.0,-3.4391,-3.5045,-3.607,-3.8385,-3.8213,-3.7863,-3.796,-3.8465,-3.9341,-4.074,-4.102,-4.1699,-4.3149,-4.4011,-4.4544,-4.4709,-4.5333,0.0,-4.5902,-4.581,-4.5763,-4.5791,-4.4565,-4.3985,-4.3991,0.0,0.0,-4.2286,-4.2151,-4.2083,-4.2066,-4.1931,-4.1525,-4.0984,-4.0984,-4.0629,-4.007,-4.007,-4.007,-4.007,-4.007,-4.007,-4.007,-4.007,-4.007,-4.007,-4.007,-3.9986,-3.975,-3.9116,-3.8286,0.0,-3.6617,-3.5493,-3.4376,-3.3531,-3.2916,-3.2347,-3.1631,-3.1482,-3.1482,-3.1482,-3.1482,-3.1482,-3.1482,-3.1482,-3.1482,-3.1482,-3.1482,-3.1482,-3.1482,-3.1482,-3.1422,-3.1287,-3.1345,-3.0832,-2.9594,-2.9276,-2.8958,-2.828,-2.7995,-2.783,-2.78,-2.7705,-2.7166,-2.6008,-2.6764,-2.7144,-2.6981,-2.6123,-2.6374,-2.7803,-2.6298,-2.6378,-2.773,-2.6896,-2.6414,0.0,0.0,0.0,0.0,0.0,0.0,0.0,0.0,0.0,0.0,0.0,-3.0044,-3.0852,0.0,-3.416,-3.5834,-3.6469,-3.7353,-3.9046,-3.886,-3.8593,-3.8732,-3.8821,-3.9471,-4.0946,-4.1111,-4.1772,-4.3369,-4.425,-4.4892,-4.5278,-4.6067,-4.6691,-4.7095,-4.7095,-4.6837,-4.6338,-4.5612,-4.5019,-4.447,-4.3807,-4.3436,-4.342,-4.3031,-4.2861,-4.2828,-4.2455,-4.2083,-4.1711,-4.1356,-4.0764,-4.007,-4.007,-4.007,-4.007,-4.007,-4.007,-4.007,-4.007,-4.007,-4.007,-4.007,-4.007,-4.002,-3.961,-3.9209,-3.8723,-3.7557,-3.6669,-3.5798,-3.4376,-3.3739,-3.3245,-3.2258,-3.2018,-3.1943,-3.1541,-3.1482,-3.1482,-3.1482,-3.1482,-3.1482,-3.1482,-3.1482,-3.1482,-3.1482,-3.1482,-3.1482,-3.1482,-3.1482,-3.1217,-3.0557,-3.0455,-3.019,-2.9528,-2.9189,-2.9005,-2.9116,-2.8719,-2.8364,-2.8074,-2.8197,-2.8466,-2.8872,-2.7986,-2.7884,-2.8609,-2.7565,-2.7352,-2.7932,-2.805,-2.7959,0.0,0.0,0.0,0.0,0.0,0.0,0.0,0.0,-2.8679,-2.8832,-3.0641,-3.2372,-3.3026,-3.4564,-3.6007,-3.6815,-3.768,-3.8546,-3.9411,-3.9254,-3.9182,-3.9569,-3.9127,-3.9406,-4.0946,-4.1111,-4.1772,-4.3369,-4.4397,-4.5223,-4.5865,-4.6819,-4.7645,-4.8288,-4.8306,-4.7738,-4.6618,-4.6478,-4.5865,-4.4759,-4.4682,-4.4587,-4.4553,-4.3927,-4.3639,-4.3606,-4.2844,-4.2422,-4.2236,-4.1508,-4.0764,-4.007,-4.007,-4.007,-4.007,-4.007,-4.007,-4.007,-4.007,-4.007,-4.007,-4.007,-4.007,-4.007,-4.007,-4.0003,-3.961,-3.8374,-3.7806,-3.7121,-3.5217,-3.4583,-3.4173,-3.2991,-3.2602,-3.2362,-3.1839,-3.1556,-3.1482,-3.1482,-3.1482,-3.1482,-3.1482,-3.1482,-3.1482,-3.1482,-3.1482,-3.1482,-3.1482,-3.1482,-3.1482,-3.1482,-3.1482,-3.13,-3.0746,-3.0253,-2.9968,-2.9968,-2.9381,-2.9268,-2.9953,-2.9232,-2.9432,-3.0645,-2.974,-2.9373,-2.9687,-2.8918,-2.8343,-2.8164,-2.8646,-2.8925,-2.4258,-2.4834,-2.5668,-2.6532,-2.7198,-2.8238,0.0,0.0,-3.1487,-3.2199,-3.3179,-3.3949,-3.4026,-3.543,-3.6853,-3.7719,-3.8584,-3.9431,-4.0239,-4.0133,-3.9868,-3.9645,-3.9282,-3.9592,-4.0979,-4.1111,-4.1772,-4.3369,-4.4911,-4.581,-4.5902,-4.7352,-4.8214,-4.8306,-4.8306,-4.7977,-4.7281,-4.671,-4.6046,-4.5407,-4.4869,-4.4587,-4.4587,-4.4485,-4.4451,-4.4401,-4.3623,-4.2912,-4.2236,-4.1508,-4.0764,-4.007,-4.007,-4.007,-4.007,-4.007,-4.007,-4.007,-4.007,-4.007,-4.007,-4.007,-4.007,-4.007,-4.007,-3.961,-3.9016,-3.8799,-3.7774,-3.6506,-3.5718,-3.4988,-3.4292,-3.3559,-3.2946,-3.2497,-3.2422,-3.1943,-3.1482,-3.1482,-3.1482,-3.1482,-3.1482,-3.1482,-3.1482,-3.1482,-3.1482,-3.1482,-3.1482,-3.1482,-3.1482,-3.1482,-3.1482,-3.1437,-3.1362,-3.136,-3.1315,-3.1315,-3.1185,-3.1185,-3.1258,-3.1202,-3.1232,-3.1362,-3.0615,-3.08,-3.2079,-2.9701,-2.9426,-3.1087,-2.9555,-2.8925,-2.6965,-2.7209,0.0,0.0,-2.9959,-3.0537,-3.2135,-3.2844,-3.3256,-3.3583,-3.4353,-3.4968,-3.4968,-3.6334,-3.7584,0.0,-3.9123,-4.0104,-4.045,-4.0389,-4.0157,-3.9668,-3.9481,-3.985,-4.1011,-4.1111,-4.1772,-4.3369,-4.4984,-4.5902,-4.5902,-4.7425,-4.8306,-4.8306,-4.8306,-4.8035,-4.7385,-4.7132,-4.6664,-4.6014,-4.5407,-4.5142,-4.5089,-4.4759,-4.4587,-4.4553,-4.4231,-4.3656,-4.2878,-4.2134,-4.1407,-4.0696,-4.0257,-4.007,-4.007,-4.007,-4.007,-4.007,-4.007,-4.007,-4.007,-4.007,-4.007,-4.007,-4.007,-3.985,-3.9489,-3.9016,-3.8117,-3.714,-3.638,-3.5628,-3.4906,-3.4218,-3.3559,-3.2976,-3.2602,-3.2003,-3.1482,-3.1482,-3.1482,-3.1482,-3.1482,-3.1482,-3.1482,-3.1482,-3.1482,-3.1482,-3.1482,-3.1482,-3.1482,-3.1482,-3.1482,-3.1482,-3.1482,-3.1482,-3.1482,-3.1482,-3.1482,-3.1482,-3.1482,-3.1482,-3.1482,-3.1482,-3.1531,-3.1646,-3.176,-3.133,-3.1089,-3.0909,-3.0459,-2.9984,-2.8418,0.0,0.0,-3.1125,-3.1952,-3.255,-3.3194,-3.3966,-3.4564,-3.4564,-3.5064,-3.5493,-3.5493,-3.668,-3.7719,-3.7969,-3.9219,-4.0239,-4.0469,-4.0489,-4.0266,-3.9668,-3.9599,-4.0008,-4.0993,-4.1111,-4.1772,-4.3369,-4.4984,-4.5902,-4.5902,-4.7425,-4.8306,-4.8306,-4.8306,-4.8075,-4.7656,-4.747,-4.715,-4.6664,-4.5883,-4.5511,-4.5459,-4.4869,-4.4587,-4.4587,-4.4587,-4.413,-4.3352,-4.2591,-4.1863,-4.1136,-4.0375,-4.007,-4.007,-4.007,-4.007,-4.007,-4.007,-4.007,-4.007,-4.007,-4.007,-4.007,-4.007,-4.007,-3.9952,-3.9368,-3.8541,-3.769,-3.7084,-3.6243,-3.5385,-3.4876,-3.4113,-3.3365,-3.2886,-3.2123,-3.1482,-3.1482,-3.1482,-3.1482,-3.1482,-3.1482,-3.1482,-3.1482,-3.1482,-3.1482,-3.1482,-3.1482,-3.1482,-3.1482,-3.1482,-3.1482,-3.1482,-3.1482,-3.1482,-3.1482,-3.1482,-3.1482,-3.1482,-3.1482,-3.1482,-3.1482,-3.2183,-3.2257,-3.1824,-3.2717,-3.2384,-3.1021,-3.1143,-3.0696,0.0,0.0,-3.1585,-3.074,-3.2362,-3.4122,-3.4154,-3.4834,-3.5468,-3.5468,-3.5474,-3.5493,-3.5493,-3.618,-3.7026,-3.7853,-3.8738,-3.9604,-4.0392,-4.0489,-4.0266,-3.9668,-3.9599,-4.0008,0.0,-4.1111,-4.1772,-4.3369,-4.4984,-4.5902,-4.5902,-4.7425,-4.8306,-4.8306,-4.8306,-4.8306,-4.8267,-4.7697,-4.7385,-4.7342,-4.6112,-4.5511,-4.5459,-4.4869,-4.4587,-4.4587,-4.4587,-4.413,-4.3352,-4.2591,-4.1863,-4.1136,-4.0375,-4.007,-4.007,-4.007,-4.007,-4.007,-4.007,-4.007,-4.007,-4.007,-4.007,-4.007,-4.007,-4.007,-4.007,-4.007,-3.8941,-3.7806,-3.7764,-3.6662,-3.5504,-3.5474,-3.4457,-3.3484,-3.3469,-3.2452,-3.1482,-3.1482,-3.1482,-3.1482,-3.1482,-3.1482,-3.1482,-3.1482,-3.1482,-3.1482,-3.1482,-3.1482,-3.1482,-3.1482,-3.1482,-3.1482,-3.1482,-3.1482,-3.1482,-3.1482,-3.1482,-3.1482,-3.1482,-3.1482,-3.1482,-3.1482,-3.2183,-3.2826,-3.3408,-3.3208,-3.2868,-3.2508,-3.1596,-3.0696,0.0,0.0,-3.1365,-3.2686,-3.3627,-3.4353,-3.493,-3.4834,-3.4641,-3.4641,-3.418,-3.3776,-3.3776,-3.4949,-3.618,-3.7007,-3.8354,-3.9565,-4.0392,-4.0989,-4.0917,-3.9724,-4.058,0.0,0.0,0.0,0.0,-4.3332,-4.4507,-4.5351,-4.5865,-4.7425,-4.8306,-4.8306,-4.8306,-4.8306,-4.8306,-4.8075,-4.7995,-4.7977,-4.671,-4.5865,-4.5459,-4.4869,-4.4587,-4.4587,-4.4587,-4.4434,-4.413,-4.3352,-4.2608,-4.1863,-4.1119,-4.051,-4.007,-4.007,-4.007,-4.007,-4.007,-4.007,-4.007,-4.007,-4.007,-4.007,-4.007,-4.007,-4.007,-4.007,-3.8995,-3.7822,-3.7822,-3.6662,-3.5504,-3.5504,-3.4472,-3.3499,-3.3499,-3.2467,-3.1482,-3.1482,-3.1482,-3.1482,-3.1482,-3.1482,-3.1482,-3.1482,-3.1482,-3.1482,-3.1482,-3.1482,-3.1482,-3.1482,-3.1482,-3.1482,-3.1482,-3.1482,-3.1482,-3.1482,-3.1482,-3.1482,-3.1482,-3.1958,-3.2183,-3.2183,-3.326,-3.3918,-3.4143,-3.3835,-3.3334,-3.2593,-3.1683,-3.0696,0.0,-3.1763,-3.2363,-3.3916,-3.4477,-3.4737,-3.4988,-3.4603,-3.4103,-3.3795,-3.3295,-3.2891,-3.2891,-3.3814,-3.5045,-3.6469,-3.7892,-3.9335,-4.0758,-4.172,-4.1817,-4.0632,-4.1448,-4.1938,0.0,0.0,0.0,-4.3332,-4.4507,-4.5351,-4.5865,-4.7425,-4.8306,-4.8306,-4.8306,-4.8306,-4.8306,-4.8306,-4.8172,-4.7977,-4.691,-4.6094,-4.5459,-4.4869,-4.4587,-4.4587,-4.4587,-4.4587,-4.4519,-4.3741,-4.298,-4.2219,-4.1491,-4.0747,-4.007,-4.007,-4.007,-4.007,-4.007,-4.007,-4.007,-4.007,-4.007,-4.007,-4.007,-4.007,-4.007,-4.007,-3.9172,-3.8149,-3.7863,-3.6829,-3.5846,-3.5554,-3.4651,-3.3784,-3.3544,-3.2647,-3.1824,-3.1526,-3.1482,-3.1482,-3.1482,-3.1482,-3.1482,-3.1482,-3.1482,-3.1482,-3.1482,-3.1482,-3.1482,-3.1482,-3.1482,-3.1482,-3.1482,-3.1482,-3.1482,-3.1482,-3.1482,-3.1586,-3.1884,-3.2287,-3.2617,-3.2856,-3.3918,-3.4472,-3.4472,-3.4141,-3.3518,-3.2593,-3.1683,-3.0696,-3.1136,-3.2664,-3.4477,-3.439,-3.4952,-3.5284,-3.4404,-3.4173,-3.3904,-3.3019,-3.2795,-3.2776,0.0,0.0,-3.3718,-3.6238,-3.745,-3.895,-4.145,-4.2585,-4.289,0.0,0.0,0.0,0.0,0.0,0.0,-4.3497,0.0,-4.5865,-4.5957,-4.7462,-4.8306,-4.8306,-4.8306,-4.8306,-4.8306,-4.8306,-4.8035,-4.7428,-4.6756,-4.6143,-4.5511,-4.4906,-4.4626,-4.4587,-4.4587,-4.4587,-4.4519,-4.3741,-4.298,-4.2219,-4.1491,-4.0747,-4.007,-4.007,-4.007,-4.007,-4.007,-4.007,-4.007,-4.007,-4.007,-4.007,-4.007,-4.007,-4.007,-4.007,-3.9437,-3.869,-3.7921,-3.7144,-3.6399,-3.5668,-3.4981,-3.4307,-3.3679,-3.3006,-3.2332,-3.1646,-3.1497,-3.1482,-3.1482,-3.1482,-3.1482,-3.1482,-3.1482,-3.1482,-3.1482,-3.1482,-3.1482,-3.1482,-3.1482,-3.1482,-3.1482,-3.1482,-3.1482,-3.1482,-3.1511,-3.1869,-3.2482,-3.2587,-3.2901,-3.3529,-3.4188,-3.4532,-3.4532,-3.4155,-3.3518,-3.2593,-3.1683,-3.0696,-3.3221,-3.4122,-3.4696,-3.5203,-3.5496,-3.5406,-3.4485,-3.3817,-3.3131,-3.227,-3.1529,-3.1044,-3.1044,0.0,0.0,-3.5488,-3.7584,0.0,-4.1527,-4.3066,0.0,0.0,0.0,-4.443,-4.3306,-4.4085,0.0,0.0,-4.5112,-4.5535,-4.6746,-4.7755,-4.8306,-4.8306,-4.8306,-4.8306,-4.8306,-4.8306,-4.821,-4.8075,-4.7428,-4.6801,-4.6143,-4.5563,-4.5052,-4.4587,-4.4587,-4.4587,-4.4519,-4.3741,-4.298,-4.2219,-4.1491,-4.0747,-4.007,-4.007,-4.007,-4.007,-4.007,-4.007,-4.007,-4.007,-4.007,-4.007,-4.007,-4.007,-3.9969,-3.9368,-3.8635,-3.7921,-3.7084,-3.6352,-3.5718,-3.5554,-3.4981,-3.4427,-3.4262,-3.332,-3.2467,-3.2302,-3.1869,-3.1482,-3.1482,-3.1482,-3.1482,-3.1482,-3.1482,-3.1482,-3.1482,-3.1482,-3.1482,-3.1482,-3.1482,-3.1482,-3.1482,-3.1482,-3.1482,-3.1482,-3.2003,-3.2332,-3.2497,-3.3455,-3.4053,-3.4218,-3.4891,-3.525,-3.5235,-3.4389,-3.3518,-3.2593,-3.1683,-3.0696,-3.4316,-3.4933,-3.5268,-3.5685,-3.5476,-3.4936,-3.3993,-3.3132,-3.2174,-3.0878,-3.0505,0.0,-2.9448,0.0,0.0,0.0,0.0,0.0,-4.147,-4.3239,-4.402,0.0,-4.4723,0.0,-4.4152,-4.5149,-4.6049,0.0,-4.6012,-4.6159,-4.7076,-4.7865,-4.8306,-4.8306,-4.8306,-4.8306,-4.8306,-4.8306,-4.8306,-4.8306,-4.7385,-4.691,-4.6801,-4.5648,-4.5035,-4.4998,0.0,-4.4587,-4.4519,-4.3741,-4.298,-4.2219,-4.1491,-4.0747,-4.007,-4.007,-4.007,-4.007,-4.007,-4.007,-4.007,-4.007,-4.007,-4.007,-4.007,-4.007,-3.9952,-3.9139,-3.858,-3.8019,-3.6904,-3.6275,-3.5894,-3.5554,-3.5205,-3.4846,-3.4547,-3.3664,-3.2766,-3.2198,-3.2018,-3.1884,-3.1526,-3.1482,-3.1482,-3.1482,-3.1482,-3.1482,-3.1482,-3.1482,-3.1482,-3.1482,-3.1482,-3.1482,-3.1482,-3.1482,-3.1601,-3.1943,-3.2302,-3.2766,-3.335,-3.4083,-3.4622,-3.4921,-3.531,-3.5504,-3.5504,-3.4461,-3.3518,-3.2593,-3.1683,-3.0696,-3.4805,-3.5384,-3.591,-3.5903,-3.5208,-3.4289,-3.3339,-3.2355,-3.1167,-2.9456,0.0,-2.966,-2.8313,-2.9333,-3.0987,-3.2776,0.0,-3.8027,-4.1354,-4.3186,-4.4326,-4.4562,-4.5356,-4.5597,-4.4926,-4.5681,-4.6507,-4.7223,-4.7278,-4.7278,-4.7278,-4.7921,-4.8306,-4.8306,-4.8306,-4.8306,-4.8306,-4.821,-4.8172,-4.8172,-4.6981,-4.6664,-4.7106,-4.5477,-4.4944,-4.5372,0.0,0.0,-4.4367,-4.3589,-4.2828,-4.2066,-4.1339,-4.0646,-4.007,-4.007,-4.007,-4.007,-4.007,-4.007,-4.007,-4.007,-4.007,-4.007,-4.007,-4.007,-3.9901,-3.9032,-3.8745,-3.8398,-3.6843,-3.6446,-3.6275,-3.5668,-3.5504,-3.534,-3.4741,-3.4098,-3.3245,-3.1913,-3.2123,-3.2302,-3.1644,-3.1482,-3.1482,-3.1482,-3.1482,-3.1482,-3.1482,-3.1482,-3.1482,-3.1482,-3.1482,-3.1482,-3.1482,-3.1482,-3.1824,-3.2482,-3.2602,-3.32,-3.4427,-3.4562,-3.4906,-3.5489,-3.5504,-3.5504,-3.5504,-3.4461,-3.3518,-3.2593,-3.1683,-3.0696,-3.5371,-3.5878,-3.5973,-3.591,-3.5276,-3.44,-3.3406,-3.1994,0.0,0.0,0.0,-2.8448,-2.8813,-2.9717,0.0,-3.3583,0.0,0.0,0.0,0.0,-4.4059,0.0,0.0,0.0,0.0,0.0,0.0,0.0,0.0,-4.8104,-4.8104,-4.8233,-4.8306,-4.8306,-4.8306,-4.8306,-4.8306,-4.7797,-4.7572,-4.7572,-4.6756,-4.6192,-4.5833,-4.5511,-4.5142,-4.4776,-4.4626,0.0,-4.3555,-4.2794,-4.2066,-4.1322,-4.0561,-4.0189,-4.007,-4.007,-4.007,-4.007,-4.007,-4.007,-4.007,-4.007,-4.007,-4.007,-4.007,-4.007,-3.9799,-3.8374,-3.7978,-3.7632,-3.607,-3.5668,-3.5668,-3.5504,-3.5504,-3.5474,-3.5355,-3.4786,-3.3918,-3.2602,-3.2437,-3.2302,-3.1644,-3.1482,-3.1482,-3.1482,-3.1482,-3.1482,-3.1482,-3.1482,-3.1482,-3.1482,-3.1482,-3.1482,-3.1482,-3.1482,-3.1824,-3.2482,-3.3021,-3.3664,-3.4442,-3.5026,-3.5385,-3.5504,-3.5504,-3.5504,-3.5504,-3.4461,-3.3518,-3.2593,-3.1683,-3.0696,-3.5098,-3.5644,-3.5996,-3.5951,-3.4978,-3.3883,-3.3331,0.0,0.0,0.0,0.0,-2.7871,-2.7813,0.0,0.0,0.0,0.0,0.0,0.0,0.0,0.0,0.0,0.0,0.0,0.0,0.0,0.0,0.0,0.0,-4.8306,-4.8306,-4.8306,-4.8306,-4.8306,-4.8306,-4.8306,-4.8306,-4.7715,-4.7385,-4.7385,-4.6383,-4.5965,-4.5965,-4.532,-4.5052,-4.5052,-4.472,0.0,-4.3352,-4.2591,-4.1863,-4.1136,-4.0375,-4.007,-4.007,-4.007,-4.007,-4.007,-4.007,-4.007,-4.007,-4.007,-4.007,-4.007,-4.007,-4.007,-3.9799,-3.8206,-3.7822,-3.7472,-3.591,-3.5504,-3.5504,-3.5504,-3.5504,-3.54,-3.504,-3.4996,-3.4622,-3.3275,-3.3021,-3.2826,-3.2153,-3.1764,-3.1482,-3.1482,-3.1482,-3.1482,-3.1482,-3.1482,-3.1482,-3.1482,-3.1482,-3.1482,-3.1482,-3.1482,-3.1958,-3.2961,-3.332,-3.3948,-3.4966,-3.5325,-3.5504,-3.5504,-3.5504,-3.5504,-3.5504,-3.4986,-3.4041,-3.2593,-3.2177,-3.1193,-3.4648,-3.5332,-3.5957,-3.5762,-3.4551,-3.3316,-3.2986,-3.0948,0.0,0.0,-2.8044,-2.7255,-2.6948,0.0,0.0,0.0,0.0,0.0,0.0,0.0,0.0,0.0,0.0,0.0,0.0,0.0,0.0,0.0,0.0,0.0,-4.8306,-4.8306,-4.8306,-4.8306,-4.8306,-4.8306,-4.8306,-4.7715,-4.7385,-4.7385,-4.6112,-4.5732,-4.6143,-4.5089,-4.4869,-4.5267,-4.4627,0.0,0.0,-4.2371,-4.1627,-4.0899,-4.0307,-4.007,-4.007,-4.007,-4.007,-4.007,-4.007,-4.007,-4.007,-4.007,-4.007,-4.007,-4.007,-4.007,-3.9782,-3.843,-3.7921,-3.7472,-3.607,-3.5619,-3.5504,-3.5504,-3.5504,-3.5355,-3.4816,-3.513,-3.516,-3.3948,-3.3589,-3.329,-3.2632,-3.1973,-3.1482,-3.1482,-3.1482,-3.1482,-3.1482,-3.1482,-3.1482,-3.1482,-3.1482,-3.1482,-3.1482,-3.1482,-3.2093,-3.341,-3.3499,-3.4098,-3.5444,-3.5504,-3.5504,-3.5504,-3.5504,-3.5504,-3.5504,-3.5067,-3.4124,-3.2593,-3.2177,-3.1206,-3.4473,-3.5332,-3.5801,-3.5019,-3.4101,-3.316,-3.2226,0.0,0.0,-2.8029,-2.6697,-2.6005,-2.7505,-2.7909,0.0,0.0,0.0,0.0,0.0,0.0,0.0,0.0,0.0,0.0,0.0,0.0,0.0,0.0,0.0,0.0,-4.8306,-4.8306,-4.8306,-4.8306,-4.8306,-4.8306,-4.8306,-4.7715,-4.7385,-4.7385,-4.6112,-4.5511,-4.5545,-4.4906,-4.4626,-4.4631,-4.3826,0.0,0.0,-4.161,-4.0865,-4.0172,-4.0104,-4.007,-4.007,-4.007,-4.007,-4.007,-4.007,-4.007,-4.007,-4.007,-4.007,-4.007,-4.007,-4.007,-3.9901,-3.9032,-3.8302,-3.7573,-3.6737,-3.6006,-3.5504,-3.5504,-3.5504,-3.5489,-3.5429,-3.5459,-3.528,-3.4532,-3.3903,-3.329,-3.2632,-3.1973,-3.1482,-3.1482,-3.1482,-3.1482,-3.1482,-3.1482,-3.1482,-3.1482,-3.1482,-3.1482,-3.1482,-3.1482,-3.2093,-3.341,-3.3499,-3.4098,-3.5444,-3.5504,-3.5504,-3.5504,-3.5504,-3.5504,-3.5504,-3.3754,-3.2749,-3.2522,-3.0846,-2.9934,-3.3555,-3.4551,-3.5137,-3.4785,-3.4043,-3.3141,-3.2124,0.0,-2.8339,-2.9224,-2.764,-2.6601,-2.8313,-2.8621,-2.8948,0.0,-3.1141,-3.2756,0.0,0.0,0.0,0.0,0.0,0.0,0.0,0.0,0.0,0.0,0.0,0.0,-4.7609,-4.8049,-4.8086,-4.7609,-4.8067,-4.8086,-4.759,-4.7479,-4.7385,-4.7385,-4.6112,-4.5269,-4.4818,-4.4153,-4.3639,-4.3183,-4.2878,0.0,0.0,-4.1322,-4.0764,-4.007,-4.007,-4.007,-4.007,-4.007,-4.007,-4.007,-4.007,-4.007,-4.007,-4.007,-4.007,-4.007,-4.007,-4.007,-3.985,-3.8596,-3.8035,-3.7531,-3.6243,-3.5733,-3.5504,-3.5504,-3.5504,-3.5504,-3.5504,-3.5504,-3.5295,-3.4607,-3.3948,-3.329,-3.2632,-3.1973,-3.1482,-3.1482,-3.1482,-3.1482,-3.1482,-3.1482,-3.1482,-3.1482,-3.1482,-3.1482,-3.1482,-3.1482,-3.1928,-3.2841,-3.3275,-3.3918,-3.4846,-3.5295,-3.5504,-3.5504,-3.5504,-3.5213,-3.461,-3.3808,-3.289,-3.1742,-3.0983,-3.0343,-3.2656,-3.3672,-3.4258,-3.4023,-3.3496,-3.2789,0.0,0.0,-2.8786,-2.9792,-2.8409,-2.7428,-2.8832,-2.9102,-2.9179,0.0,-3.0217,-3.1527,-3.3681,0.0,0.0,0.0,0.0,0.0,0.0,0.0,0.0,0.0,0.0,0.0,0.0,-4.7278,-4.7333,-4.6764,-4.7297,-4.7333,-4.6764,-4.711,-4.7311,-4.7311,-4.6047,-4.5155,-4.4614,-4.356,-4.2794,-4.2286,0.0,0.0,0.0,-4.0967,-4.0561,-4.007,-4.007,-4.007,-4.007,-4.007,-4.007,-4.007,-4.007,-4.007,-4.007,-4.007,-4.007,-4.007,-4.007,-3.9952,-3.9506,-3.843,-3.7806,-3.716,-3.5861,-3.5504,-3.5504,-3.5504,-3.5355,-3.525,-3.5459,-3.519,-3.4831,-3.4532,-3.3784,-3.3051,-3.2602,-3.1973,-3.1482,-3.1482,-3.1482,-3.1482,-3.1482,-3.1482,-3.1482,-3.1482,-3.1482,-3.1482,-3.1482,-3.1482,-3.1898,-3.2751,-3.3245,-3.3888,-3.4741,-3.525,-3.5504,-3.5504,-3.5504,-3.4986,-3.4027,-3.3739,-3.2749,-3.118,-3.0908,-3.0509,-3.1973,-3.2793,-3.3223,-3.2422,-3.2226,-3.193,0.0,-2.9983,-2.9318,-2.9147,-2.8448,-2.814,-2.8948,-2.9102,-2.9371,-3.0256,-3.1121,-3.2275,-3.3949,0.0,0.0,0.0,0.0,0.0,0.0,0.0,0.0,0.0,0.0,0.0,0.0,-4.592,-4.592,-4.5902,-4.592,-4.592,-4.5902,-4.6709,-4.7094,-4.7094,-4.5878,-4.5308,-4.5227,-4.3237,-4.2303,0.0,0.0,0.0,0.0,-4.0392,-4.0087,-4.007,-4.007,-4.007,-4.007,-4.007,-4.007,-4.007,-4.007,-4.007,-4.007,-4.007,-4.007,-4.007,-4.007,-3.9542,-3.8908,-3.8908,-3.7815,-3.6446,-3.5668,-3.5504,-3.5504,-3.5504,-3.4981,-3.4666,-3.5355,-3.4457,-3.3709,-3.4352,-3.3425,-3.2527,-3.2512,-3.1973,-3.1482,-3.1482,-3.1482,-3.1482,-3.1482,-3.1482,-3.1482,-3.1482,-3.1482,-3.1482,-3.1482,-3.1482,-3.2093,-3.341,-3.3499,-3.4098,-3.5429,-3.5504,-3.5504,-3.5504,-3.5504,-3.4986,-3.4027,-3.3101,-3.2105,-3.118,-3.0279,-3.008,-3.0195,-3.1035,-3.1484,-3.0644,-3.0879,-3.1031,-2.9951,-2.9555,-2.9512,-2.9908,-2.9313,-2.8986,-2.9833,-2.9987,-3.0448,-3.1891,0.0,0.0,0.0,0.0,0.0,0.0,0.0,0.0,0.0,0.0,0.0,0.0,0.0,0.0,0.0,-4.5094,-4.5094,-4.5094,-4.5608,-4.5461,-4.4538,-4.5319,-4.554,-4.5114,-4.4301,-4.368,-4.3126,-4.2073,0.0,0.0,0.0,0.0,0.0,-4.0172,-4.007,-4.007,-4.007,-4.007,-4.007,-4.007,-4.007,-4.007,-4.007,-4.007,-4.007,-4.007,-4.007,-4.002,-3.9437,-3.9489,-3.9489,-3.8414,-3.7055,-3.5767,-3.5554,-3.516,-3.4801,-3.4801,-3.4292,-3.3858,-3.4083,-3.3799,-3.3425,-3.3185,-3.2796,-3.2362,-3.1928,-3.1616,-3.1482,-3.1482,-3.1482,-3.1482,-3.1482,-3.1482,-3.1482,-3.1482,-3.1482,-3.1482,-3.1482,-3.1482,-3.1898,-3.2766,-3.3245,-3.3888,-3.4756,-3.525,-3.5504,-3.5504,-3.5504,-3.4706,-3.3031,-3.2749,-3.1756,-3.0203,-2.9934,-2.988,0.0,-2.9512,-2.9785,-2.9258,-2.9766,-3.0211,-2.946,-2.9588,-2.9959,-3.0312,-2.9967,-2.9756,-3.0302,-3.0398,-3.0713,-3.1648,0.0,0.0,0.0,0.0,0.0,0.0,0.0,0.0,0.0,0.0,0.0,0.0,0.0,0.0,0.0,-4.425,-4.425,-4.425,-4.4727,-4.451,-4.3472,-4.4249,-4.4348,-4.3713,-4.3173,-4.2632,-4.2163,-4.1238,0.0,0.0,0.0,0.0,0.0,-4.007,-4.007,-4.007,-4.007,-4.007,-4.007,-4.007,-4.007,-4.007,-4.007,-4.007,-4.007,-4.007,-4.007,-3.9952,-3.9139,-3.8854,-3.8525,-3.7279,-3.6258,-3.5504,-3.5504,-3.4996,-3.4472,-3.4472,-3.3784,-3.3185,-3.344,-3.3095,-3.2706,-3.2542,-3.2317,-3.2018,-3.1541,-3.1482,-3.1482,-3.1482,-3.1482,-3.1482,-3.1482,-3.1482,-3.1482,-3.1482,-3.1482,-3.1482,-3.1482,-3.1482,-3.1855,-3.2826,-3.3275,-3.3903,-3.4831,-3.528,-3.5294,-3.492,-3.492,-3.3973,-3.2105,-3.1683,-3.0921,-2.9792,-2.9792,-2.9792,0.0,-2.8164,-2.8184,-2.8125,-2.8769,-2.9352,-2.9168,-2.9802,0.0,-3.0312,-3.0302,-3.034,-3.0456,-3.0436,-3.0369,-3.029,0.0,0.0,0.0,0.0,0.0,0.0,0.0,0.0,0.0,0.0,0.0,0.0,0.0,0.0,0.0,-4.3497,-4.3497,-4.3497,-4.3497,-4.325,-4.2711,-4.3415,-4.3458,-4.2855,-4.2294,-4.2046,-4.2029,-4.0726,0.0,0.0,0.0,0.0,0.0,-4.007,-4.007,-4.007,-4.007,-4.007,-4.007,-4.007,-4.007,-4.007,-4.007,-4.007,-4.007,-4.007,-4.007,-3.985,-3.9086,-3.7815,-3.6554,-3.5782,-3.5569,-3.5504,-3.5504,-3.4966,-3.4412,-3.4412,-3.3395,-3.2617,-3.3215,-3.2392,-3.1661,-3.2332,-3.1958,-3.1482,-3.1482,-3.1482,-3.1482,-3.1482,-3.1482,-3.1482,-3.1482,-3.1482,-3.1482,-3.1482,-3.1482,-3.1497,-3.1541,-3.1541,-3.2138,-3.341,-3.3544,-3.4143,-3.5444,-3.5504,-3.5067,-3.4095,-3.3959,-3.3031,-3.118,-3.0279,-2.9792,-2.9792,-2.9792,-2.9792,-2.6269,0.0,-2.7148,-2.6484,-2.6973,-2.7575,0.0,-2.8071,-2.8826,0.0,0.0,-2.9813,-3.116,-3.0852,-3.0945,0.0,0.0,0.0,0.0,0.0,0.0,0.0,0.0,0.0,0.0,0.0,0.0,0.0,0.0,0.0,0.0,-4.3497,-4.3497,-4.3497,-4.3497,-4.325,-4.2711,-4.244,-4.1972,-4.1394,-4.0868,-4.0559,-4.0559,-4.0256,0.0,0.0,0.0,0.0,-4.007,-4.007,-4.007,-4.007,-4.007,-4.007,-4.007,-4.007,-4.007,-4.007,-4.007,-4.007,-4.007,-4.007,-3.9662,-3.9032,-3.8318,-3.7806,-3.7338,-3.6569,-3.5958,-3.5504,-3.5504,-3.4622,-3.3724,-3.3724,-3.2721,-3.1809,-3.1958,-3.1691,-3.1526,-3.1676,-3.1586,-3.1482,-3.1482,-3.1482,-3.1482,-3.1482,-3.1482,-3.1482,-3.1482,-3.1482,-3.1482,-3.1482,-3.1482,-3.1676,-3.2243,-3.2273,-3.2632,-3.344,-3.3963,-3.4622,-3.5474,-3.5504,-3.5359,-3.5133,-3.3685,-3.2393,-3.118,-3.0279,-2.9792,-2.9792,-2.9792,-2.9792,-2.5586,-2.6348,-2.6894,-2.6406,-2.6933,-2.7526,-2.741,0.0,0.0,0.0,0.0,0.0,-3.0333,0.0,0.0,0.0,0.0,0.0,0.0,0.0,0.0,0.0,0.0,0.0,0.0,0.0,0.0,0.0,0.0,0.0,0.0,-4.3497,-4.3497,-4.3497,-4.3497,-4.325,-4.2711,-4.24,-4.175,-4.0903,-4.0625,-4.0319,-4.007,-4.007,-4.007,0.0,0.0,0.0,-4.007,-4.007,-4.007,-4.007,-4.007,-4.007,-4.007,-4.007,-4.007,-4.007,-4.007,-4.007,-4.007,-4.007,-3.9558,-3.8745,-3.8035,-3.7515,-3.71,-3.629,-3.5846,-3.5429,-3.5115,-3.4262,-3.3425,-3.311,-3.2273,-3.1482,-3.1482,-3.1482,-3.1482,-3.1482,-3.1482,-3.1482,-3.1482,-3.1482,-3.1482,-3.1482,-3.1482,-3.1482,-3.1482,-3.1482,-3.1482,-3.1482,-3.1482,-3.1735,-3.2452,-3.2796,-3.3245,-3.3903,-3.4277,-3.4786,-3.5474,-3.5067,-3.4409,-3.3547,-3.206,-3.1057,-3.0558,-3.0075,-2.9792,-2.9792,-2.9792,-2.9792,-2.5469,-2.6426,-2.7168,-2.7031,-2.7613,-2.8196,-2.8111,0.0,0.0,0.0,0.0,0.0,0.0,0.0,0.0,0.0,0.0,0.0,0.0,0.0,0.0,0.0,0.0,0.0,0.0,0.0,0.0,0.0,0.0,0.0,0.0,-4.313,-4.3185,-4.3296,-4.3226,-4.305,-4.2693,-4.2711,-4.2121,-4.1041,-4.0949,-4.0607,-4.007,-4.007,-4.007,0.0,0.0,0.0,-4.007,-4.007,-4.007,-4.007,-4.007,-4.007,-4.007,-4.007,-4.007,-4.007,-4.007,-4.007,-4.007,-4.007,-3.9558,-3.8745,-3.8035,-3.72,-3.6276,-3.5567,-3.5355,-3.522,-3.4622,-3.3918,-3.32,-3.2647,-3.2018,-3.1482,-3.1482,-3.1482,-3.1482,-3.1482,-3.1482,-3.1482,-3.1482,-3.1482,-3.1482,-3.1482,-3.1482,-3.1482,-3.1482,-3.1482,-3.1482,-3.1482,-3.1556,-3.1943,-3.2617,-3.326,-3.3933,-3.4592,-3.4637,-3.4827,-3.5264,-3.4327,-3.2961,-3.1254,-3.0419,-2.9934,-2.9792,-2.9792,-2.9792,-2.9792,-2.9792,-2.9792,-2.5469,-2.6875,-2.793,-2.7187,-2.7656,-2.8256,0.0,0.0,0.0,0.0,0.0,0.0,0.0,0.0,0.0,0.0,0.0,0.0,0.0,0.0,0.0,0.0,0.0,0.0,0.0,0.0,0.0,0.0,0.0,0.0,0.0,0.0,-4.1791,-4.2451,-4.1996,-4.2047,-4.2693,-4.2711,-4.2342,-4.1664,-4.1133,-4.0607,-4.007,-4.007,-4.007,0.0,0.0,-4.007,-4.007,-4.007,-4.007,-4.007,-4.007,-4.007,-4.007,-4.007,-4.007,-4.007,-4.007,-4.007,-4.007,-4.007,-3.9558,-3.8745,-3.8035,-3.6853,-3.5582,-3.4859,-3.4637,-3.4607,-3.4502,-3.3574,-3.2647,-3.2542,-3.2018,-3.1482,-3.1482,-3.1482,-3.1482,-3.1482,-3.1482,-3.1482,-3.1482,-3.1482,-3.1482,-3.1482,-3.1482,-3.1482,-3.1482,-3.1482,-3.1482,-3.1482,-3.2033,-3.2632,-3.329,-3.3948,-3.4622,-3.5295,-3.5355,-3.5029,-3.4245,-3.331,-3.2321,-3.1254,-3.1044,-3.0633,-2.9792,-2.9792,-2.9792,-2.9792,-2.9792,-2.9792,-2.4766,-2.6602,-2.8203,-2.7793,-2.8338,-2.8934,0.0,0.0,0.0,0.0,0.0,0.0,0.0,0.0,0.0,0.0,0.0,0.0,0.0,0.0,0.0,0.0,0.0,0.0,0.0,0.0,0.0,0.0,0.0,0.0,0.0,0.0,-4.1277,-4.1644,-4.1088,-4.0997,-4.1376,-4.1148,-4.1103,-4.1313,-4.1041,-4.0607,-4.007,-4.007,-4.007,-4.0054,0.0,-3.9495,-3.9462,-3.9073,-3.8903,-3.8903,-3.8903,-3.8903,-3.8954,-3.9343,-3.9242,-3.9022,-3.98,-3.953,-3.8853,-3.8938,-3.8117,-3.702,-3.6342,-3.5329,-3.438,-3.4057,-3.4203,-3.4397,-3.4038,-3.3769,-3.3395,-3.2677,-3.2273,-3.1958,-3.1556,-3.1482,-3.1482,-3.1482,-3.1482,-3.1482,-3.1482,-3.1482,-3.1482,-3.1482,-3.1482,-3.1482,-3.1482,-3.1482,-3.1482,-3.1482,-3.2123,-3.2781,-3.344,-3.4098,-3.4771,-3.5459,-3.5504,-3.4839,-3.331,-3.282,-3.1901,-3.0482,-3.0419,-3.0203,-2.9792,-2.9792,-2.9792,-2.9792,-2.9792,-2.9792,-2.4414,-2.6172,-2.7793,-2.8203,0.0,0.0,0.0,0.0,0.0,0.0,0.0,0.0,0.0,0.0,0.0,0.0,0.0,0.0,0.0,0.0,0.0,0.0,0.0,0.0,0.0,0.0,0.0,0.0,0.0,0.0,0.0,0.0,-4.0634,-4.0818,-4.0166,-3.993,-4.011,-3.9492,-3.959,-4.0366,-4.0366,-4.0092,-3.9563,-3.9563,-3.9563,-3.9529,-3.8988,-3.8734,-3.87,-3.8142,-3.7905,-3.7905,-3.7905,-3.7905,-3.7973,-3.8531,-3.8379,-3.801,-3.9008,-3.8553,-3.7538,-3.7502,-3.6549,-3.5282,-3.4845,-3.4012,-3.326,-3.326,-3.3634,-3.3903,-3.3395,-3.3649,-3.3724,-3.2557,-3.2407,-3.2332,-3.1616,-3.1482,-3.1482,-3.1482,-3.1482,-3.1482,-3.1482,-3.1482,-3.1482,-3.1482,-3.1482,-3.1482,-3.1482,-3.1482,-3.1482,-3.1482,-3.2123,-3.2706,-3.3164,-3.3613,-3.4074,-3.4589,-3.4551,-3.3837,-3.2321,-3.2033,-3.1267,-2.9869,-2.9792,-2.9792,-2.9792,-2.9792,-2.9792,-2.9792,-2.9792,-2.9792,-2.5176,-2.5742,-2.6289,-2.7891,0.0,0.0,0.0,0.0,0.0,0.0,0.0,0.0,0.0,0.0,0.0,0.0,0.0,0.0,0.0,0.0,0.0,0.0,0.0,0.0,0.0,0.0,0.0,0.0,0.0,0.0,0.0,0.0,0.0,-3.9955,-3.8977,-3.8805,-3.9572,-3.8543,-3.8294,-3.8851,-3.8851,-3.859,-3.8075,-3.8075,-3.8075,-3.8058,-3.8007,-3.799,-3.799,-3.7922,-3.7905,-3.7905,-3.7905,-3.7905,-3.7922,-3.7973,-3.7956,-3.781,-3.7253,-3.6967,-3.6765,-3.6189,-3.5403,-3.4752,-3.4705,-3.3691,-3.2587,-3.2587,-3.2617,-3.2647,-3.2602,-3.2617,-3.2482,-3.1764,-3.2078,-3.2332,-3.1616,-3.1482,-3.1482,-3.1482,-3.1482,-3.1482,-3.1482,-3.1482,-3.1482,-3.1482,-3.1482,-3.1482,-3.1482,-3.1482,-3.1482,-3.1482,-3.2123,-3.245,-3.2289,-3.2108,-3.1999,-3.204,-3.1734,-3.1462,-3.1315,-3.0495,-2.9934,-2.9792,-2.9792,-2.9792,-2.9792,-2.9792,-2.9792,-2.9792,-2.9792,-2.9792,-2.457,-2.5684,-2.6797,-2.8008,0.0,0.0,0.0,0.0,0.0,0.0,0.0,0.0,0.0,0.0,0.0,0.0,0.0,0.0,0.0,0.0,0.0,0.0,0.0,0.0,0.0,0.0,0.0,0.0,0.0,0.0,0.0,0.0,0.0,-3.8652,-3.7653,-3.726,-3.758,-3.684,-3.6542,-3.6778,-3.7735,-3.8091,-3.7905,-3.7905,-3.7905,-3.7872,-3.7415,-3.7212,-3.7178,-3.6688,-3.6485,-3.6485,-3.6485,-3.6485,-3.6535,-3.7026,-3.6907,-3.6574,-3.723,-3.6588,-3.5392,-3.5198,-3.4288,-3.3256,-3.2846,-3.2312,-3.1898,-3.1898,-3.1898,-3.2003,-3.2407,-3.2826,-3.2961,-3.2302,-3.2332,-3.2332,-3.1616,-3.1482,-3.1482,-3.1482,-3.1482,-3.1482,-3.1482,-3.1482,-3.1482,-3.1482,-3.1482,-3.1482,-3.1482,-3.1482,-3.1482,-3.1482,-3.2123,-3.245,-3.2225,-3.1555,-3.0939,-3.0387,-3.1433,-3.1815,-3.1254,-3.0833,-3.0419,-2.9792,-2.9792,-2.9792,-2.9792,-2.9792,-2.9792,-2.9792,-2.9792,-2.9792,-2.459,-2.5879,-2.7207,0.0,0.0,0.0,0.0,0.0,0.0,0.0,0.0,0.0,0.0,0.0,0.0,0.0,0.0,0.0,0.0,0.0,0.0,0.0,0.0,0.0,0.0,0.0,0.0,0.0,0.0,0.0,0.0,0.0,0.0,0.0,-3.6865,-3.6374,-3.6374,-3.5854,-3.5622,-3.5639,-3.6688,-3.7178,-3.7178,-3.7178,-3.7178,-3.7161,-3.6637,-3.6417,-3.6366,-3.5842,-3.5622,-3.5622,-3.5622,-3.5622,-3.569,-3.6214,-3.6079,-3.5729,-3.6555,-3.5877,-3.4562,-3.416,-3.3379,-3.2385,-3.1732,-3.1482,-3.1482,-3.1482,-3.1482,-3.1644,-3.2093,-3.2691,-3.3021,-3.2362,-3.2362,-3.2332,-3.1616,-3.1482,-3.1482,-3.1482,-3.1482,-3.1482,-3.1482,-3.1482,-3.1482,-3.1482,-3.1482,-3.1482,-3.1482,-3.1482,-3.1409,-3.1161,-3.1292,-3.1213,-3.0791,-3.0145,-2.9451,-2.8851,-3.0299,-3.0916,-3.0212,-3.0381,-3.0136,-2.9515,-2.9691,-2.9792,-2.9792,-2.9792,-2.9792,-2.9792,-2.9792,-2.9792,-2.5469,-2.6328,0.0,0.0,0.0,0.0,0.0,0.0,0.0,0.0,0.0,0.0,0.0,0.0,0.0,0.0,0.0,0.0,0.0,0.0,0.0,0.0,0.0,0.0,0.0,0.0,0.0,0.0,0.0,0.0,0.0,0.0,0.0,0.0,-3.6684,-3.6374,-3.6374,-3.5854,-3.5622,-3.5622,-3.5622,-3.5622,-3.5622,-3.5622,-3.5622,-3.5622,-3.5622,-3.5622,-3.5622,-3.5622,-3.5622,-3.5622,-3.5622,-3.5622,-3.5622,-3.5577,-3.5577,-3.547,-3.483,-3.4576,-3.4382,-3.3039,-3.2602,-3.2437,-3.1739,-3.1482,-3.1482,-3.1482,-3.1482,-3.1482,-3.1482,-3.2018,-3.2332,-3.1631,-3.2033,-3.2332,-3.1616,-3.1482,-3.1482,-3.1482,-3.1482,-3.1482,-3.1482,-3.1482,-3.1482,-3.1482,-3.1482,-3.1482,-3.1482,-3.1482,-3.1219,-3.0389,-2.9504,-2.8684,-2.7802,-2.7485,-2.7268,-2.7268,-2.7783,-2.8097,-2.8109,-2.8637,-2.8925,-2.8925,-2.9503,-2.9792,-2.9792,-2.9792,-2.9792,-2.9792,-2.9792,-2.9792,-2.4883,-2.5879,0.0,0.0,0.0,0.0,0.0,0.0,0.0,0.0,0.0,0.0,0.0,0.0,0.0,0.0,0.0,0.0,0.0,0.0,0.0,0.0,0.0,0.0,0.0,0.0,0.0,0.0,0.0,0.0,0.0,0.0,0.0,0.0,-3.6139,-3.5827,-3.5827,-3.5694,-3.5622,-3.5622,-3.5622,-3.5622,-3.5622,-3.5622,-3.5622,-3.5622,-3.5622,-3.5622,-3.5622,-3.5622,-3.5622,-3.5622,-3.5622,-3.5622,-3.5515,-3.5052,-3.4894,-3.48,-3.4137,-3.3582,-3.3145,-3.2749,-3.2272,-3.1796,-3.1582,-3.1482,-3.1482,-3.1482,-3.1482,-3.1482,-3.1482,-3.1616,-3.1779,-3.1526,-3.1616,-3.1764,-3.1511,-3.1482,-3.1482,-3.1482,-3.1482,-3.1482,-3.1482,-3.1482,-3.1482,-3.1482,-3.1482,-3.1482,-3.1482,-3.1482,-3.1409,-3.1161,-3.0389,-2.9566,-2.8684,-2.7961,-2.7352,-2.6773,-2.6854,-2.7293,-2.8072,-2.8637,-2.8925,-2.8925,-2.9503,-2.9792,-2.9792,-2.9792,-2.9792,-2.9792,-2.9792,-2.9792,-2.582,0.0,0.0,0.0,0.0,0.0,0.0,0.0,0.0,0.0,0.0,0.0,0.0,0.0,0.0,0.0,0.0,0.0,0.0,0.0,0.0,0.0,0.0,0.0,0.0,0.0,0.0,0.0,0.0,0.0,0.0,0.0,0.0,0.0,-3.5783,-3.5622,-3.5622,-3.5622,-3.5622,-3.5622,-3.5622,-3.5622,-3.5622,-3.5622,-3.5622,-3.5622,-3.5622,-3.5622,-3.5622,-3.5622,-3.5622,-3.5622,-3.5622,-3.5622,-3.5515,-3.4847,-3.4576,-3.4479,-3.3836,-3.3339,-3.2933,-3.2695,-3.2272,-3.191,-3.1582,-3.1482,-3.1482,-3.1482,-3.1482,-3.1482,-3.1482,-3.1482,-3.1482,-3.1482,-3.1482,-3.1482,-3.1482,-3.1482,-3.1482,-3.1482,-3.1482,-3.1482,-3.1482,-3.1482,-3.1482,-3.1482,-3.1482,-3.1409,-3.1087,-3.1029,-3.0777,-3.0072,-2.9566,-2.8939,-2.8051,-2.755,-2.704,-2.6521,-2.6533,-2.6753,-2.7419,-2.7984,-2.8273,-2.8273,-2.9051,-2.9453,-2.9453,-2.9679,-2.9792,-2.9792,-2.9792,-2.9792,0.0,0.0,0.0,0.0,0.0,0.0,0.0,0.0,0.0,0.0,0.0,0.0,0.0,0.0,0.0,0.0,0.0,0.0,0.0,0.0,0.0,0.0,0.0,0.0,0.0,0.0,0.0,0.0,0.0,0.0,0.0,0.0,0.0,0.0,-3.552,-3.5554,-3.5622,-3.5622,-3.5622,0.0,-3.5622,-3.5622,-3.5622,-3.5622,-3.5622,-3.5622,-3.5532,-3.5515,-3.5515,-3.5424,-3.5424,-3.5424,-3.5424,-3.5424,-3.5316,-3.4688,-3.4431,-3.4333,-3.3633,-3.3427,-3.3339,-3.2695,-3.2492,-3.2382,-3.1682,-3.1482,-3.1482,-3.1482,-3.1482,-3.1482,-3.1482,-3.1482,-3.1482,-3.1482,-3.1482,-3.1482,-3.1482,-3.1482,-3.1482,-3.1482,-3.1482,-3.1482,-3.1482,-3.1482,-3.1467,-3.1409,-3.1467,-3.1161,-3.0329,-3.0269,-2.9628,-2.7986,-2.7736,-2.7417,-2.6658,-2.6521,-2.6533,-2.6533,-2.6533,-2.6533,-2.6533,-2.6992,-2.7281,-2.7281,-2.8323,-2.885,-2.885,-2.9428,-2.9716,-2.9716,-2.9767,-2.9792,0.0,0.0,0.0,0.0,0.0,0.0,0.0,0.0,0.0,0.0,0.0,0.0,0.0,0.0,0.0,0.0,0.0,0.0,0.0,0.0,0.0,0.0,0.0,0.0,0.0,0.0,0.0,0.0,0.0,0.0,0.0,0.0,0.0,-3.4752,-3.4742,-3.5013,-3.556,-3.5622,-3.5622,0.0,-3.5622,-3.5622,-3.5622,-3.5622,-3.5622,-3.5577,-3.5052,-3.4847,-3.4783,-3.4252,-3.4053,-3.4053,-3.4053,-3.4053,-3.3953,-3.3287,-3.3039,-3.2933,-3.2201,-3.1936,-3.1951,-3.1796,-3.1754,-3.1697,-3.1524,-3.1482,-3.1482,-3.1482,-3.1482,-3.1482,-3.1482,-3.1482,-3.1482,-3.1482,-3.1482,-3.1482,-3.1482,-3.1482,-3.1482,-3.1482,-3.1482,-3.1482,-3.1482,-3.1482,-3.1278,-3.0644,-3.1087,-3.097,-2.9442,-2.9889,-2.9889,-2.8812,-2.8117,-2.7604,-2.7484,-2.685,-2.6533,-2.6533,-2.6533,-2.6533,-2.6533,-2.6992,-2.7281,-2.7281,-2.7946,-2.8285,-2.8285,-2.8837,-2.9114,-2.9126,-2.9578,-2.9792,0.0,0.0,0.0,0.0,0.0,0.0,0.0,0.0,0.0,0.0,0.0,0.0,0.0,0.0,0.0,0.0,0.0,0.0,0.0,0.0,0.0,0.0,0.0,0.0,0.0,0.0,0.0,0.0,0.0,0.0,0.0,-3.3054,-3.3516,-3.3947,-3.3964,-3.4167,-3.4556,-3.4556,-3.4556,-3.4556,-3.4556,-3.4556,-3.459,-3.5301,-3.5622,-3.5577,-3.5207,-3.4894,-3.4576,-3.4235,-3.3887,-3.3582,-3.3582,-3.3582,-3.3547,-3.2841,-3.2586,-3.2477,-3.1739,-3.1482,-3.1482,-3.1482,-3.1482,-3.1482,-3.1482,-3.1482,-3.1482,-3.1482,-3.1482,-3.1482,-3.1482,-3.1482,-3.1482,-3.1482,-3.1482,-3.1482,-3.1482,-3.1482,-3.1482,-3.1482,-3.1482,-3.1482,-3.1482,-3.1482,-3.1219,-3.0389,-3.0644,-3.0329,-2.862,-2.8748,-2.8748,-2.7855,-2.7417,-2.7095,-2.7095,-2.6714,-2.6533,-2.6533,-2.6533,-2.6533,-2.6533,-2.6741,-2.6892,-2.6892,-2.7431,-2.7708,-2.7708,-2.826,-2.8674,-2.8938,-2.9239,-2.9528,0.0,0.0,0.0,0.0,0.0,0.0,0.0,0.0,0.0,0.0,0.0,0.0,0.0,0.0,0.0,0.0,0.0,0.0,0.0,0.0,0.0,0.0,0.0,0.0,0.0,0.0,0.0,0.0,0.0,0.0,-3.2093,-3.2087,-3.2442,-3.3186,-3.322,-3.3271,-3.3406,-3.3406,-3.3406,-3.3406,-3.3406,-3.3364,-3.3313,-3.4526,-3.5211,-3.5374,-3.5284,-3.4935,-3.4431,-3.4137,-3.3707,-3.3235,-3.3235,-3.3235,-3.3182,-3.2625,-3.2437,-3.2327,-3.1682,-3.1482,-3.1482,-3.1482,-3.1482,-3.1482,-3.1482,-3.1482,-3.1482,-3.1482,-3.1482,-3.1482,-3.1482,-3.1482,-3.1482,-3.1482,-3.1482,-3.1482,-3.1482,-3.1482,-3.1482,-3.1482,-3.1482,-3.1482,-3.1482,-3.1409,-3.1029,-3.0208,-3.0072,-2.9442,-2.7736,-2.7604,-2.7417,-2.6589,-2.6533,-2.6533,-2.6533,-2.6533,-2.6533,-2.6533,-2.6533,-2.6533,-2.6533,-2.6533,-2.6533,-2.6533,-2.6904,-2.7143,-2.7143,-2.7695,-2.8197,-2.8649,-2.8737,-2.9101,0.0,0.0,0.0,0.0,0.0,0.0,0.0,0.0,0.0,0.0,0.0,0.0,0.0,0.0,0.0,0.0,0.0,0.0,0.0,0.0,0.0,0.0,0.0,0.0,0.0,0.0,0.0,0.0,0.0,0.0,-3.1365,-3.1343,-3.1664,-3.2408,-3.2425,-3.2747,-3.3406,-3.3406,-3.3406,-3.3406,-3.3406,-3.3117,-3.2646,-3.2845,-3.3562,-3.4597,-3.401,-3.3777,-3.3636,-3.2332,-3.1797,-3.1796,-3.1796,-3.1796,-3.1796,-3.1682,-3.164,-3.164,-3.1524,-3.1482,-3.1482,-3.1482,-3.1482,-3.1482,-3.1482,-3.1482,-3.1482,-3.1482,-3.1482,-3.1482,-3.1482,-3.1482,-3.1482,-3.1482,-3.1482,-3.1482,-3.1482,-3.1482,-3.1482,-3.1482,-3.1482,-3.1482,-3.1482,-3.0896,-3.0147,-2.9317,-2.9192,-2.8556,-2.6905,-2.7297,-2.7417,-2.6589,-2.6533,-2.6533,-2.6533,-2.6533,-2.6533,-2.6533,-2.6533,-2.6533,-2.6533,-2.6533,-2.6533,-2.6533,-2.6596,-2.6634,-2.6647,-2.713,-2.7431,-2.7507,-2.7996,-2.8511,0.0,0.0,0.0,0.0,0.0,0.0,0.0,0.0,0.0,0.0,0.0,0.0,0.0,0.0,0.0,0.0,0.0,0.0,0.0,0.0,0.0,0.0,0.0,0.0,0.0,0.0,0.0,0.0,0.0,-3.1389,-3.119,-3.119,-3.1343,-3.1664,-3.1664,-3.1833,-3.2154,-3.2171,-3.1991,-3.165,-3.165,-3.1335,-3.0807,-3.118,-3.1949,-3.2866,-3.2572,-3.2224,-3.1895,-3.1223,-3.0739,-3.0477,-3.0821,-3.0956,-3.1001,-3.1332,-3.1482,-3.1482,-3.1482,-3.1482,-3.1482,-3.1482,-3.1482,-3.1482,-3.1482,-3.1482,-3.1482,-3.1482,-3.1482,-3.1482,-3.1482,-3.1482,-3.1482,-3.1482,-3.1482,-3.1482,-3.1482,-3.1482,-3.1482,-3.1482,-3.1482,-3.1482,-3.1482,-3.0837,-3.0011,-2.9129,-2.8556,-2.7868,-2.6658,-2.6782,-2.6905,-2.6521,-2.6533,-2.6533,-2.6533,-2.6533,-2.6533,-2.6533,-2.6533,-2.6533,-2.6533,-2.6533,-2.6533,-2.6533,-2.6533,-2.6533,-2.6533,-2.6703,-2.6979,-2.7293,-2.7532,-2.7946,0.0,0.0,0.0,0.0,0.0,0.0,0.0,0.0,0.0,0.0,0.0,0.0,0.0,0.0,0.0,0.0,0.0,0.0,0.0,0.0,0.0,0.0,0.0,0.0,0.0,0.0,0.0,0.0,0.0,-3.1004,-3.119,-3.119,-3.119,-3.119,-3.119,-3.119,-3.119,-3.1055,-3.0658,-3.0081,-3.0081,-2.9761,-2.9196,-2.975,-3.0228,-3.0591,-3.1102,-3.1036,-3.0596,-3.039,-3.0042,-2.9639,-3.0253,-3.0507,-3.0582,-3.1228,-3.1482,-3.1482,-3.1482,-3.1482,-3.1482,-3.1482,-3.1482,-3.1482,-3.1482,-3.1482,-3.1482,-3.1482,-3.1482,-3.1482,-3.1482,-3.1482,-3.1482,-3.1482,-3.1482,-3.1482,-3.1482,-3.1482,-3.1482,-3.1482,-3.1351,-3.1219,-3.1219,-3.0329,-2.9442,-2.8748,-2.792,-2.7162,-2.6589,-2.6533,-2.6533,-2.6533,-2.6533,-2.6533,-2.6533,-2.6533,-2.6533,-2.6533,-2.6533,-2.6533,-2.6533,-2.6533,-2.6533,-2.6533,-2.6533,-2.6533,-2.6533,-2.6245,-2.6305,-2.6701,-2.6463,-2.6602,0.0,0.0,0.0,0.0,0.0,0.0,0.0,0.0,0.0,0.0,0.0,0.0,0.0,0.0,0.0,0.0,0.0,0.0,0.0,0.0,0.0,0.0,0.0,0.0,0.0,0.0,0.0,0.0,0.0,-3.0463,-3.1157,-3.119,-3.119,-3.119,-3.119,-3.119,-3.119,-3.0617,-3.0021,-2.9451,-2.9451,-2.9134,-2.8559,-2.859,-2.8299,-2.7896,-2.9785,-3.0577,-3.0565,-2.9844,-2.9577,-2.9639,-3.0253,-3.0507,-3.0582,-3.1228,-3.1482,-3.1482,-3.1482,-3.1482,-3.1482,-3.1482,-3.1482,-3.1482,-3.1482,-3.1482,-3.1482,-3.1482,-3.1482,-3.1482,-3.1482,-3.1482,-3.1482,-3.1482,-3.1482,-3.1482,-3.1482,-3.1482,-3.1482,-3.1482,-3.0896,-3.0329,-3.0329,-2.8939,-2.7802,-2.7802,-2.7095,-2.6521,-2.6533,-2.6533,-2.6533,-2.6533,-2.6533,-2.6533,-2.6533,-2.6533,-2.6533,-2.6533,-2.6533,-2.6533,-2.6533,-2.6533,-2.6533,-2.6533,-2.6533,-2.6533,-2.6533,-2.5511,-2.5099,-2.5123,-2.4154,-2.3965,0.0,0.0,0.0,0.0,0.0,0.0,0.0,0.0,0.0,0.0,0.0,0.0,0.0,0.0,0.0,0.0,0.0,0.0,0.0,0.0,0.0,0.0,0.0,0.0,0.0,0.0,0.0,0.0,0.0,0.0,-3.1157,-3.119,-3.119,-3.119,-3.0821,-3.0435,-3.0038,-2.9805,-2.9406,-2.8826,-2.8826,-2.8511,-2.7894,-2.7894,-2.781,-2.7625,-2.8335,-2.8664,-2.8627,-2.8399,-2.8308,-2.8397,-2.949,-2.9909,-3.0043,-3.1135,-3.1482,-3.1482,-3.1482,-3.1482,-3.1482,-3.1482,-3.1482,-3.1482,-3.1482,-3.1482,-3.1482,-3.1482,-3.1482,-3.1482,-3.1482,-3.1482,-3.1351,-3.0837,-3.0718,-3.0584,-3.0011,-3.0329,-3.0718,-3.0718,-3.0072,-2.9442,-2.9442,-2.8492,-2.767,-2.767,-2.704,-2.6533,-2.6533,-2.6533,-2.6533,-2.6533,-2.6533,-2.6533,-2.6533,-2.6533,-2.6533,-2.6533,-2.6533,-2.6533,-2.6533,-2.6533,-2.6533,-2.6533,-2.6533,-2.6533,-2.6533,-2.5511,-2.5004,-2.5016,-2.3963,-2.3615,0.0,0.0,0.0,0.0,0.0,0.0,0.0,0.0,0.0,0.0,0.0,0.0,0.0,0.0,0.0,0.0,0.0,0.0,0.0,0.0,0.0,0.0,0.0,0.0,0.0,0.0,0.0,0.0,0.0,0.0,-3.0412,-3.0446,-3.047,-3.0549,-2.9972,-2.9475,-2.9088,-2.9104,-2.8779,-2.8189,-2.8189,-2.7993,-2.7625,-2.7625,-2.7625,-2.7625,-2.7625,-2.7625,-2.7625,-2.7625,-2.7625,-2.7745,-2.9056,-2.9579,-2.9744,-3.1046,-3.1482,-3.1467,-3.1219,-3.1087,-3.1029,-3.0777,-3.0644,-3.0644,-3.0644,-3.0644,-3.0644,-3.0644,-3.0896,-3.1087,-3.1087,-3.1087,-3.097,-3.045,-3.0072,-2.969,-2.9129,-2.9442,-2.9889,-2.9889,-2.9192,-2.8556,-2.8556,-2.7855,-2.7284,-2.7284,-2.685,-2.6533,-2.6533,-2.6533,-2.6533,-2.6533,-2.6533,-2.6533,-2.6533,-2.6533,-2.6533,-2.6533,-2.6533,-2.6533,-2.6533,-2.6533,-2.6314,-2.6013,-2.6025,-2.6025,-2.6025,-2.5004,-2.4492,-2.448,-2.3147,-2.2563,0.0,0.0,0.0,0.0,0.0,0.0,0.0,0.0,0.0,0.0,0.0,0.0,0.0,0.0,0.0,0.0,0.0,0.0,0.0,0.0,0.0,0.0,0.0,0.0,0.0,0.0,0.0,0.0,0.0,-2.8127,-2.8941,-2.8975,-2.9001,-2.9099,-2.8644,-2.8373,-2.8432,-2.8432,-2.8158,-2.7625,-2.7625,-2.7625,-2.7625,-2.7625,-2.7625,-2.7625,-2.7625,-2.7575,-2.7575,-2.7575,-2.7625,-2.7745,-2.9056,-2.9579,-2.9744,-3.1046,-3.1482,-3.1409,-3.0584,-3.0329,-3.0208,-2.938,-2.9066,-2.9066,-2.9066,-2.9002,-2.9002,-2.9002,-2.9628,-3.0269,-3.0269,-3.0269,-3.0269,-3.0208,-2.9566,-2.8939,-2.8939,-2.8939,-2.8939,-2.8939,-2.8247,-2.767,-2.767,-2.704,-2.6533,-2.6533,-2.6533,-2.6533,-2.6533,-2.6533,-2.6533,-2.6533,-2.6533,-2.6533,-2.6533,-2.6533,-2.6533,-2.6533,-2.6533,-2.6533,-2.6533,-2.6533,-2.6025,-2.5016,-2.5004,-2.5016,-2.4933,-2.3963,-2.3441,-2.3441,-2.1527,-2.0566,-1.982,0.0,0.0,0.0,0.0,0.0,0.0,0.0,0.0,0.0,0.0,0.0,0.0,0.0,0.0,0.0,0.0,0.0,0.0,0.0,0.0,0.0,0.0,0.0,0.0,0.0,0.0,0.0,-2.7789,-2.7986,-2.8389,-2.8024,-2.7664,-2.7268,-2.7095,-2.7055,-2.7134,-2.7149,-2.7293,-2.7625,-2.7625,-2.7625,-2.7625,-2.7625,-2.7625,-2.7625,-2.7625,-2.7306,-2.6826,-2.7357,-2.7625,-2.7745,-2.9056,-2.9579,-2.9744,-3.1046,-3.1482,-3.1467,-3.1219,-3.1161,-3.1146,-3.0896,-3.0389,-2.995,-2.995,-2.9504,-2.9002,-2.9002,-2.9192,-2.938,-2.938,-2.938,-2.9192,-2.8556,-2.8247,-2.792,-2.7284,-2.7162,-2.7351,-2.792,-2.7417,-2.685,-2.685,-2.6658,-2.6533,-2.6533,-2.6533,-2.6533,-2.6533,-2.6533,-2.6533,-2.6533,-2.6533,-2.6533,-2.6533,-2.6533,-2.6533,-2.6533,-2.6533,-2.6533,-2.6533,-2.6533,-2.6025,-2.5016,-2.5004,-2.4636,-2.3891,-2.2925,-2.2776,-2.3441,-2.1527,-2.0566,0.0,0.0,0.0,0.0,0.0,0.0,0.0,0.0,0.0,0.0,0.0,0.0,0.0,0.0,0.0,0.0,0.0,0.0,0.0,0.0,0.0,0.0,0.0,0.0,0.0,0.0,0.0,-2.7317,-2.716,-2.7005,-2.6951,-2.6439,-2.6131,-2.606,-2.5812,-2.5849,-2.6183,-2.6183,-2.6512,-2.7156,-2.7156,-2.7355,-2.7625,-2.7625,-2.7625,-2.7625,-2.7625,-2.7203,-2.651,-2.6982,-2.6982,-2.6808,-2.7839,-2.8286,-2.8446,-2.9653,-3.0118,-3.0102,-2.9986,-2.9889,-2.9889,-2.9504,-2.9129,-2.8684,-2.8684,-2.8363,-2.7986,-2.7986,-2.8182,-2.8556,-2.8939,-2.8748,-2.8298,-2.7802,-2.7417,-2.7095,-2.6589,-2.6533,-2.6658,-2.7095,-2.685,-2.6533,-2.6533,-2.6533,-2.6533,-2.6533,-2.6533,-2.6533,-2.6533,-2.6533,-2.6533,-2.6533,-2.6533,-2.6533,-2.6533,-2.6533,-2.6533,-2.6533,-2.6533,-2.6533,-2.6533,-2.6533,-2.5804,-2.4409,-2.4337,-2.3672,-2.2264,-2.2113,-2.2103,-2.2264,-2.1165,-2.0566,0.0,0.0,0.0,0.0,0.0,0.0,-2.4743,-2.4726,0.0,0.0,0.0,0.0,0.0,0.0,0.0,0.0,0.0,0.0,0.0,0.0,0.0,0.0,0.0,0.0,0.0,-2.6624,-2.659,-2.6539,-2.6104,-2.5615,-2.5144,-2.4576,-2.4601,-2.5191,-2.4715,-2.4837,-2.5495,-2.5495,-2.5869,-2.6587,-2.6538,-2.6832,-2.7473,-2.7408,-2.7357,-2.7357,-2.7357,-2.693,-2.6283,-2.6283,-2.5906,-2.5467,-2.6117,-2.641,-2.6549,-2.77,-2.8116,-2.8091,-2.7809,-2.7762,-2.7644,-2.7015,-2.6714,-2.6658,-2.6658,-2.6589,-2.6533,-2.6533,-2.704,-2.7736,-2.8492,-2.8182,-2.7537,-2.7537,-2.704,-2.6533,-2.6533,-2.6533,-2.6533,-2.6533,-2.6533,-2.6533,-2.6533,-2.6533,-2.6533,-2.6533,-2.6533,-2.6533,-2.6533,-2.6533,-2.6533,-2.6533,-2.6533,-2.6533,-2.6533,-2.6533,-2.6452,-2.6314,-2.6465,-2.6383,-2.6164,-2.6383,-2.5499,-2.3368,-2.322,-2.2339,-2.0566,-2.1517,-2.1517,-2.0566,-2.0566,-2.0566,0.0,-2.4392,-2.4694,0.0,0.0,0.0,0.0,-2.3035,0.0,0.0,0.0,0.0,0.0,0.0,0.0,0.0,0.0,0.0,0.0,0.0,0.0,0.0,0.0,0.0,0.0,-2.6156,-2.5961,-2.5524,-2.5012,-2.4672,-2.4552,-2.4032,-2.3827,-2.3963,-2.3833,-2.4133,-2.4761,-2.4776,-2.542,-2.6587,-2.6,-2.6083,-2.6669,-2.6108,-2.5837,-2.5837,-2.5837,-2.5398,-2.4738,-2.4738,-2.5007,-2.5467,-2.6117,-2.641,-2.6493,-2.7201,-2.7464,-2.7547,-2.7941,-2.8085,-2.8167,-2.8393,-2.8051,-2.7484,-2.7484,-2.704,-2.6533,-2.6533,-2.6589,-2.6782,-2.6905,-2.685,-2.6714,-2.6714,-2.6589,-2.6533,-2.6533,-2.6533,-2.6533,-2.6533,-2.6533,-2.6533,-2.6533,-2.6533,-2.6533,-2.6533,-2.6533,-2.6533,-2.6533,-2.6533,-2.6533,-2.6533,-2.6533,-2.6533,-2.6533,-2.6533,-2.6164,-2.537,-2.6025,-2.5791,-2.4181,-2.5639,-2.5193,-2.2328,-2.1517,-2.1011,-2.0566,-2.1517,-2.1517,-2.0566,-2.0566,-2.0566,0.0,0.0,-2.5208,-2.406,0.0,0.0,0.0,0.0,-2.263,0.0,0.0,0.0,0.0,0.0,0.0,0.0,0.0,0.0,0.0,0.0,0.0,0.0,0.0,0.0,0.0,-2.5615,-2.5373,-2.4816,-2.4552,-2.4266,-2.4032,-2.3767,-2.3595,-2.3595,-2.3595,-2.3628,-2.3656,-2.3656,-2.3987,-2.463,-2.4611,-2.4874,-2.548,-2.5424,-2.5398,-2.5398,-2.5398,-2.4951,-2.4292,-2.4292,-2.4279,-2.4292,-2.4641,-2.476,-2.4826,-2.5408,-2.568,-2.576,-2.6307,-2.6678,-2.6956,-2.7247,-2.7236,-2.7095,-2.7095,-2.685,-2.6533,-2.6533,-2.6533,-2.6533,-2.6533,-2.6533,-2.6533,-2.6533,-2.6533,-2.6533,-2.6533,-2.6533,-2.6533,-2.6533,-2.6533,-2.6533,-2.6533,-2.6533,-2.6533,-2.6533,-2.6533,-2.6533,-2.6533,-2.6533,-2.6533,-2.6533,-2.6533,-2.6533,-2.6533,-2.6533,-2.6094,-2.5075,-2.5441,-2.5063,-2.3588,-2.4469,-2.4097,-2.2027,-2.1078,-2.0566,-2.0566,-2.1078,-2.1078,-2.0566,-2.0566,-2.0566,0.0,0.0,0.0,0.0,0.0,-2.3684,0.0,0.0,0.0,-2.2998,0.0,0.0,0.0,0.0,0.0,0.0,0.0,0.0,0.0,0.0,0.0,0.0,0.0,0.0,0.0,-2.4782,-2.4571,-2.4266,-2.4117,-2.3937,-2.3638,-2.3595,-2.3595,-2.3595,-2.3465,-2.3187,-2.2694,-2.2558,-2.2578,-2.2713,-2.3132,-2.3683,-2.4312,-2.4777,-2.4951,-2.4951,-2.4951,-2.461,-2.406,-2.406,-2.3708,-2.3078,-2.3078,-2.3078,-2.3128,-2.3665,-2.3841,-2.3916,-2.4469,-2.4946,-2.5322,-2.5523,-2.5988,-2.6533,-2.6533,-2.6533,-2.6533,-2.6533,-2.6533,-2.6533,-2.6533,-2.6533,-2.6533,-2.6533,-2.6533,-2.6533,-2.6533,-2.6533,-2.6533,-2.6533,-2.6533,-2.6533,-2.6533,-2.6533,-2.6533,-2.6533,-2.6533,-2.6533,-2.6533,-2.6533,-2.6533,-2.6533,-2.6533,-2.6533,-2.6533,-2.6533,-2.6025,-2.4791,-2.4862,-2.442,-2.301,-2.2936,-2.2627,-2.2027,-2.1078,-2.0566,-2.0566,-2.0566,-2.0566,-2.0566,-2.0566,-2.0566,0.0,0.0,0.0,0.0,-2.5236,0.0,0.0,0.0,-2.2325,-2.1488,0.0,0.0,0.0,0.0,0.0,0.0,0.0,0.0,0.0,0.0,0.0,0.0,0.0,0.0,0.0,0.0,-2.3164,-2.3679,-2.3212,-2.3095,-2.3565,-2.3595,-2.3595,-2.3595,-2.3054,-2.2785,-2.2694,-2.21,-2.2124,-2.2713,-2.2602,-2.2882,-2.3506,-2.3438,-2.3365,-2.3365,-2.3365,-2.3305,-2.3258,-2.3258,-2.3185,-2.3078,-2.3078,-2.3078,-2.3078,-2.3153,-2.3226,-2.3314,-2.3891,-2.413,-2.433,-2.5285,-2.5988,-2.6533,-2.6533,-2.6533,-2.6533,-2.6533,-2.6533,-2.6533,-2.6533,-2.6533,-2.6533,-2.6533,-2.6533,-2.6533,-2.6533,-2.6533,-2.6533,-2.6533,-2.6533,-2.6533,-2.6533,-2.6533,-2.6533,-2.6533,-2.6533,-2.6533,-2.6533,-2.6533,-2.6533,-2.6533,-2.6533,-2.6533,-2.6533,-2.6533,-2.5721,-2.3818,-2.4492,-2.3745,-2.1011,-2.0934,-2.1308,-2.1952,-2.1078,-2.0566,-2.0566,-2.0566,-2.0566,-2.0566,-2.0566,-2.0566,0.0,0.0,0.0,0.0,0.0,0.0,0.0,0.0,-2.0874,0.0,0.0,0.0,0.0,0.0,0.0,0.0,0.0,0.0,0.0,0.0,0.0,0.0,0.0,0.0,0.0,0.0,0.0,0.0,0.0,-2.2482,-2.3024,-2.3054,-2.2905,-2.25,-2.2239,-2.1974,-2.1609,-2.1307,-2.1135,-2.1038,-2.1288,-2.1706,-2.2326,-2.2513,-2.2836,-2.3078,-2.3078,-2.3078,-2.3078,-2.3078,-2.3078,-2.3078,-2.3078,-2.3078,-2.3078,-2.3078,-2.3078,-2.3115,-2.3414,-2.3715,-2.418,-2.5247,-2.5762,-2.6013,-2.642,-2.6533,-2.6533,-2.6533,-2.6533,-2.6533,-2.6533,-2.6533,-2.6533,-2.6533,-2.6533,-2.6533,-2.6533,-2.6533,-2.6533,-2.6533,-2.6533,-2.6533,-2.6533,-2.6533,-2.6533,-2.6533,-2.6533,-2.6533,-2.6533,-2.6533,-2.6533,-2.6533,-2.6533,-2.6533,-2.6533,-2.6533,-2.5639,-2.3661,-2.2861,-2.1897,-2.0644,-2.0566,-2.0789,-2.1155,-2.0789,-2.0566,-2.0566,-2.0566,-2.0566,-2.0566,-2.0566,-2.0566,-2.7754,0.0,0.0,0.0,0.0,0.0,0.0,0.0,0.0,0.0,0.0,0.0,0.0,0.0,0.0,0.0,0.0,0.0,0.0,0.0,0.0,0.0,0.0,0.0,0.0,0.0,0.0,0.0,0.0,0.0,-2.2409,-2.2452,-2.2193,-2.171,-2.152,-2.1245,-2.0795,-2.0597,-2.0308,-1.9811,-2.0388,-2.0953,-2.1506,-2.2058,-2.2611,-2.3078,-2.3078,-2.3078,-2.3078,-2.3078,-2.3078,-2.3078,-2.3078,-2.2944,-2.2823,-2.3005,-2.3078,-2.3078,-2.3078,-2.3514,-2.4079,-2.4731,-2.5061,-2.5283,-2.555,-2.5652,-2.5652,-2.5652,-2.5652,-2.5721,-2.6025,-2.6094,-2.6164,-2.6452,-2.6533,-2.6533,-2.6533,-2.6533,-2.6533,-2.6533,-2.6533,-2.6533,-2.6533,-2.6533,-2.6533,-2.6533,-2.6533,-2.6533,-2.6533,-2.6533,-2.6533,-2.6533,-2.6533,-2.6383,-2.6094,-2.6314,-2.5639,-2.3661,-2.168,-2.0566,-2.0566,-2.0566,-2.0566,-2.0566,-2.0566,-2.0566,-2.0566,-2.0566,-2.0566,-2.0566,-2.0566,-2.0566,0.0,0.0,0.0,-2.4431,0.0,0.0,0.0,0.0,-2.0094,0.0,0.0,0.0,0.0,0.0,0.0,0.0,0.0,0.0,0.0,0.0,0.0,0.0,0.0,0.0,0.0,0.0,0.0,0.0,0.0,0.0,-2.1688,-2.1744,-2.1697,-2.1697,-2.1113,-2.0795,-2.0795,-2.0156,-1.9798,-1.9811,-2.0388,-2.0953,-2.1506,-2.2058,-2.2611,-2.3078,-2.3078,-2.3078,-2.3078,-2.3078,-2.3078,-2.3078,-2.3078,-2.2628,-2.2002,-2.2823,-2.3078,-2.3078,-2.3078,-2.3514,-2.3954,-2.3478,-2.3803,-2.4176,-2.3731,-2.3588,-2.3588,-2.3588,-2.3588,-2.3818,-2.4791,-2.5075,-2.53,-2.6245,-2.6533,-2.6533,-2.6533,-2.6533,-2.6533,-2.6533,-2.6533,-2.6533,-2.6533,-2.6533,-2.6533,-2.6533,-2.6533,-2.6533,-2.6533,-2.6533,-2.6533,-2.6533,-2.6533,-2.6094,-2.5146,-2.5955,-2.5639,-2.3661,-2.168,-2.0566,-2.0566,-2.0566,-2.0566,-2.0566,-2.0566,-2.0566,-2.0566,-2.0566,-2.0566,-2.0566,-2.0566,-2.0566,0.0,0.0,-2.5444,-2.4301,0.0,0.0,0.0,0.0,0.0,0.0,0.0,0.0,0.0,0.0,0.0,0.0,0.0,0.0,0.0,0.0,0.0,0.0,0.0,0.0,0.0,0.0,0.0,0.0,0.0,0.0,0.0,-2.1113,-2.0917,-2.0471,-2.0245,-2.0156,-2.0156,-1.9901,-1.9798,-1.9798,-1.9999,-2.0577,-2.1493,-2.1681,-2.1968,-2.2322,-2.2322,-2.2002,-2.1479,-2.1479,-2.1479,-2.1479,-2.1479,-2.129,-2.1164,-2.2002,-2.1928,-2.1479,-2.1479,-2.1596,-2.1824,-2.2329,-2.2571,-2.2868,-2.334,-2.3514,-2.3514,-2.3514,-2.3514,-2.3599,-2.3891,-2.4036,-2.4264,-2.5288,-2.5523,-2.5664,-2.6383,-2.5955,-2.5734,-2.6383,-2.5943,-2.5523,-2.5523,-2.5523,-2.5734,-2.6383,-2.5955,-2.5523,-2.5523,-2.5523,-2.5523,-2.5523,-2.6094,-2.6094,-2.5087,-2.4097,-2.3209,-2.2553,-2.1298,-2.0566,-2.0566,-2.0566,-2.0566,-2.0566,-2.0566,-2.0566,-2.0566,-2.0566,-2.0566,-2.0566,-2.0566,-2.0566,-2.6077,-2.5644,0.0,-2.3795,-2.2972,0.0,-2.0338,0.0,0.0,0.0,0.0,0.0,0.0,0.0,0.0,0.0,0.0,0.0,0.0,0.0,0.0,0.0,0.0,0.0,0.0,0.0,-1.8065,-1.9806,0.0,0.0,0.0,0.0,-2.0258,-1.9798,-1.9798,-1.9798,-1.9798,-1.9798,-1.9798,-1.9798,-1.9798,-2.0182,-2.0847,-2.0976,-2.1078,-2.1222,-2.1346,-2.1101,-2.059,-2.059,-2.059,-2.059,-2.059,-2.0398,-2.0268,-2.1101,-2.1112,-2.059,-2.059,-2.059,-2.066,-2.1116,-2.1352,-2.1566,-2.2069,-2.2349,-2.2489,-2.2489,-2.2489,-2.2563,-2.285,-2.2999,-2.322,-2.4264,-2.4492,-2.4636,-2.5276,-2.4921,-2.4779,-2.5804,-2.5441,-2.5004,-2.5004,-2.5004,-2.5229,-2.5873,-2.5146,-2.4564,-2.4933,-2.4707,-2.4636,-2.4933,-2.5288,-2.5134,-2.4492,-2.2627,-2.1659,-2.1962,-2.1155,-2.0566,-2.0566,-2.0566,-2.0566,-2.0566,-2.0566,-2.0566,-2.0566,-2.0566,-2.0566,-2.0566,-2.0566,-2.0566]},{"header":{"parameterUnit":"m.s-1","parameterCategory":1,"la1":30.6,"la2":29.2853,"lo1":-89.7004,"lo2":-87.6739,"dy":0.0162,"dx":0.0183,"nx":112,"ny":82,"refTime":"2024-08-07T06:00:00:Z","depth":0,"parameterNumber":3,"parameterNumberName":"V-component_of_WINDS"},"data":[0.0,0.0,0.0,0.0,0.0,0.0,0.0,0.0,0.0,0.0,0.0,0.0,0.0,0.0,0.0,0.0,0.0,0.0,0.0,0.0,0.0,0.0,0.0,0.0,0.0,0.0,0.0,0.0,0.0,0.0,0.0,0.0,0.0,0.0,0.0,0.0,0.0,0.0,0.0,0.0,0.0,0.0,0.0,0.0,0.0,0.0,0.0,0.0,0.0,0.0,0.0,0.0,0.0,0.0,0.0,0.0,0.0,0.0,0.0,0.0,0.0,0.0,0.0,0.0,0.0,0.0,0.0,0.0,0.0,0.0,0.0,0.0,0.0,0.0,0.0,0.0,0.0,0.0,0.0,0.0,0.0,0.0,0.0,0.0,0.0,0.0,0.0,0.0,0.0,0.0,0.0,-2.0769,-2.2246,-2.2936,-2.2611,-2.2321,-2.1506,-1.9899,0.0,0.0,0.0,0.0,0.0,0.0,0.0,0.0,0.0,0.0,0.0,0.0,0.0,0.0,0.0,0.0,0.0,0.0,0.0,0.0,0.0,0.0,0.0,0.0,0.0,0.0,0.0,0.0,0.0,0.0,0.0,0.0,0.0,0.0,0.0,0.0,0.0,0.0,0.0,0.0,0.0,0.0,0.0,0.0,0.0,0.0,0.0,0.0,0.0,0.0,0.0,0.0,0.0,0.0,0.0,0.0,0.0,0.0,0.0,0.0,0.0,0.0,0.0,0.0,0.0,0.0,0.0,0.0,0.0,0.0,0.0,0.0,0.0,0.0,0.0,0.0,0.0,0.0,0.0,0.0,0.0,0.0,0.0,0.0,0.0,0.0,0.0,0.0,0.0,0.0,0.0,0.0,0.0,0.0,0.0,0.0,0.0,0.0,0.0,0.0,0.0,0.0,0.0,0.0,-1.9124,-2.1788,-2.2711,-2.3103,-2.2996,-2.2189,-2.1091,-1.9874,0.0,0.0,0.0,0.0,0.0,0.0,0.0,0.0,0.0,0.0,0.0,0.0,0.0,0.0,0.0,0.0,0.0,0.0,0.0,0.0,0.0,0.0,0.0,0.0,0.0,0.0,0.0,0.0,0.0,0.0,0.0,0.0,0.0,0.0,0.0,0.0,0.0,0.0,0.0,0.0,0.0,0.0,0.0,0.0,0.0,0.0,0.0,0.0,0.0,0.0,0.0,0.0,0.0,0.0,0.0,0.0,0.0,0.0,0.0,0.0,0.0,0.0,0.0,0.0,0.0,0.0,0.0,0.0,0.0,0.0,0.0,0.0,0.0,0.0,0.0,0.0,0.0,0.0,0.0,0.0,0.0,0.0,0.0,0.0,0.0,0.0,0.0,0.0,0.0,0.0,0.0,0.0,0.0,0.0,0.0,0.0,0.0,0.0,0.0,0.0,0.0,0.0,0.0,-1.8805,-1.9927,-2.246,-2.2927,-2.3078,-2.3078,-2.2121,-2.1004,-1.9874,-1.7978,0.0,0.0,0.0,0.0,0.0,0.0,0.0,0.0,0.0,0.0,0.0,0.0,0.0,0.0,0.0,0.0,0.0,0.0,0.0,0.0,0.0,0.0,0.0,0.0,0.0,0.0,0.0,0.0,0.0,0.0,0.0,0.0,0.0,0.0,0.0,0.0,0.0,0.0,0.0,0.0,0.0,0.0,0.0,0.0,0.0,0.0,0.0,0.0,0.0,0.0,0.0,0.0,0.0,0.0,0.0,0.0,0.0,0.0,0.0,0.0,0.0,0.0,0.0,0.0,0.0,0.0,0.0,0.0,0.0,0.0,0.0,0.0,0.0,0.0,0.0,0.0,0.0,0.0,0.0,0.0,0.0,0.0,0.0,0.0,0.0,0.0,0.0,0.0,0.0,0.0,0.0,0.0,0.0,0.0,0.0,0.0,0.0,0.0,0.0,0.0,0.0,0.0,-1.9798,-2.0903,-2.2749,-2.3002,-2.3027,-2.289,-2.1807,-2.0614,-1.9497,-1.7225,0.0,0.0,0.0,0.0,0.0,0.0,0.0,0.0,0.0,0.0,0.0,0.0,0.0,0.0,0.0,0.0,0.0,0.0,0.0,0.0,0.0,0.0,0.0,0.0,0.0,0.0,0.0,0.0,0.0,0.0,0.0,0.0,0.0,0.0,0.0,0.0,0.0,0.0,0.0,0.0,0.0,0.0,0.0,0.0,0.0,0.0,0.0,0.0,0.0,0.0,0.0,0.0,0.0,0.0,0.0,0.0,0.0,0.0,0.0,0.0,0.0,0.0,0.0,0.0,0.0,0.0,0.0,0.0,0.0,0.0,0.0,0.0,0.0,0.0,0.0,0.0,0.0,0.0,0.0,0.0,0.0,0.0,0.0,0.0,0.0,0.0,0.0,0.0,0.0,0.0,0.0,0.0,0.0,0.0,0.0,0.0,0.0,0.0,0.0,0.0,0.0,0.0,-1.9786,-2.1631,-2.2297,-2.2824,-2.2924,-2.241,-2.0865,-1.9459,-1.838,-1.5784,0.0,0.0,0.0,0.0,0.0,0.0,0.0,0.0,0.0,0.0,0.0,0.0,0.0,0.0,0.0,0.0,0.0,0.0,0.0,0.0,0.0,0.0,0.0,0.0,0.0,0.0,0.0,0.0,0.0,0.0,0.0,0.0,0.0,0.0,0.0,0.0,0.0,0.0,0.0,0.0,0.0,0.0,0.0,0.0,0.0,0.0,0.0,0.0,0.0,0.0,0.0,0.0,0.0,0.0,0.0,0.0,0.0,0.0,0.0,0.0,0.0,0.0,0.0,0.0,0.0,0.0,0.0,0.0,0.0,0.0,0.0,0.0,0.0,0.0,0.0,0.0,0.0,0.0,0.0,0.0,0.0,0.0,0.0,0.0,0.0,0.0,0.0,0.0,0.0,0.0,0.0,0.0,0.0,0.0,0.0,0.0,0.0,0.0,0.0,0.0,0.0,0.0,-1.9171,-2.0916,0.0,-2.2811,-2.2852,-2.2359,-2.1418,-2.01,-1.8317,0.0,0.0,0.0,0.0,0.0,0.0,0.0,0.0,0.0,0.0,0.0,0.0,0.0,0.0,0.0,0.0,0.0,0.0,0.0,0.0,0.0,0.0,0.0,0.0,0.0,0.0,0.0,0.0,0.0,0.0,0.0,0.0,0.0,0.0,0.0,0.0,0.0,0.0,0.0,0.0,0.0,0.0,0.0,0.0,0.0,0.0,0.0,0.0,0.0,0.0,0.0,0.0,0.0,0.0,0.0,0.0,0.0,0.0,0.0,0.0,0.0,0.0,0.0,0.0,0.0,0.0,0.0,0.0,0.0,0.0,0.0,0.0,0.0,0.0,0.0,0.0,0.0,0.0,0.0,0.0,0.0,0.0,0.0,0.0,0.0,0.0,0.0,0.0,0.0,0.0,0.0,0.0,0.0,0.0,0.0,0.0,0.0,0.0,0.0,0.0,0.0,0.0,-1.6961,-1.8844,-2.0514,0.0,-2.2284,-2.2385,-2.1832,-2.1129,-1.9836,-1.7802,0.0,0.0,0.0,0.0,0.0,0.0,0.0,0.0,0.0,0.0,0.0,0.0,0.0,0.0,0.0,0.0,0.0,0.0,0.0,0.0,0.0,0.0,0.0,0.0,0.0,0.0,0.0,0.0,0.0,0.0,0.0,0.0,0.0,0.0,0.0,0.0,0.0,0.0,0.0,0.0,0.0,0.0,0.0,0.0,0.0,0.0,0.0,0.0,0.0,0.0,0.0,0.0,0.0,0.0,0.0,0.0,0.0,0.0,0.0,0.0,0.0,0.0,0.0,0.0,0.0,0.0,0.0,0.0,0.0,0.0,0.0,0.0,0.0,0.0,0.0,0.0,0.0,0.0,0.0,0.0,0.0,0.0,0.0,0.0,0.0,0.0,0.0,0.0,0.0,0.0,0.0,0.0,0.0,0.0,0.0,0.0,0.0,0.0,0.0,0.0,0.0,0.0,-1.6522,-1.8945,-2.0718,-2.0718,-2.1154,-2.1267,-2.0769,-1.9673,-1.8282,0.0,0.0,0.0,0.0,0.0,0.0,0.0,0.0,0.0,0.0,0.0,0.0,0.0,0.0,0.0,0.0,0.0,0.0,0.0,0.0,0.0,0.0,0.0,0.0,0.0,0.0,0.0,0.0,0.0,0.0,0.0,0.0,0.0,0.0,0.0,0.0,0.0,0.0,0.0,0.0,0.0,0.0,0.0,0.0,0.0,0.0,0.0,0.0,0.0,0.0,0.0,0.0,0.0,0.0,0.0,0.0,0.0,0.0,0.0,0.0,0.0,0.0,0.0,0.0,0.0,0.0,0.0,0.0,0.0,0.0,0.0,0.0,0.0,0.0,0.0,0.0,0.0,0.0,0.0,0.0,0.0,0.0,0.0,0.0,0.0,0.0,0.0,0.0,0.0,0.0,0.0,0.0,0.0,0.0,0.0,0.0,0.0,0.0,0.0,0.0,0.0,0.0,0.0,-1.6522,-1.8945,-2.0718,-2.0718,-2.1154,-2.1267,-2.0769,-2.0376,-1.9133,-1.6672,0.0,0.0,0.0,0.0,0.0,0.0,0.0,0.0,0.0,0.0,0.0,0.0,0.0,0.0,0.0,0.0,0.0,0.0,0.0,0.0,0.0,0.0,0.0,0.0,0.0,0.0,0.0,0.0,0.0,0.0,0.0,0.0,0.0,0.0,0.0,0.0,0.0,0.0,0.0,0.0,0.0,0.0,0.0,0.0,0.0,0.0,0.0,0.0,0.0,0.0,0.0,0.0,0.0,0.0,0.0,0.0,0.0,0.0,0.0,0.0,0.0,0.0,0.0,0.0,0.0,0.0,0.0,0.0,0.0,0.0,0.0,0.0,0.0,0.0,0.0,0.0,0.0,0.0,0.0,0.0,0.0,0.0,0.0,0.0,0.0,0.0,0.0,0.0,0.0,0.0,0.0,0.0,0.0,0.0,0.0,0.0,0.0,0.0,0.0,0.0,0.0,0.0,-1.7137,-1.9221,-2.0806,-2.102,-2.1091,-2.1029,-2.0743,-2.0504,-1.9334,-1.7011,0.0,0.0,0.0,0.0,0.0,0.0,0.0,0.0,0.0,0.0,0.0,0.0,0.0,0.0,0.0,0.0,0.0,0.0,0.0,0.0,0.0,0.0,0.0,0.0,0.0,0.0,0.0,0.0,0.0,0.0,0.0,0.0,0.0,0.0,0.0,0.0,0.0,0.0,0.0,0.0,0.0,0.0,0.0,0.0,0.0,0.0,0.0,0.0,0.0,0.0,0.0,0.0,0.0,0.0,0.0,0.0,0.0,0.0,0.0,0.0,0.0,0.0,0.0,0.0,0.0,0.0,0.0,0.0,0.0,0.0,0.0,0.0,0.0,0.0,0.0,0.0,0.0,0.0,0.0,0.0,0.0,0.0,0.0,0.0,0.0,0.0,0.0,0.0,0.0,0.0,0.0,0.0,0.0,0.0,0.0,0.0,0.0,0.0,0.0,0.0,0.0,0.0,-1.8053,-1.9648,-2.0932,-2.143,-2.1041,-2.0769,-2.0718,-2.0188,-1.9183,-1.7564,0.0,0.0,0.0,0.0,0.0,0.0,0.0,0.0,0.0,0.0,0.0,0.0,0.0,0.0,0.0,0.0,0.0,0.0,0.0,0.0,0.0,0.0,0.0,0.0,0.0,0.0,0.0,0.0,0.0,0.0,0.0,0.0,0.0,0.0,0.0,0.0,0.0,0.0,0.0,0.0,0.0,0.0,0.0,0.0,0.0,0.0,0.0,0.0,0.0,0.0,0.0,0.0,0.0,0.0,0.0,0.0,0.0,0.0,0.0,0.0,-1.22,0.0,0.0,0.0,0.0,0.0,0.0,0.0,0.0,0.0,0.0,0.0,0.0,0.0,0.0,0.0,0.0,0.0,0.0,0.0,0.0,0.0,0.0,0.0,0.0,0.0,0.0,0.0,0.0,0.0,0.0,0.0,0.0,0.0,0.0,0.0,0.0,0.0,0.0,0.0,0.0,0.0,-1.8053,-1.9648,-2.0932,-2.143,-2.138,-2.1142,-2.0756,-2.0605,-1.9786,-1.8129,0.0,0.0,0.0,0.0,0.0,0.0,0.0,0.0,0.0,0.0,0.0,0.0,0.0,0.0,0.0,0.0,0.0,0.0,0.0,0.0,0.0,0.0,0.0,0.0,0.0,0.0,0.0,0.0,0.0,0.0,0.0,0.0,0.0,0.0,0.0,0.0,0.0,0.0,0.0,0.0,0.0,0.0,0.0,0.0,0.0,0.0,0.0,0.0,0.0,0.0,0.0,0.0,0.0,0.0,0.0,0.0,0.0,0.0,0.0,0.0,0.0,-1.3695,0.0,0.0,0.0,0.0,0.0,0.0,0.0,0.0,0.0,0.0,0.0,0.0,0.0,0.0,0.0,0.0,0.0,0.0,0.0,0.0,0.0,0.0,0.0,0.0,0.0,0.0,0.0,0.0,0.0,0.0,0.0,0.0,0.0,0.0,0.0,0.0,0.0,0.0,0.0,0.0,-1.9171,-2.0376,-2.138,-2.2184,-2.2362,-2.2137,-2.1536,-2.1574,-2.0912,-1.9095,-1.818,0.0,0.0,0.0,0.0,0.0,0.0,0.0,0.0,0.0,0.0,0.0,0.0,0.0,0.0,0.0,0.0,0.0,0.0,0.0,0.0,0.0,0.0,0.0,0.0,0.0,0.0,0.0,0.0,0.0,0.0,0.0,0.0,0.0,0.0,0.0,0.0,0.0,0.0,0.0,0.0,0.0,0.0,0.0,0.0,0.0,0.0,0.0,0.0,0.0,0.0,0.0,0.0,0.0,-1.5001,-1.5817,-1.6413,-1.7502,-1.7946,-1.7919,-1.6276,-1.5269,-1.4796,0.0,0.0,0.0,0.0,0.0,0.0,0.0,0.0,0.0,0.0,0.0,0.0,0.0,0.0,0.0,0.0,0.0,0.0,0.0,0.0,0.0,0.0,0.0,0.0,0.0,-2.0828,-2.0602,0.0,0.0,0.0,0.0,0.0,0.0,0.0,0.0,0.0,0.0,0.0,0.0,-2.0454,-2.123,-2.202,-2.3025,-2.327,-2.3119,-2.254,-2.2711,-2.2153,-2.0566,-1.993,-1.9354,0.0,0.0,0.0,0.0,0.0,0.0,0.0,0.0,0.0,0.0,0.0,0.0,0.0,0.0,0.0,0.0,0.0,0.0,0.0,0.0,0.0,0.0,0.0,0.0,0.0,0.0,0.0,0.0,0.0,0.0,0.0,0.0,-0.4563,-0.4866,0.0,0.0,0.0,0.0,0.0,0.0,0.0,0.0,0.0,0.0,0.0,0.0,0.0,0.0,-1.2741,-1.3381,-1.3888,-1.4339,-1.4743,-1.5443,-1.6454,-1.7465,-1.7926,-1.7908,-1.8452,0.0,-1.6931,-1.623,0.0,0.0,0.0,0.0,0.0,0.0,0.0,0.0,0.0,0.0,0.0,0.0,0.0,0.0,0.0,0.0,0.0,0.0,0.0,0.0,0.0,0.0,-2.3364,-2.3427,-2.3125,-2.2723,0.0,-2.0125,-1.8053,-1.7903,0.0,0.0,0.0,0.0,0.0,0.0,0.0,0.0,-2.0555,-2.1556,-2.2447,-2.3015,-2.3122,-2.3165,-2.3267,-2.3292,-2.3272,-2.3187,-2.2118,-2.1727,-2.2071,-2.0455,0.0,0.0,0.0,0.0,0.0,0.0,0.0,0.0,0.0,0.0,0.0,0.0,0.0,0.0,0.0,0.0,0.0,0.0,0.0,0.0,0.0,0.0,0.0,0.0,0.0,0.0,0.0,0.0,0.0,-0.3875,-0.4779,-0.6004,-0.6617,-0.7328,0.0,0.0,0.0,0.0,0.0,0.0,0.0,0.0,0.0,-1.1984,-1.2508,-1.2826,-1.3071,-1.4428,-1.523,-1.5491,-1.7114,-1.81,-1.8575,-1.9358,-1.9743,-1.9733,-1.9955,-1.9551,-1.874,-1.7871,-1.7256,-1.6807,0.0,0.0,0.0,0.0,-1.6685,-1.7245,-1.752,-1.7927,0.0,0.0,0.0,0.0,0.0,0.0,0.0,0.0,0.0,0.0,0.0,0.0,0.0,-2.4393,-2.4268,-2.4079,-2.4079,-2.2447,-2.0702,0.0,-1.9434,-1.892,-1.7677,0.0,0.0,0.0,0.0,0.0,-2.1405,-2.202,-2.2523,-2.3015,-2.3872,-2.4275,-2.391,-2.4706,-2.4925,-2.4177,-2.3371,-2.3026,-2.3227,-2.1758,-2.0764,0.0,0.0,0.0,0.0,0.0,0.0,0.0,0.0,0.0,0.0,0.0,0.0,0.0,0.0,0.0,0.0,0.0,0.0,0.0,0.0,0.0,0.0,0.0,0.0,0.0,0.0,0.0,0.0,-0.4016,-0.4923,-0.6731,-0.7121,-0.7758,0.0,0.0,0.0,0.0,0.0,0.0,-1.1396,-1.1724,-1.2151,-1.2739,-1.3046,-1.3347,-1.3654,-1.4985,-1.607,-1.6823,-1.8786,-2.0036,-2.0634,-2.1115,-2.1396,-2.1387,-2.1045,-2.0723,-2.0332,-1.9248,-1.8555,-1.8125,-1.7705,-1.7734,-1.7988,-1.7783,-1.8218,-1.8934,-1.8853,-1.9143,-1.9602,-1.8904,0.0,-1.8154,-1.777,0.0,0.0,0.0,0.0,-2.2297,-2.3059,-2.3858,-2.4556,-2.5109,-2.5134,-2.5021,-2.5021,-2.4255,-2.3113,0.0,-2.1393,-2.0966,-1.9321,0.0,0.0,0.0,0.0,-2.0903,-2.2146,-2.2435,-2.2732,-2.3327,-2.4439,-2.5063,-2.4908,-2.5893,-2.6126,-2.5105,-2.448,-2.4101,-2.3941,-2.2818,-2.2102,-2.1964,0.0,0.0,0.0,0.0,0.0,0.0,0.0,0.0,0.0,0.0,0.0,0.0,0.0,0.0,0.0,0.0,0.0,0.0,0.0,0.0,0.0,0.0,0.0,0.0,0.0,0.0,0.0,0.0,0.0,-0.6337,-0.7456,0.0,0.0,0.0,0.0,-1.1296,-1.159,-1.2096,-1.2701,-1.2953,-1.3394,-1.3975,-1.4275,-1.4576,-1.487,-1.4993,-1.6132,-1.8304,-1.8407,-1.963,-2.1792,-2.1865,-2.1846,-2.1846,-2.1826,-2.1807,-2.166,-1.9961,-1.8994,-1.8564,-1.8144,-1.7988,-1.8057,-1.8437,-1.8584,-1.8662,-1.9102,-1.9258,-1.9389,-1.9742,-2.0058,-2.0352,-2.0852,-2.1209,0.0,0.0,-2.3816,-2.413,-2.5156,-2.5511,-2.5661,-2.6239,-2.5963,-2.5548,-2.5548,-2.5121,-2.4393,0.0,-2.2184,-2.1455,-2.1343,0.0,-2.1355,-2.1355,-2.1832,-2.2221,-2.2297,-2.2774,-2.3386,-2.4176,-2.4292,-2.4894,-2.6283,-2.6481,-2.652,-2.647,-2.5881,-2.5239,-2.4566,-2.388,-2.3208,-2.2679,-2.1919,0.0,0.0,0.0,0.0,0.0,0.0,0.0,0.0,0.0,0.0,0.0,0.0,0.0,0.0,0.0,0.0,0.0,0.0,0.0,0.0,0.0,0.0,0.0,0.0,0.0,0.0,0.0,0.0,-0.755,-0.8933,0.0,0.0,-1.1523,-1.1957,-1.2251,-1.2559,-1.2986,-1.3581,-1.3895,-1.4235,-1.4636,-1.475,-1.5287,-1.6375,-1.7272,-1.8523,-2.0254,-2.1071,-2.1881,-2.2685,-2.2412,-2.2295,-2.2275,-2.2002,-2.1885,-2.1836,-2.1221,-2.0869,-2.0713,-2.0566,-2.0332,-2.0107,-2.0254,-2.0127,-1.9902,-2.0059,-2.0117,-2.0088,-1.9961,-2.0262,-2.0783,-2.1493,-2.2269,-2.3048,-2.3875,-2.4563,-2.5065,-2.5176,-2.5716,-2.6201,-2.6483,-2.637,-2.6151,-2.6151,-2.5711,-2.5197,-2.4795,-2.413,-2.3527,-2.3163,-2.2799,-2.2548,-2.2548,-2.241,-2.2435,-2.2799,-2.2952,-2.3424,-2.4234,-2.4738,-2.5398,-2.6404,-2.655,-2.6579,-2.6602,-2.557,-2.4821,-2.4597,-2.3969,-2.349,-2.3266,-2.2652,-2.144,0.0,0.0,0.0,0.0,0.0,0.0,0.0,0.0,0.0,0.0,0.0,0.0,0.0,0.0,0.0,0.0,0.0,0.0,0.0,0.0,0.0,0.0,0.0,0.0,0.0,0.0,-0.7304,-0.8467,-0.9929,-1.1199,-1.2091,-1.2612,-1.2986,-1.3186,-1.3574,-1.3968,-1.4362,-1.4656,-1.4903,-1.5104,-1.5652,-1.6421,-1.7333,-1.8595,-1.9975,-2.1293,-2.212,-2.2687,-2.3125,-2.2852,-2.2725,-2.2705,-2.2432,-2.2305,-2.2305,-2.2305,-2.2305,-2.2275,-2.1992,-2.1709,-2.1455,-2.1455,-2.1269,-2.1016,-2.1016,-2.1016,-2.0967,-2.0674,-2.0731,-2.1093,-2.1999,-2.2815,-2.3617,-2.4317,-2.5196,-2.5827,-2.5566,-2.6025,-2.6533,-2.6533,-2.6533,-2.6533,-2.6533,-2.6163,-2.5887,-2.5887,-2.531,-2.4707,-2.4343,-2.3954,-2.3703,-2.3703,-2.3389,-2.3226,-2.3401,-2.3427,-2.3641,-2.4261,-2.4951,-2.5673,-2.6457,-2.6547,-2.6497,-2.6273,-2.5241,-2.4477,-2.4283,-2.3849,-2.3595,-2.3595,-2.2996,-2.2248,-2.1365,0.0,0.0,0.0,0.0,0.0,0.0,0.0,0.0,0.0,0.0,0.0,0.0,0.0,0.0,0.0,0.0,0.0,0.0,0.0,0.0,0.0,0.0,0.0,-0.5125,-0.6407,-0.7794,-0.9015,-1.036,-1.1689,-1.2709,-1.3581,-1.4108,-1.4115,-1.4649,-1.4977,-1.4977,-1.5251,-1.5411,-1.5411,-1.6879,-1.7692,-1.7707,-1.8864,-2.0133,-2.1311,-2.1302,-2.1943,-2.3135,-2.3135,-2.3135,-2.3135,-2.3135,-2.3135,-2.3135,-2.3135,-2.3135,-2.3057,-2.2246,-2.1914,-2.1904,-2.1904,-2.1894,-2.1885,-2.1885,-2.1885,-2.1885,-2.1885,-2.1602,-2.1481,-2.2449,-2.3188,-2.379,-2.4826,-2.577,-2.6546,-2.6546,-2.6546,-2.6533,-2.6533,-2.6533,-2.6533,-2.6533,-2.6533,-2.6533,-2.6533,-2.5598,-2.487,-2.487,-2.4858,-2.4845,-2.4845,-2.4833,0.0,-2.4092,-2.4017,-2.4098,-2.4326,-2.4991,-2.5701,-2.6457,-2.6547,-2.6255,-2.5597,-2.494,-2.4283,-2.3611,-2.3625,-2.364,-2.3655,-2.3056,-2.2783,-2.2813,0.0,0.0,0.0,0.0,0.0,0.0,0.0,0.0,0.0,0.0,0.0,0.0,0.0,0.0,0.0,0.0,0.0,0.0,0.0,0.0,0.0,0.0,-0.5681,-0.6455,-0.7204,-0.8389,-1.0239,-1.1233,-1.2231,-1.3612,-1.4135,-1.4489,-1.471,-1.507,-1.5277,-1.5277,-1.5551,-1.5712,-1.5712,-1.6062,-1.6862,-1.794,-1.8983,-2.0269,-2.1661,-2.2279,-2.2775,-2.3135,-2.3135,-2.3135,-2.3135,-2.3135,-2.3135,-2.3135,-2.3135,-2.3135,-2.3115,-2.2881,-2.2607,-2.2344,-2.2344,-2.2148,-2.1885,-2.1885,-2.1885,-2.1885,-2.1885,-2.2259,-2.2915,-2.4013,-2.5009,-2.591,-2.6968,-2.7142,-2.7055,-2.7055,-2.6753,-2.6533,-2.6533,-2.6533,-2.6533,-2.6533,-2.6533,-2.6533,-2.6533,-2.6214,-2.6013,-2.6013,-2.5661,-2.5385,-2.5385,-2.5059,0.0,-2.4619,-2.4594,-2.4846,-2.5612,-2.589,-2.6106,-2.6486,-2.606,-2.5322,-2.424,-2.3942,-2.3511,-2.2884,-2.3802,-2.4567,-2.5046,-2.4418,-2.4328,0.0,0.0,0.0,0.0,0.0,0.0,0.0,0.0,0.0,0.0,0.0,0.0,0.0,0.0,0.0,0.0,0.0,0.0,0.0,0.0,0.0,0.0,-0.5576,-0.6172,-0.7312,-0.8138,-0.9116,-1.0545,-1.1843,-1.3035,-1.4143,-1.4536,-1.483,-1.5124,-1.5418,-1.5631,-1.5758,-1.5925,-1.6072,-1.6192,-1.667,-1.7601,-1.9127,-2.0152,-2.1463,-2.2926,-2.3419,-2.3672,-2.3672,-2.3486,-2.3408,0.0,-2.3213,-2.3135,-2.3135,-2.3135,-2.3135,0.0,0.0,0.0,0.0,0.0,-2.2617,-2.2412,-2.2412,-2.2412,-2.2412,-2.2412,-2.2675,-2.3074,-2.3717,-2.453,-2.5381,-2.6474,-2.6881,-2.7052,-2.726,-2.7042,-2.6753,-2.6584,-2.6533,-2.6533,-2.6533,-2.6533,-2.6533,-2.6533,0.0,0.0,-2.6533,-2.6189,-2.5963,-2.5963,-2.5699,-2.5423,-2.5172,-2.5146,-2.5243,-2.5572,-2.5915,-2.6013,-2.5938,-2.5572,0.0,0.0,0.0,-2.3272,-2.2972,-2.4534,0.0,0.0,0.0,0.0,0.0,0.0,0.0,0.0,-2.6557,-2.723,0.0,0.0,0.0,0.0,0.0,0.0,0.0,0.0,0.0,0.0,0.0,0.0,0.0,0.0,0.0,0.0,-0.5884,-0.6464,-0.774,-0.8983,-1.0002,-1.0476,-1.2312,-1.3748,-1.4509,-1.481,-1.5097,-1.5424,-1.5712,-1.5999,-1.6259,0.0,0.0,0.0,0.0,-1.8958,-2.0442,-2.157,-2.2914,-2.4195,-2.4351,-2.4414,-2.4404,-2.4033,-2.3857,-2.3838,-2.3447,-2.3252,-2.3213,-2.3213,-2.3184,-2.3135,-2.3135,-2.3135,-2.3135,-2.3135,-2.3135,-2.3135,-2.3135,0.0,0.0,-2.3135,-2.2891,-2.2578,-2.2748,-2.3185,-2.3881,-2.4993,-2.607,-2.6851,-2.7292,-2.7331,-2.7143,-2.6659,-2.6533,-2.6533,-2.6533,-2.6533,-2.6533,-2.6533,-2.6533,-2.6533,-2.6533,-2.6533,-2.6533,-2.6533,-2.6533,-2.6276,-2.5762,-2.5686,-2.5485,-2.5088,0.0,0.0,-2.5235,-2.5253,-2.5024,-2.4368,-2.3797,-2.355,-2.3694,-2.5502,-2.6159,-2.5438,-2.749,-2.8458,-2.8254,-2.9746,-3.0242,-2.9754,-2.8682,-2.9026,0.0,0.0,0.0,0.0,0.0,0.0,0.0,0.0,0.0,0.0,0.0,0.0,0.0,0.0,0.0,-0.6064,-0.6179,-0.6441,-0.7028,-0.891,-1.0589,-1.1515,-1.2128,-1.3163,-1.4728,-1.493,-1.5177,-1.5705,-1.6019,-1.6213,-1.6273,-1.65,0.0,-1.6707,-1.69,-1.7796,-1.9437,-2.0427,-2.1691,-2.3268,0.0,0.0,-2.4414,-2.4336,-2.4297,-2.4287,-2.4209,-2.3975,-2.3662,-2.3662,-2.3457,-2.3135,-2.3135,-2.3135,-2.3135,-2.3135,-2.3135,-2.3135,-2.3135,-2.3135,-2.3135,-2.3135,-2.3086,-2.3181,-2.4088,-2.5101,0.0,-2.7219,-2.798,-2.8338,-2.8011,-2.762,-2.7143,-2.6659,-2.6533,-2.6533,-2.6533,-2.6533,-2.6533,-2.6533,-2.6533,-2.6533,-2.6533,-2.6533,-2.6533,-2.6533,-2.6533,-2.6483,-2.637,-2.6302,-2.6333,-2.6298,-2.6476,-2.6304,-2.5801,-2.5765,-2.5279,-2.4166,-2.3978,-2.4354,-2.5447,-2.5846,-2.6212,-2.663,-2.7769,-2.8283,-2.8047,-2.9724,-3.0613,-3.0933,-3.1353,-3.148,0.0,0.0,0.0,0.0,0.0,0.0,0.0,0.0,0.0,0.0,0.0,-0.5298,-0.544,0.0,-0.6023,-0.6318,-0.643,-0.6586,-0.6885,-0.8437,-0.9981,-1.1106,-1.2427,-1.3687,-1.4903,-1.4963,-1.5204,-1.5785,-1.6106,-1.6339,-1.648,-1.6767,-1.6994,-1.7141,-1.7141,-1.8214,-2.0389,-2.0907,-2.2201,-2.4397,-2.4785,-2.5078,-2.5068,-2.4844,-2.4746,-2.4727,-2.4512,-2.4297,-2.4082,-2.3877,-2.3535,-2.3135,-2.3135,-2.3135,-2.3135,-2.3135,-2.3135,-2.3135,-2.3135,-2.3135,-2.3135,-2.3135,-2.3135,-2.3222,-2.38,-2.4382,-2.5147,-2.6789,-2.7507,-2.7843,-2.8338,-2.831,-2.7896,-2.7067,-2.6866,-2.6804,-2.6584,-2.6533,-2.6533,-2.6533,-2.6533,-2.6533,-2.6533,-2.6533,-2.6533,-2.6533,-2.6533,-2.6533,-2.6533,-2.6533,-2.6544,-2.6563,-2.6591,-2.6359,-2.5781,-2.5486,-2.5103,-2.4431,-2.4746,-2.5094,-2.5389,-2.6409,-2.6778,-2.634,-2.7864,-2.8624,-2.8484,-3.0081,-3.119,-3.185,-3.2987,-3.332,0.0,0.0,0.0,0.0,0.0,0.0,0.0,0.0,-0.5057,-0.5084,-0.5403,-0.5708,-0.5823,-0.6095,-0.6349,-0.6491,-0.6644,-0.6797,-0.6949,-0.7986,-0.9226,-1.0418,-1.2431,-1.4051,-1.4903,-1.4963,-1.5204,-1.5785,-1.6159,-1.646,-1.6693,-1.7041,-1.7341,-1.7575,-1.7582,-1.8805,-2.1245,-2.155,-2.2868,-2.5323,-2.5538,-2.5742,-2.5723,-2.5361,-2.5195,-2.5176,-2.4736,-2.4492,-2.4385,-2.3965,-2.3535,-2.3135,-2.3135,-2.3135,-2.3135,-2.3135,-2.3135,-2.3135,-2.3135,-2.3135,-2.3135,-2.3135,-2.3135,-2.3135,-2.3135,-2.3212,-2.38,-2.5641,-2.6472,-2.7094,-2.8264,-2.8762,-2.8674,-2.7682,-2.7356,-2.7155,-2.6716,-2.6596,-2.6533,-2.6533,-2.6533,-2.6533,-2.6533,-2.6533,-2.6533,-2.6533,-2.6533,-2.6533,-2.6533,-2.6533,-2.6533,-2.6533,-2.6533,-2.6264,-2.5799,-2.5385,-2.5146,-2.5146,-2.5653,-2.5781,-2.5134,-2.6786,-2.7088,-2.5829,-2.7733,-2.8739,-2.8668,-3.034,-3.1616,-3.2399,-3.3839,-3.4472,-0.0106,-0.0705,-0.1345,-0.1274,-0.2619,-0.3969,0.0,0.0,-0.5552,-0.5677,-0.585,-0.5986,-0.6,-0.6247,-0.6498,-0.6651,-0.6803,-0.6953,-0.7095,-0.8074,-0.9296,-1.0438,-1.1729,-1.3151,-1.4814,-1.4963,-1.5204,-1.5785,-1.6346,-1.6673,-1.6707,-1.7235,-1.7549,-1.7582,-1.7582,-1.8297,-1.9826,-2.1041,-2.2458,-2.389,-2.5128,-2.5742,-2.5742,-2.5684,-2.5664,-2.5635,-2.5185,-2.4775,-2.4385,-2.3965,-2.3535,-2.3135,-2.3135,-2.3135,-2.3135,-2.3135,-2.3135,-2.3135,-2.3135,-2.3135,-2.3135,-2.3135,-2.3135,-2.3135,-2.3135,-2.38,-2.4617,-2.4957,-2.6449,-2.7885,-2.7532,-2.8206,-2.8775,-2.816,-2.7645,-2.7268,-2.7205,-2.6804,-2.6533,-2.6533,-2.6533,-2.6533,-2.6533,-2.6533,-2.6533,-2.6533,-2.6533,-2.6533,-2.6533,-2.6533,-2.6533,-2.6533,-2.6533,-2.6496,-2.6433,-2.6314,-2.6276,-2.6276,-2.64,-2.64,-2.6345,-2.6531,-2.6557,-2.6433,-2.7324,-2.7732,-2.7519,-2.9961,-3.1418,-3.1912,-3.3701,-3.4472,-0.0647,-0.1426,0.0,0.0,-0.3612,-0.4837,-0.4445,-0.5129,-0.5864,-0.5922,-0.6057,-0.6166,-0.6166,-0.6407,-0.6627,0.0,-0.6898,-0.7071,-0.7132,-0.7577,-0.8536,-1.0351,-1.1042,-1.2279,-1.4724,-1.4963,-1.5204,-1.5785,-1.6373,-1.6707,-1.6707,-1.7261,-1.7582,-1.7582,-1.7582,-1.8199,-1.9627,-2.0128,-2.1143,-2.2567,-2.389,-2.451,-2.4609,-2.5323,-2.5742,-2.5723,-2.5537,-2.5205,-2.4756,-2.4326,-2.3906,-2.3496,-2.3242,-2.3135,-2.3135,-2.3135,-2.3135,-2.3135,-2.3135,-2.3135,-2.3135,-2.3135,-2.3135,-2.3135,-2.3135,-2.3474,-2.3963,-2.4617,-2.5953,-2.7233,-2.7664,-2.8594,-2.9289,-2.8712,-2.816,-2.767,-2.7356,-2.6854,-2.6533,-2.6533,-2.6533,-2.6533,-2.6533,-2.6533,-2.6533,-2.6533,-2.6533,-2.6533,-2.6533,-2.6533,-2.6533,-2.6533,-2.6533,-2.6533,-2.6533,-2.6533,-2.6533,-2.6533,-2.6533,-2.6533,-2.6533,-2.6533,-2.6533,-2.6533,-2.7169,-2.7631,-2.7976,-2.9861,-3.1362,-3.2571,-3.368,-3.4493,-0.1054,0.0,0.0,-0.3203,-0.449,-0.5593,-0.5035,-0.5532,-0.6095,-0.6095,-0.6183,-0.6338,-0.6338,-0.6468,-0.6651,-0.6695,-0.6915,-0.7095,-0.7136,-0.7139,-0.8009,-1.0351,-1.0611,-1.1756,-1.4718,-1.4963,-1.5204,-1.5785,-1.6373,-1.6707,-1.6707,-1.7261,-1.7582,-1.7582,-1.7582,-1.8094,-1.9013,-1.942,-2.0135,-2.1143,-2.2876,-2.3692,-2.3791,-2.5128,-2.5742,-2.5742,-2.5742,-2.5478,-2.5029,-2.459,-2.417,-2.375,-2.331,-2.3135,-2.3135,-2.3135,-2.3135,-2.3135,-2.3135,-2.3135,-2.3135,-2.3135,-2.3135,-2.3135,-2.3135,-2.3135,-2.3299,-2.4125,-2.5389,-2.6637,-2.7441,-2.87,-2.9691,-2.9264,-2.8624,-2.7996,-2.7595,-2.6954,-2.6533,-2.6533,-2.6533,-2.6533,-2.6533,-2.6533,-2.6533,-2.6533,-2.6533,-2.6533,-2.6533,-2.6533,-2.6533,-2.6533,-2.6533,-2.6533,-2.6533,-2.6533,-2.6533,-2.6533,-2.6533,-2.6533,-2.6533,-2.6533,-2.6533,-2.6533,-2.7005,-2.7672,-2.8404,-2.9718,-3.1273,-3.2976,-3.369,-3.4543,0.0,0.0,-0.3111,-0.3979,-0.5053,-0.6017,-0.5946,-0.6142,-0.6254,-0.6254,-0.6335,-0.6338,-0.6338,-0.638,-0.6529,-0.6675,-0.6831,-0.6983,-0.7122,-0.7139,-0.8009,-1.0351,-1.0611,-1.1756,0.0,-1.4963,-1.5204,-1.5785,-1.6373,-1.6707,-1.6707,-1.7261,-1.7582,-1.7582,-1.7582,-1.7582,-1.7687,-1.8909,-1.9627,-1.9731,-2.2366,-2.3692,-2.3791,-2.5128,-2.5742,-2.5742,-2.5742,-2.5478,-2.5029,-2.459,-2.417,-2.375,-2.331,-2.3135,-2.3135,-2.3135,-2.3135,-2.3135,-2.3135,-2.3135,-2.3135,-2.3135,-2.3135,-2.3135,-2.3135,-2.3135,-2.3135,-2.3135,-2.4808,-2.6472,-2.6565,-2.8131,-2.9792,-2.9767,-2.8913,-2.8097,-2.8084,-2.7231,-2.6533,-2.6533,-2.6533,-2.6533,-2.6533,-2.6533,-2.6533,-2.6533,-2.6533,-2.6533,-2.6533,-2.6533,-2.6533,-2.6533,-2.6533,-2.6533,-2.6533,-2.6533,-2.6533,-2.6533,-2.6533,-2.6533,-2.6533,-2.6533,-2.6533,-2.6533,-2.7005,-2.7544,-2.8157,-2.9639,-3.1191,-3.265,-3.3587,-3.4543,0.0,0.0,-0.3158,-0.4158,-0.5176,-0.6057,-0.6159,-0.6142,-0.6108,-0.6108,-0.6027,-0.5956,-0.5956,-0.6162,-0.638,-0.6525,-0.6763,-0.6976,-0.7122,-0.7227,-0.8139,-1.0366,-1.0873,0.0,0.0,0.0,0.0,-1.5772,-1.6199,-1.6506,-1.6693,-1.7261,-1.7582,-1.7582,-1.7582,-1.7582,-1.7582,-1.8094,-1.8304,-1.8297,-2.1041,-2.2868,-2.3791,-2.5128,-2.5742,-2.5742,-2.5742,-2.5654,-2.5478,-2.5029,-2.46,-2.417,-2.374,-2.3389,-2.3135,-2.3135,-2.3135,-2.3135,-2.3135,-2.3135,-2.3135,-2.3135,-2.3135,-2.3135,-2.3135,-2.3135,-2.3135,-2.3135,-2.4723,-2.6483,-2.6483,-2.8131,-2.9792,-2.9792,-2.8925,-2.8109,-2.8109,-2.7243,-2.6533,-2.6533,-2.6533,-2.6533,-2.6533,-2.6533,-2.6533,-2.6533,-2.6533,-2.6533,-2.6533,-2.6533,-2.6533,-2.6533,-2.6533,-2.6533,-2.6533,-2.6533,-2.6533,-2.6533,-2.6533,-2.6533,-2.6533,-2.6816,-2.7005,-2.7005,-2.7908,-2.8461,-2.8649,-3.0199,-3.1495,-3.2593,-3.3533,-3.4543,0.0,-0.2151,-0.3187,-0.4239,-0.5306,-0.6125,-0.6169,-0.6101,-0.6013,-0.5959,-0.5871,-0.58,-0.58,-0.5962,-0.6179,-0.643,-0.6681,-0.6936,-0.7187,-0.7356,-0.8318,-1.0603,-1.1106,-1.2323,0.0,0.0,0.0,-1.5772,-1.6199,-1.6506,-1.6693,-1.7261,-1.7582,-1.7582,-1.7582,-1.7582,-1.7582,-1.7582,-1.7891,-1.8297,-2.0641,-2.2357,-2.3791,-2.5128,-2.5742,-2.5742,-2.5742,-2.5742,-2.5703,-2.5254,-2.4814,-2.4375,-2.3955,-2.3525,-2.3135,-2.3135,-2.3135,-2.3135,-2.3135,-2.3135,-2.3135,-2.3135,-2.3135,-2.3135,-2.3135,-2.3135,-2.3135,-2.3135,-2.4478,-2.5975,-2.6389,-2.7879,-2.9287,-2.9702,-2.9076,-2.8348,-2.8147,-2.7394,-2.6703,-2.6571,-2.6533,-2.6533,-2.6533,-2.6533,-2.6533,-2.6533,-2.6533,-2.6533,-2.6533,-2.6533,-2.6533,-2.6533,-2.6533,-2.6533,-2.6533,-2.6533,-2.6533,-2.6533,-2.6533,-2.6622,-2.6753,-2.7092,-2.7369,-2.757,-2.8461,-2.8925,-2.8925,-3.0472,-3.1669,-3.2593,-3.3533,-3.4543,-0.1019,-0.2141,-0.3244,-0.4223,-0.5302,-0.6063,-0.5989,-0.5949,-0.5902,-0.5748,-0.5783,-0.5779,0.0,0.0,-0.5945,-0.639,-0.6603,-0.6868,-0.7309,-0.7509,-0.8531,0.0,0.0,0.0,0.0,0.0,0.0,-1.5832,0.0,-1.6693,-1.6727,-1.7275,-1.7582,-1.7582,-1.7582,-1.7582,-1.7582,-1.7582,-1.8199,-1.9524,-2.0939,-2.2257,-2.3692,-2.502,-2.5635,-2.5742,-2.5742,-2.5742,-2.5703,-2.5254,-2.4814,-2.4375,-2.3955,-2.3525,-2.3135,-2.3135,-2.3135,-2.3135,-2.3135,-2.3135,-2.3135,-2.3135,-2.3135,-2.3135,-2.3135,-2.3135,-2.3135,-2.3135,-2.4049,-2.5126,-2.6307,-2.736,-2.8438,-2.9534,-2.9352,-2.8787,-2.826,-2.7695,-2.713,-2.6672,-2.6546,-2.6533,-2.6533,-2.6533,-2.6533,-2.6533,-2.6533,-2.6533,-2.6533,-2.6533,-2.6533,-2.6533,-2.6533,-2.6533,-2.6533,-2.6533,-2.6533,-2.6533,-2.6559,-2.6741,-2.7256,-2.7344,-2.7607,-2.8134,-2.8687,-2.8976,-2.8976,-3.0485,-3.1669,-3.2593,-3.3533,-3.4543,-0.029,-0.1117,-0.2198,-0.3235,-0.3653,-0.4112,-0.4847,-0.4828,-0.4656,-0.4607,-0.5064,-0.5474,-0.5474,0.0,0.0,-0.6257,-0.6627,0.0,-0.7322,-0.7594,0.0,0.0,0.0,-1.3055,-1.5442,-1.6046,0.0,0.0,-1.642,-1.6573,-1.7014,-1.7382,-1.7582,-1.7582,-1.7582,-1.7582,-1.7582,-1.7582,-1.7786,-1.8094,-1.9524,-2.0837,-2.2257,-2.3592,-2.4716,-2.5742,-2.5742,-2.5742,-2.5703,-2.5254,-2.4814,-2.4375,-2.3955,-2.3525,-2.3135,-2.3135,-2.3135,-2.3135,-2.3135,-2.3135,-2.3135,-2.3135,-2.3135,-2.3135,-2.3135,-2.3135,-2.3309,-2.4125,-2.521,-2.6307,-2.7441,-2.853,-2.9443,-2.9702,-2.9352,-2.8888,-2.875,-2.7959,-2.7243,-2.7105,-2.6741,-2.6533,-2.6533,-2.6533,-2.6533,-2.6533,-2.6533,-2.6533,-2.6533,-2.6533,-2.6533,-2.6533,-2.6533,-2.6533,-2.6533,-2.6533,-2.6533,-2.6533,-2.6854,-2.713,-2.7268,-2.8072,-2.8574,-2.8712,-2.9277,-2.9578,-2.9566,-3.0693,-3.1669,-3.2593,-3.3533,-3.4543,0.0,-0.0762,-0.1771,-0.2339,-0.2792,-0.3364,-0.4249,-0.4362,-0.4307,-0.4546,-0.5036,0.0,-0.5192,0.0,0.0,0.0,0.0,0.0,-0.7312,-0.7624,-0.8756,0.0,-1.2088,0.0,-1.5744,-1.6433,-1.676,0.0,-1.6747,-1.68,-1.7134,-1.7422,-1.7582,-1.7582,-1.7582,-1.7582,-1.7582,-1.7582,-1.7582,-1.7582,-1.9627,-2.0641,-2.0837,-2.3384,-2.4707,-2.4815,0.0,-2.5742,-2.5703,-2.5254,-2.4814,-2.4375,-2.3955,-2.3525,-2.3135,-2.3135,-2.3135,-2.3135,-2.3135,-2.3135,-2.3135,-2.3135,-2.3135,-2.3135,-2.3135,-2.3135,-2.3299,-2.4457,-2.5294,-2.613,-2.7683,-2.8597,-2.9197,-2.9702,-2.9541,-2.9239,-2.8988,-2.8247,-2.7494,-2.7017,-2.6866,-2.6753,-2.6571,-2.6533,-2.6533,-2.6533,-2.6533,-2.6533,-2.6533,-2.6533,-2.6533,-2.6533,-2.6533,-2.6533,-2.6533,-2.6533,-2.6634,-2.6804,-2.7105,-2.7494,-2.7984,-2.8599,-2.9051,-2.9302,-2.9628,-2.9792,-2.9792,-3.0758,-3.1669,-3.2593,-3.3533,-3.4543,0.0,-0.0695,-0.1411,-0.1568,-0.2153,-0.2925,-0.3798,-0.3973,-0.4172,-0.4797,0.0,-0.523,-0.4992,-0.5172,-0.5464,-0.5779,0.0,-0.6705,-0.7292,-0.7809,-0.9018,-1.1628,-1.2366,-1.3723,-1.613,-1.6627,-1.6927,-1.7188,-1.7208,-1.7208,-1.7208,-1.7442,-1.7582,-1.7582,-1.7582,-1.7582,-1.7582,-1.7786,-1.7891,-1.7891,-2.0428,-2.1143,-2.0238,-2.38,-2.4913,-2.3998,0.0,0.0,-2.5615,-2.5166,-2.4727,-2.4287,-2.3867,-2.3467,-2.3135,-2.3135,-2.3135,-2.3135,-2.3135,-2.3135,-2.3135,-2.3135,-2.3135,-2.3135,-2.3135,-2.3135,-2.3387,-2.4628,-2.5041,-2.5535,-2.7763,-2.8347,-2.8597,-2.9534,-2.9792,-2.9654,-2.9151,-2.8612,-2.7896,-2.6779,-2.6954,-2.7105,-2.6553,-2.6533,-2.6533,-2.6533,-2.6533,-2.6533,-2.6533,-2.6533,-2.6533,-2.6533,-2.6533,-2.6533,-2.6533,-2.6533,-2.6703,-2.7256,-2.7356,-2.7858,-2.8888,-2.9001,-2.9289,-2.9779,-2.9792,-2.9792,-2.9792,-3.0758,-3.1669,-3.2593,-3.3533,-3.4543,0.0,-0.0157,-0.0471,-0.1411,-0.1078,-0.0976,-0.2702,-0.294,0.0,0.0,0.0,-0.5016,-0.5081,-0.524,0.0,-0.5922,0.0,0.0,0.0,0.0,-1.0071,0.0,0.0,0.0,0.0,0.0,0.0,0.0,0.0,-1.7508,-1.7508,-1.7555,-1.7582,-1.7582,-1.7582,-1.7582,-1.7582,-1.8708,-1.922,-1.922,-2.0939,-2.2156,-2.2976,-2.3692,-2.451,-2.5333,-2.5635,0.0,-2.5146,-2.4707,-2.4287,-2.3857,-2.3418,-2.3203,-2.3135,-2.3135,-2.3135,-2.3135,-2.3135,-2.3135,-2.3135,-2.3135,-2.3135,-2.3135,-2.3135,-2.3135,-2.356,-2.5641,-2.6224,-2.6719,-2.8949,-2.9534,-2.9534,-2.9792,-2.9792,-2.9767,-2.9666,-2.9189,-2.8461,-2.7356,-2.7218,-2.7105,-2.6553,-2.6533,-2.6533,-2.6533,-2.6533,-2.6533,-2.6533,-2.6533,-2.6533,-2.6533,-2.6533,-2.6533,-2.6533,-2.6533,-2.6703,-2.7256,-2.7708,-2.8247,-2.89,-2.939,-2.9691,-2.9792,-2.9792,-2.9792,-2.9792,-3.0758,-3.1669,-3.2593,-3.3533,-3.4543,0.0,0.0,-0.0157,-0.0628,-0.0382,-0.0517,-0.2404,0.0,0.0,0.0,0.0,-0.4914,-0.4904,0.0,0.0,0.0,0.0,0.0,0.0,0.0,0.0,0.0,0.0,0.0,0.0,0.0,0.0,0.0,0.0,-1.7582,-1.7582,-1.7582,-1.7582,-1.7582,-1.7582,-1.7582,-1.7582,-1.8916,-1.9627,-1.9627,-2.1752,-2.2667,-2.2667,-2.4097,-2.4716,-2.4716,-2.543,0.0,-2.5029,-2.459,-2.417,-2.375,-2.331,-2.3135,-2.3135,-2.3135,-2.3135,-2.3135,-2.3135,-2.3135,-2.3135,-2.3135,-2.3135,-2.3135,-2.3135,-2.3135,-2.356,-2.5891,-2.6483,-2.6976,-2.9209,-2.9792,-2.9792,-2.9792,-2.9792,-2.9704,-2.9402,-2.9365,-2.9051,-2.7921,-2.7708,-2.7544,-2.6979,-2.6653,-2.6533,-2.6533,-2.6533,-2.6533,-2.6533,-2.6533,-2.6533,-2.6533,-2.6533,-2.6533,-2.6533,-2.6533,-2.6816,-2.7657,-2.7959,-2.8486,-2.934,-2.9641,-2.9792,-2.9792,-2.9792,-2.9792,-2.9792,-3.0279,-3.1193,-3.2593,-3.3031,-3.4041,0.0,0.0,0.0,0.0,0.0,-0.0509,-0.2307,-0.2572,0.0,0.0,-0.4945,-0.4806,-0.4752,0.0,0.0,0.0,0.0,0.0,0.0,0.0,0.0,0.0,0.0,0.0,0.0,0.0,0.0,0.0,0.0,0.0,-1.7582,-1.7582,-1.7582,-1.7582,-1.7582,-1.7582,-1.7582,-1.8916,-1.9627,-1.9627,-2.2366,-2.3176,-2.2257,-2.4609,-2.5128,-2.4196,-2.512,0.0,0.0,-2.4463,-2.4033,-2.3613,-2.3271,-2.3135,-2.3135,-2.3135,-2.3135,-2.3135,-2.3135,-2.3135,-2.3135,-2.3135,-2.3135,-2.3135,-2.3135,-2.3135,-2.3551,-2.5557,-2.6307,-2.6976,-2.8949,-2.9624,-2.9792,-2.9792,-2.9792,-2.9666,-2.9214,-2.9478,-2.9503,-2.8486,-2.8185,-2.7934,-2.7381,-2.6829,-2.6533,-2.6533,-2.6533,-2.6533,-2.6533,-2.6533,-2.6533,-2.6533,-2.6533,-2.6533,-2.6533,-2.6533,-2.6929,-2.8034,-2.8109,-2.8612,-2.9741,-2.9792,-2.9792,-2.9792,-2.9792,-2.9792,-2.9792,-3.0216,-3.1132,-3.2593,-3.3031,-3.4056,0.0,0.0,0.0,0.0,0.0,-0.0506,-0.2253,0.0,0.0,-0.4565,-0.4707,-0.4585,-0.485,-0.4921,0.0,0.0,0.0,0.0,0.0,0.0,0.0,0.0,0.0,0.0,0.0,0.0,0.0,0.0,0.0,0.0,-1.7582,-1.7582,-1.7582,-1.7582,-1.7582,-1.7582,-1.7582,-1.8916,-1.9627,-1.9627,-2.2366,-2.3692,-2.3583,-2.502,-2.5635,-2.5509,-2.5303,0.0,0.0,-2.4023,-2.3594,-2.3193,-2.3154,-2.3135,-2.3135,-2.3135,-2.3135,-2.3135,-2.3135,-2.3135,-2.3135,-2.3135,-2.3135,-2.3135,-2.3135,-2.3135,-2.3387,-2.4628,-2.5714,-2.6801,-2.7936,-2.9028,-2.9792,-2.9792,-2.9792,-2.9779,-2.9729,-2.9754,-2.9603,-2.8976,-2.8448,-2.7934,-2.7381,-2.6829,-2.6533,-2.6533,-2.6533,-2.6533,-2.6533,-2.6533,-2.6533,-2.6533,-2.6533,-2.6533,-2.6533,-2.6533,-2.6929,-2.8034,-2.8109,-2.8612,-2.9741,-2.9792,-2.9792,-2.9792,-2.9792,-2.9792,-2.9792,-3.1476,-3.2464,-3.2664,-3.4409,-3.5359,0.0,0.0,0.0,0.0,0.0,-0.0506,-0.2317,0.0,-0.2791,-0.4759,-0.4874,-0.4691,-0.4992,-0.5047,-0.5104,0.0,-0.5491,-0.5997,0.0,0.0,0.0,0.0,0.0,0.0,0.0,0.0,0.0,0.0,0.0,0.0,-1.7328,-1.7488,-1.7502,-1.7328,-1.7495,-1.7502,-1.7321,-1.8822,-1.9627,-1.9627,-2.2366,-2.3565,-2.3331,-2.4727,-2.5195,-2.4932,-2.4756,0.0,0.0,-2.3857,-2.3535,-2.3135,-2.3135,-2.3135,-2.3135,-2.3135,-2.3135,-2.3135,-2.3135,-2.3135,-2.3135,-2.3135,-2.3135,-2.3135,-2.3135,-2.3135,-2.3474,-2.5305,-2.6141,-2.6894,-2.87,-2.9456,-2.9792,-2.9792,-2.9792,-2.9792,-2.9792,-2.9792,-2.9616,-2.9038,-2.8486,-2.7934,-2.7381,-2.6829,-2.6533,-2.6533,-2.6533,-2.6533,-2.6533,-2.6533,-2.6533,-2.6533,-2.6533,-2.6533,-2.6533,-2.6533,-2.6791,-2.7557,-2.7921,-2.8461,-2.9239,-2.9616,-2.9792,-2.9792,-2.9792,-3.0075,-3.062,-3.1389,-3.2321,-3.3449,-3.4259,-3.4905,0.0,0.0,0.0,0.0,0.0,-0.0501,0.0,0.0,-0.2835,-0.4919,-0.5009,-0.4836,-0.5084,-0.5131,-0.5145,0.0,-0.5328,-0.5772,-0.6776,0.0,0.0,0.0,0.0,0.0,0.0,0.0,0.0,0.0,0.0,0.0,0.0,-1.7208,-1.7228,-1.7021,-1.7215,-1.7228,-1.7021,-1.832,-1.8875,-1.8875,-2.1595,-2.276,-2.2487,-2.4146,-2.4707,-2.4414,0.0,0.0,0.0,-2.3652,-2.3418,-2.3135,-2.3135,-2.3135,-2.3135,-2.3135,-2.3135,-2.3135,-2.3135,-2.3135,-2.3135,-2.3135,-2.3135,-2.3135,-2.3135,-2.3299,-2.3973,-2.5557,-2.6472,-2.7371,-2.93,-2.9792,-2.9792,-2.9792,-2.9666,-2.9578,-2.9754,-2.9528,-2.9227,-2.8976,-2.8348,-2.7733,-2.7356,-2.6829,-2.6533,-2.6533,-2.6533,-2.6533,-2.6533,-2.6533,-2.6533,-2.6533,-2.6533,-2.6533,-2.6533,-2.6533,-2.6766,-2.7482,-2.7896,-2.8436,-2.9151,-2.9578,-2.9792,-2.9792,-2.9792,-3.0279,-3.118,-3.1462,-3.2464,-3.4027,-3.4327,-3.4942,0.0,0.0,0.0,0.0,0.0,-0.0488,0.0,-0.2623,-0.3017,-0.4747,-0.5016,-0.4962,-0.5104,-0.5131,-0.5179,-0.5335,-0.5488,-0.5691,-0.5986,0.0,0.0,0.0,0.0,0.0,0.0,0.0,0.0,0.0,0.0,0.0,0.0,-1.6714,-1.6714,-1.6707,-1.6714,-1.6714,-1.6707,-1.7001,-1.7257,-1.7257,-1.983,-2.1007,-2.109,-2.3354,-2.4424,0.0,0.0,0.0,0.0,-2.332,-2.3144,-2.3135,-2.3135,-2.3135,-2.3135,-2.3135,-2.3135,-2.3135,-2.3135,-2.3135,-2.3135,-2.3135,-2.3135,-2.3135,-2.3135,-2.3877,-2.4787,-2.4787,-2.6356,-2.8347,-2.9534,-2.9792,-2.9792,-2.9792,-2.9352,-2.9089,-2.9666,-2.8913,-2.8285,-2.8825,-2.8047,-2.7293,-2.7281,-2.6829,-2.6533,-2.6533,-2.6533,-2.6533,-2.6533,-2.6533,-2.6533,-2.6533,-2.6533,-2.6533,-2.6533,-2.6533,-2.6929,-2.8034,-2.8109,-2.8612,-2.9729,-2.9792,-2.9792,-2.9792,-2.9792,-3.0279,-3.118,-3.2105,-3.3101,-3.4027,-3.4986,-3.5848,0.0,0.0,0.0,0.0,0.0,-0.0474,-0.2291,-0.2586,-0.3037,-0.4938,-0.5169,-0.5111,-0.526,-0.5287,-0.5369,-0.5623,0.0,0.0,0.0,0.0,0.0,0.0,0.0,0.0,0.0,0.0,0.0,0.0,0.0,0.0,0.0,-1.6413,-1.6413,-1.6413,-1.66,-1.6997,-1.7656,-1.7966,-1.8515,-1.9382,-2.113,-2.1778,-2.162,-2.3202,0.0,0.0,0.0,0.0,0.0,-2.3193,-2.3135,-2.3135,-2.3135,-2.3135,-2.3135,-2.3135,-2.3135,-2.3135,-2.3135,-2.3135,-2.3135,-2.3135,-2.3135,-2.3222,-2.4049,-2.3963,-2.3963,-2.5546,-2.7545,-2.9353,-2.9702,-2.9503,-2.9202,-2.9202,-2.8775,-2.8411,-2.8599,-2.836,-2.8047,-2.7846,-2.7519,-2.7155,-2.6791,-2.6647,-2.6533,-2.6533,-2.6533,-2.6533,-2.6533,-2.6533,-2.6533,-2.6533,-2.6533,-2.6533,-2.6533,-2.6533,-2.6766,-2.7494,-2.7896,-2.8436,-2.9164,-2.9578,-2.9792,-2.9792,-2.9792,-3.057,-3.2177,-3.2464,-3.3463,-3.5052,-3.5359,-3.5609,0.0,0.0,0.0,0.0,0.0,-0.0461,-0.2319,-0.2654,-0.3083,-0.5005,-0.5284,-0.5247,-0.5411,-0.5428,-0.5554,-0.608,0.0,0.0,0.0,0.0,0.0,0.0,0.0,0.0,0.0,0.0,0.0,0.0,0.0,0.0,0.0,-1.6106,-1.6106,-1.6106,-1.6279,-1.6863,-1.7896,-1.8215,-1.8939,-2.0268,-2.1526,-2.2075,-2.1832,-2.2976,0.0,0.0,0.0,0.0,0.0,-2.3135,-2.3135,-2.3135,-2.3135,-2.3135,-2.3135,-2.3135,-2.3135,-2.3135,-2.3135,-2.3135,-2.3135,-2.3135,-2.3135,-2.3299,-2.4457,-2.4872,-2.5378,-2.7209,-2.8712,-2.9792,-2.9792,-2.9365,-2.8925,-2.8925,-2.8348,-2.7846,-2.8059,-2.777,-2.7444,-2.7306,-2.7118,-2.6866,-2.6584,-2.6533,-2.6533,-2.6533,-2.6533,-2.6533,-2.6533,-2.6533,-2.6533,-2.6533,-2.6533,-2.6533,-2.6533,-2.6533,-2.6848,-2.7544,-2.7921,-2.8448,-2.9227,-2.9603,-3.0011,-3.0355,-3.0355,-3.1267,-3.3101,-3.3533,-3.4341,-3.5504,-3.5504,-3.5504,0.0,0.0,0.0,0.0,0.0,-0.0448,-0.2296,-0.2673,0.0,-0.5005,-0.5411,-0.5418,-0.5439,-0.5435,-0.5697,-0.6577,0.0,0.0,0.0,0.0,0.0,0.0,0.0,0.0,0.0,0.0,0.0,0.0,0.0,0.0,0.0,-1.5832,-1.5832,-1.5832,-1.5832,-1.6386,-1.7692,-1.7983,-1.8783,-1.9984,-2.1318,-2.1888,-2.1879,-2.2691,0.0,0.0,0.0,0.0,0.0,-2.3135,-2.3135,-2.3135,-2.3135,-2.3135,-2.3135,-2.3135,-2.3135,-2.3135,-2.3135,-2.3135,-2.3135,-2.3135,-2.3135,-2.3474,-2.4542,-2.6356,-2.8176,-2.9365,-2.9714,-2.9792,-2.9792,-2.934,-2.8875,-2.8875,-2.8021,-2.7369,-2.7871,-2.718,-2.6684,-2.713,-2.6816,-2.6533,-2.6533,-2.6533,-2.6533,-2.6533,-2.6533,-2.6533,-2.6533,-2.6533,-2.6533,-2.6533,-2.6533,-2.6546,-2.6584,-2.6584,-2.6967,-2.8034,-2.8147,-2.8649,-2.9741,-2.9792,-3.0216,-3.1106,-3.1254,-3.2177,-3.4027,-3.4986,-3.5504,-3.5504,-3.5504,-3.5504,0.0,0.0,0.0,0.0,0.0,-0.0421,0.0,-0.2518,-0.303,0.0,0.0,-0.5257,-0.5494,-0.544,-0.5805,0.0,0.0,0.0,0.0,0.0,0.0,0.0,0.0,0.0,0.0,0.0,0.0,0.0,0.0,0.0,0.0,-1.5832,-1.5832,-1.5832,-1.5832,-1.6386,-1.7692,-1.8674,-1.9795,-2.0978,-2.219,-2.283,-2.283,-2.3008,0.0,0.0,0.0,0.0,-2.3135,-2.3135,-2.3135,-2.3135,-2.3135,-2.3135,-2.3135,-2.3135,-2.3135,-2.3135,-2.3135,-2.3135,-2.3135,-2.3135,-2.3714,-2.4628,-2.5724,-2.6472,-2.7128,-2.8187,-2.9118,-2.9792,-2.9792,-2.9051,-2.8298,-2.8298,-2.7457,-2.6691,-2.6816,-2.671,-2.6571,-2.6697,-2.6622,-2.6533,-2.6533,-2.6533,-2.6533,-2.6533,-2.6533,-2.6533,-2.6533,-2.6533,-2.6533,-2.6533,-2.6533,-2.6697,-2.7055,-2.708,-2.7381,-2.8059,-2.8499,-2.9051,-2.9767,-2.9792,-2.9934,-3.0139,-3.1549,-3.282,-3.4027,-3.4986,-3.5504,-3.5504,-3.5504,-3.5504,0.0,0.0,0.0,0.0,-0.0235,-0.0841,-0.2217,0.0,0.0,0.0,0.0,0.0,-0.5348,0.0,0.0,0.0,0.0,0.0,0.0,0.0,0.0,0.0,0.0,0.0,0.0,0.0,0.0,0.0,0.0,0.0,0.0,-1.5832,-1.5832,-1.5832,-1.5832,-1.6386,-1.7692,-1.8326,-1.9579,-2.1293,-2.1943,-2.258,-2.3135,-2.3135,-2.3135,0.0,0.0,0.0,-2.3135,-2.3135,-2.3135,-2.3135,-2.3135,-2.3135,-2.3135,-2.3135,-2.3135,-2.3135,-2.3135,-2.3135,-2.3135,-2.3135,-2.3887,-2.5041,-2.6141,-2.6883,-2.7452,-2.8609,-2.9287,-2.9729,-2.9465,-2.875,-2.8047,-2.7783,-2.708,-2.6533,-2.6533,-2.6533,-2.6533,-2.6533,-2.6533,-2.6533,-2.6533,-2.6533,-2.6533,-2.6533,-2.6533,-2.6533,-2.6533,-2.6533,-2.6533,-2.6533,-2.6533,-2.6747,-2.7231,-2.7519,-2.7896,-2.8448,-2.8762,-2.9189,-2.9767,-3.0216,-3.0846,-3.1696,-3.3199,-3.4192,-3.4691,-3.5213,-3.5504,-3.5504,-3.5504,-3.5504,0.0,0.0,0.0,0.0,-0.0482,-0.1231,-0.2274,0.0,0.0,0.0,0.0,0.0,0.0,0.0,0.0,0.0,0.0,0.0,0.0,0.0,0.0,0.0,0.0,0.0,0.0,0.0,0.0,0.0,0.0,0.0,0.0,-1.5698,-1.5718,-1.5758,-1.5947,-1.6525,-1.7684,-1.7692,-1.8864,-2.1025,-2.1203,-2.1933,-2.3135,-2.3135,-2.3135,0.0,0.0,0.0,-2.3135,-2.3135,-2.3135,-2.3135,-2.3135,-2.3135,-2.3135,-2.3135,-2.3135,-2.3135,-2.3135,-2.3135,-2.3135,-2.3135,-2.3887,-2.5041,-2.6141,-2.7151,-2.8215,-2.9319,-2.9666,-2.9553,-2.9051,-2.8461,-2.7858,-2.7394,-2.6866,-2.6533,-2.6533,-2.6533,-2.6533,-2.6533,-2.6533,-2.6533,-2.6533,-2.6533,-2.6533,-2.6533,-2.6533,-2.6533,-2.6533,-2.6533,-2.6533,-2.6533,-2.6596,-2.6804,-2.7369,-2.7908,-2.8473,-2.9026,-2.9063,-2.9353,-2.9985,-3.0908,-3.2249,-3.3959,-3.4839,-3.5359,-3.5504,-3.5504,-3.5504,-3.5504,-3.5504,-3.5504,0.0,0.0,0.0,0.0,-0.006,-0.0555,0.0,0.0,0.0,0.0,0.0,0.0,0.0,0.0,0.0,0.0,0.0,0.0,0.0,0.0,0.0,0.0,0.0,0.0,0.0,0.0,0.0,0.0,0.0,0.0,0.0,0.0,-1.5211,-1.5451,-1.6437,-1.7202,-1.7684,-1.7692,-1.8411,-1.9761,-2.0845,-2.1933,-2.3135,-2.3135,-2.3135,0.0,0.0,-2.3135,-2.3135,-2.3135,-2.3135,-2.3135,-2.3135,-2.3135,-2.3135,-2.3135,-2.3135,-2.3135,-2.3135,-2.3135,-2.3135,-2.3135,-2.3887,-2.5041,-2.6141,-2.6898,-2.7675,-2.8735,-2.9063,-2.9038,-2.895,-2.8172,-2.7394,-2.7306,-2.6866,-2.6533,-2.6533,-2.6533,-2.6533,-2.6533,-2.6533,-2.6533,-2.6533,-2.6533,-2.6533,-2.6533,-2.6533,-2.6533,-2.6533,-2.6533,-2.6533,-2.6533,-2.6879,-2.7381,-2.7934,-2.8486,-2.9051,-2.9616,-2.9666,-3.005,-3.097,-3.1888,-3.289,-3.3959,-3.4177,-3.4624,-3.5504,-3.5504,-3.5504,-3.5504,-3.5504,-3.5504,0.0,0.0,0.0,0.0,-0.0309,-0.0821,0.0,0.0,0.0,0.0,0.0,0.0,0.0,0.0,0.0,0.0,0.0,0.0,0.0,0.0,0.0,0.0,0.0,0.0,0.0,0.0,0.0,0.0,0.0,0.0,0.0,0.0,-1.5023,-1.5157,-1.6289,-1.6982,-1.7138,-1.7679,-1.884,-2.0486,-2.1025,-2.1933,-2.3135,-2.3135,-2.3135,-2.3125,0.0,-2.2803,-2.2783,-2.2559,-2.2461,-2.2461,-2.2461,-2.2461,-2.249,-2.2715,-2.2656,-2.2529,-2.2978,-2.3401,-2.3693,-2.3628,-2.4753,-2.6163,-2.6404,-2.7109,-2.784,-2.8325,-2.8699,-2.8863,-2.8561,-2.8335,-2.8021,-2.7419,-2.708,-2.6816,-2.6596,-2.6533,-2.6533,-2.6533,-2.6533,-2.6533,-2.6533,-2.6533,-2.6533,-2.6533,-2.6533,-2.6533,-2.6533,-2.6533,-2.6533,-2.6533,-2.6954,-2.7507,-2.8059,-2.8612,-2.9176,-2.9754,-2.9792,-3.0419,-3.1888,-3.2393,-3.3325,-3.4758,-3.4839,-3.5052,-3.5504,-3.5504,-3.5504,-3.5504,-3.5504,-3.5504,0.0,0.0,0.0,0.0,0.0,0.0,0.0,0.0,0.0,0.0,0.0,0.0,0.0,0.0,0.0,0.0,0.0,0.0,0.0,0.0,0.0,0.0,0.0,0.0,0.0,0.0,0.0,0.0,0.0,0.0,0.0,0.0,-1.479,-1.4856,-1.6228,-1.6949,-1.7026,-1.8415,-1.9739,-2.1013,-2.1013,-2.1655,-2.2842,-2.2842,-2.2842,-2.2822,-2.251,-2.2363,-2.2344,-2.2021,-2.1885,-2.1885,-2.1885,-2.1885,-2.1924,-2.2246,-2.2158,-2.2056,-2.2863,-2.351,-2.403,-2.4122,-2.5474,-2.7073,-2.6617,-2.7175,-2.7908,-2.7908,-2.8222,-2.8448,-2.8021,-2.8235,-2.8298,-2.7318,-2.7193,-2.713,-2.6647,-2.6533,-2.6533,-2.6533,-2.6533,-2.6533,-2.6533,-2.6533,-2.6533,-2.6533,-2.6533,-2.6533,-2.6533,-2.6533,-2.6533,-2.6533,-2.6954,-2.7566,-2.8324,-2.9091,-2.9751,-3.02,-3.0568,-3.1415,-3.289,-3.3171,-3.3973,-3.5439,-3.5504,-3.5504,-3.5504,-3.5504,-3.5504,-3.5504,-3.5504,-3.5504,0.0,0.0,0.0,0.0,0.0,0.0,0.0,0.0,0.0,0.0,0.0,0.0,0.0,0.0,0.0,0.0,0.0,0.0,0.0,0.0,0.0,0.0,0.0,0.0,0.0,0.0,0.0,0.0,0.0,0.0,0.0,0.0,0.0,-1.4543,-1.6746,-1.7992,-1.8243,-2.0493,-2.1117,-2.0117,-2.0117,-2.0735,-2.1982,-2.1982,-2.1982,-2.1973,-2.1943,-2.1934,-2.1934,-2.1894,-2.1885,-2.1885,-2.1885,-2.1885,-2.1894,-2.1924,-2.1914,-2.205,-2.2941,-2.3325,-2.3535,-2.441,-2.5604,-2.6546,-2.651,-2.6919,-2.7344,-2.7344,-2.7369,-2.7394,-2.7356,-2.7369,-2.7256,-2.6653,-2.6917,-2.713,-2.6647,-2.6533,-2.6533,-2.6533,-2.6533,-2.6533,-2.6533,-2.6533,-2.6533,-2.6533,-2.6533,-2.6533,-2.6533,-2.6533,-2.6533,-2.6533,-2.6954,-2.7837,-2.9201,-3.0602,-3.1445,-3.1486,-3.2862,-3.3739,-3.3876,-3.4773,-3.5359,-3.5504,-3.5504,-3.5504,-3.5504,-3.5504,-3.5504,-3.5504,-3.5504,-3.5504,0.0,0.0,0.0,0.0,0.0,0.0,0.0,0.0,0.0,0.0,0.0,0.0,0.0,0.0,0.0,0.0,0.0,0.0,0.0,0.0,0.0,0.0,0.0,0.0,0.0,0.0,0.0,0.0,0.0,0.0,0.0,0.0,0.0,-1.5226,-1.7458,-1.8679,-1.8737,-2.0316,-2.0886,-2.0387,-2.0917,-2.1441,-2.1885,-2.1885,-2.1885,-2.1865,-2.1602,-2.1484,-2.1465,-2.1182,-2.1064,-2.1064,-2.1064,-2.1064,-2.1094,-2.1377,-2.1309,-2.1222,-2.2149,-2.3085,-2.3985,-2.4304,-2.5604,-2.693,-2.6599,-2.6636,-2.6766,-2.6766,-2.6766,-2.6854,-2.7193,-2.7544,-2.7657,-2.7105,-2.713,-2.713,-2.6647,-2.6533,-2.6533,-2.6533,-2.6533,-2.6533,-2.6533,-2.6533,-2.6533,-2.6533,-2.6533,-2.6533,-2.6533,-2.6533,-2.6533,-2.6533,-2.6954,-2.7837,-2.9272,-3.0473,-3.1346,-3.1881,-3.2692,-3.338,-3.3959,-3.4394,-3.4839,-3.5504,-3.5504,-3.5504,-3.5504,-3.5504,-3.5504,-3.5504,-3.5504,-3.5504,0.0,0.0,0.0,0.0,0.0,0.0,0.0,0.0,0.0,0.0,0.0,0.0,0.0,0.0,0.0,0.0,0.0,0.0,0.0,0.0,0.0,0.0,0.0,0.0,0.0,0.0,0.0,0.0,0.0,0.0,0.0,0.0,0.0,0.0,-1.798,-1.9036,-1.9036,-2.0079,-2.0566,-2.0576,-2.1182,-2.1465,-2.1465,-2.1465,-2.1465,-2.1455,-2.1152,-2.1025,-2.0996,-2.0693,-2.0566,-2.0566,-2.0566,-2.0566,-2.0605,-2.0908,-2.083,-2.0732,-2.164,-2.2637,-2.3643,-2.4254,-2.5382,-2.6578,-2.6509,-2.6533,-2.6533,-2.6533,-2.6533,-2.6553,-2.6929,-2.7431,-2.7708,-2.7155,-2.7155,-2.713,-2.6647,-2.6533,-2.6533,-2.6533,-2.6533,-2.6533,-2.6533,-2.6533,-2.6533,-2.6533,-2.6533,-2.6533,-2.6533,-2.6533,-2.6589,-2.685,-2.7443,-2.8352,-2.9605,-3.0675,-3.1582,-3.2184,-3.2634,-3.3154,-3.3849,-3.4039,-3.4515,-3.5175,-3.5385,-3.5504,-3.5504,-3.5504,-3.5504,-3.5504,-3.5504,-3.5504,0.0,0.0,0.0,0.0,0.0,0.0,0.0,0.0,0.0,0.0,0.0,0.0,0.0,0.0,0.0,0.0,0.0,0.0,0.0,0.0,0.0,0.0,0.0,0.0,0.0,0.0,0.0,0.0,0.0,0.0,0.0,0.0,0.0,0.0,-1.839,-1.9036,-1.9036,-2.0079,-2.0566,-2.0566,-2.0566,-2.0566,-2.0566,-2.0566,-2.0566,-2.0566,-2.0566,-2.0566,-2.0566,-2.0566,-2.0566,-2.0566,-2.0566,-2.0566,-2.0566,-2.0644,-2.0644,-2.0789,-2.1659,-2.2027,-2.2328,-2.4337,-2.5016,-2.5229,-2.6164,-2.6533,-2.6533,-2.6533,-2.6533,-2.6533,-2.6533,-2.6866,-2.713,-2.6659,-2.6879,-2.713,-2.6647,-2.6533,-2.6533,-2.6533,-2.6533,-2.6533,-2.6533,-2.6533,-2.6533,-2.6533,-2.6533,-2.6533,-2.6533,-2.6533,-2.6782,-2.7604,-2.8492,-2.9317,-3.0208,-3.1618,-3.2497,-3.2497,-3.311,-3.3484,-3.3499,-3.4128,-3.4472,-3.4472,-3.516,-3.5504,-3.5504,-3.5504,-3.5504,-3.5504,-3.5504,-3.5504,0.0,0.0,0.0,0.0,0.0,0.0,0.0,0.0,0.0,0.0,0.0,0.0,0.0,0.0,0.0,0.0,0.0,0.0,0.0,0.0,0.0,0.0,0.0,0.0,0.0,0.0,0.0,0.0,0.0,0.0,0.0,0.0,0.0,0.0,-1.952,-2.0167,-2.0167,-2.0401,-2.0566,-2.0566,-2.0566,-2.0566,-2.0566,-2.0566,-2.0566,-2.0566,-2.0566,-2.0566,-2.0566,-2.0566,-2.0566,-2.0566,-2.0566,-2.0566,-2.0712,-2.1375,-2.1593,-2.1745,-2.2702,-2.3514,-2.4192,-2.4791,-2.5441,-2.6094,-2.6383,-2.6533,-2.6533,-2.6533,-2.6533,-2.6533,-2.6533,-2.6647,-2.6666,-2.6571,-2.6647,-2.6653,-2.6559,-2.6533,-2.6533,-2.6533,-2.6533,-2.6533,-2.6533,-2.6533,-2.6533,-2.6533,-2.6533,-2.6533,-2.6533,-2.6533,-2.6589,-2.685,-2.7604,-2.8427,-2.9317,-3.038,-3.119,-3.1765,-3.2003,-3.2527,-3.3455,-3.4128,-3.4472,-3.4472,-3.516,-3.5504,-3.5504,-3.5504,-3.5504,-3.5504,-3.5504,-3.5504,-0.1014,0.0,0.0,0.0,0.0,0.0,0.0,0.0,0.0,0.0,0.0,0.0,0.0,0.0,0.0,0.0,0.0,0.0,0.0,0.0,0.0,0.0,0.0,0.0,0.0,0.0,0.0,0.0,0.0,0.0,0.0,0.0,0.0,0.0,-2.0245,-2.0566,-2.0566,-2.0566,-2.0566,-2.0566,-2.0566,-2.0566,-2.0566,-2.0566,-2.0566,-2.0566,-2.0566,-2.0566,-2.0566,-2.0566,-2.0566,-2.0566,-2.0566,-2.0566,-2.0712,-2.1669,-2.2027,-2.2178,-2.3147,-2.3891,-2.448,-2.4862,-2.5441,-2.5955,-2.6383,-2.6533,-2.6533,-2.6533,-2.6533,-2.6533,-2.6533,-2.6533,-2.6533,-2.6533,-2.6533,-2.6533,-2.6533,-2.6533,-2.6533,-2.6533,-2.6533,-2.6533,-2.6533,-2.6533,-2.6533,-2.6533,-2.6533,-2.6589,-2.6905,-2.6973,-2.7229,-2.792,-2.8427,-2.9066,-2.995,-3.0464,-3.097,-3.1467,-3.1482,-3.1884,-3.2677,-3.335,-3.3694,-3.3694,-3.4622,-3.51,-3.51,-3.537,-3.5504,-3.5504,-3.5504,-3.5504,0.0,0.0,0.0,0.0,0.0,0.0,0.0,0.0,0.0,0.0,0.0,0.0,0.0,0.0,0.0,0.0,0.0,0.0,0.0,0.0,0.0,0.0,0.0,0.0,0.0,0.0,0.0,0.0,0.0,0.0,0.0,0.0,0.0,0.0,-2.0508,-2.0527,-2.0566,-2.0566,-2.0566,0.0,-2.0566,-2.0566,-2.0566,-2.0566,-2.0566,-2.0566,-2.0722,-2.0712,-2.0712,-2.0867,-2.0867,-2.0867,-2.0867,-2.0867,-2.1011,-2.1886,-2.2253,-2.2403,-2.3441,-2.3734,-2.3891,-2.4862,-2.5158,-2.53,-2.6233,-2.6533,-2.6533,-2.6533,-2.6533,-2.6533,-2.6533,-2.6533,-2.6533,-2.6533,-2.6533,-2.6533,-2.6533,-2.6533,-2.6533,-2.6533,-2.6533,-2.6533,-2.6533,-2.6533,-2.6521,-2.6589,-2.6521,-2.685,-2.767,-2.7736,-2.8363,-3.0011,-3.0269,-3.0584,-3.1351,-3.1467,-3.1482,-3.1482,-3.1482,-3.1482,-3.1482,-3.2168,-3.2512,-3.2512,-3.3754,-3.4382,-3.4382,-3.507,-3.5415,-3.5415,-3.5474,-3.5504,0.0,0.0,0.0,0.0,0.0,0.0,0.0,0.0,0.0,0.0,0.0,0.0,0.0,0.0,0.0,0.0,0.0,0.0,0.0,0.0,0.0,0.0,0.0,0.0,0.0,0.0,0.0,0.0,0.0,0.0,0.0,0.0,0.0,-1.9963,-2.0059,-2.0215,-2.0634,-2.0566,-2.0566,0.0,-2.0566,-2.0566,-2.0566,-2.0566,-2.0566,-2.0644,-2.1375,-2.1669,-2.1735,-2.2563,-2.2861,-2.2861,-2.2861,-2.2861,-2.301,-2.3963,-2.4337,-2.448,-2.5499,-2.5861,-2.5873,-2.6094,-2.6176,-2.6245,-2.6452,-2.6533,-2.6533,-2.6533,-2.6533,-2.6533,-2.6533,-2.6533,-2.6533,-2.6533,-2.6533,-2.6533,-2.6533,-2.6533,-2.6533,-2.6533,-2.6533,-2.6533,-2.6533,-2.6533,-2.6714,-2.7351,-2.6905,-2.704,-2.8556,-2.8117,-2.8117,-2.9192,-2.9889,-3.0389,-3.0524,-3.1161,-3.1482,-3.1482,-3.1482,-3.1482,-3.1482,-3.2168,-3.2512,-3.2512,-3.3305,-3.3709,-3.3709,-3.4367,-3.4696,-3.4711,-3.525,-3.5504,0.0,0.0,0.0,0.0,0.0,0.0,0.0,0.0,0.0,0.0,0.0,0.0,0.0,0.0,0.0,0.0,0.0,0.0,0.0,0.0,0.0,0.0,0.0,0.0,0.0,0.0,0.0,0.0,0.0,0.0,0.0,-1.804,-1.8578,-1.96,-1.9609,-1.9727,-1.9951,-1.9951,-1.9951,-1.9951,-1.9951,-1.9951,-1.9971,-2.0381,-2.0566,-2.0644,-2.1155,-2.1593,-2.2027,-2.2553,-2.3073,-2.3514,-2.3514,-2.3514,-2.3599,-2.4636,-2.5004,-2.5146,-2.6164,-2.6533,-2.6533,-2.6533,-2.6533,-2.6533,-2.6533,-2.6533,-2.6533,-2.6533,-2.6533,-2.6533,-2.6533,-2.6533,-2.6533,-2.6533,-2.6533,-2.6533,-2.6533,-2.6533,-2.6533,-2.6533,-2.6533,-2.6533,-2.6533,-2.6533,-2.6782,-2.7604,-2.7351,-2.767,-2.938,-2.9254,-2.9254,-3.0133,-3.0584,-3.0896,-3.0896,-3.1278,-3.1482,-3.1482,-3.1482,-3.1482,-3.1482,-3.1869,-3.2048,-3.2048,-3.2691,-3.3021,-3.3021,-3.3679,-3.4173,-3.4487,-3.4846,-3.519,0.0,0.0,0.0,0.0,0.0,0.0,0.0,0.0,0.0,0.0,0.0,0.0,0.0,0.0,0.0,0.0,0.0,0.0,0.0,0.0,0.0,0.0,0.0,0.0,0.0,0.0,0.0,0.0,0.0,0.0,-1.8436,-1.8525,-1.873,-1.916,-1.918,-1.9209,-1.9287,-1.9287,-1.9287,-1.9287,-1.9287,-1.936,-1.9525,-2.0236,-2.0535,-2.0526,-2.0681,-2.1303,-2.2253,-2.2381,-2.3058,-2.4036,-2.4036,-2.4036,-2.4108,-2.4921,-2.5229,-2.537,-2.6233,-2.6533,-2.6533,-2.6533,-2.6533,-2.6533,-2.6533,-2.6533,-2.6533,-2.6533,-2.6533,-2.6533,-2.6533,-2.6533,-2.6533,-2.6533,-2.6533,-2.6533,-2.6533,-2.6533,-2.6533,-2.6533,-2.6533,-2.6533,-2.6533,-2.6589,-2.6973,-2.7802,-2.792,-2.8556,-3.0269,-3.0389,-3.0584,-3.1409,-3.1482,-3.1482,-3.1482,-3.1482,-3.1482,-3.1482,-3.1482,-3.1482,-3.1482,-3.1482,-3.1482,-3.1482,-3.2063,-3.2347,-3.2347,-3.3006,-3.3604,-3.4143,-3.4247,-3.4681,0.0,0.0,0.0,0.0,0.0,0.0,0.0,0.0,0.0,0.0,0.0,0.0,0.0,0.0,0.0,0.0,0.0,0.0,0.0,0.0,0.0,0.0,0.0,0.0,0.0,0.0,0.0,0.0,0.0,0.0,-1.8018,-1.8096,-1.8281,-1.8711,-1.8721,-1.8906,-1.9287,-1.9287,-1.9287,-1.9287,-1.9287,-1.9703,-2.04,-2.0524,-2.0366,-2.0075,-2.0944,-2.204,-2.3334,-2.3815,-2.4843,-2.6094,-2.6094,-2.6094,-2.6094,-2.6233,-2.6314,-2.6314,-2.6452,-2.6533,-2.6533,-2.6533,-2.6533,-2.6533,-2.6533,-2.6533,-2.6533,-2.6533,-2.6533,-2.6533,-2.6533,-2.6533,-2.6533,-2.6533,-2.6533,-2.6533,-2.6533,-2.6533,-2.6533,-2.6533,-2.6533,-2.6533,-2.6533,-2.7095,-2.7868,-2.8684,-2.8812,-2.9442,-3.1087,-3.0718,-3.0584,-3.1409,-3.1482,-3.1482,-3.1482,-3.1482,-3.1482,-3.1482,-3.1482,-3.1482,-3.1482,-3.1482,-3.1482,-3.1482,-3.1556,-3.1601,-3.1616,-3.2332,-3.2691,-3.2781,-3.3365,-3.3978,0.0,0.0,0.0,0.0,0.0,0.0,0.0,0.0,0.0,0.0,0.0,0.0,0.0,0.0,0.0,0.0,0.0,0.0,0.0,0.0,0.0,0.0,0.0,0.0,0.0,0.0,0.0,0.0,0.0,-1.7579,-1.8008,-1.8008,-1.8096,-1.8281,-1.8281,-1.8379,-1.8564,-1.8574,-1.8844,-1.93,-1.93,-1.9771,-2.0584,-2.0834,-2.0946,-2.1039,-2.1457,-2.2355,-2.3387,-2.3635,-2.4451,-2.5573,-2.5862,-2.5975,-2.6013,-2.6408,-2.6533,-2.6533,-2.6533,-2.6533,-2.6533,-2.6533,-2.6533,-2.6533,-2.6533,-2.6533,-2.6533,-2.6533,-2.6533,-2.6533,-2.6533,-2.6533,-2.6533,-2.6533,-2.6533,-2.6533,-2.6533,-2.6533,-2.6533,-2.6533,-2.6533,-2.6533,-2.6533,-2.7162,-2.7986,-2.8876,-2.9442,-3.0147,-3.1351,-3.1219,-3.1087,-3.1467,-3.1482,-3.1482,-3.1482,-3.1482,-3.1482,-3.1482,-3.1482,-3.1482,-3.1482,-3.1482,-3.1482,-3.1482,-3.1482,-3.1482,-3.1482,-3.1824,-3.2153,-3.2527,-3.2811,-3.3305,0.0,0.0,0.0,0.0,0.0,0.0,0.0,0.0,0.0,0.0,0.0,0.0,0.0,0.0,0.0,0.0,0.0,0.0,0.0,0.0,0.0,0.0,0.0,0.0,0.0,0.0,0.0,0.0,0.0,-1.79,-1.8008,-1.8008,-1.8008,-1.8008,-1.8008,-1.8008,-1.8008,-1.8202,-1.8787,-1.9628,-1.9628,-2.0074,-2.0921,-2.1221,-2.1661,-2.2226,-2.1879,-2.2343,-2.3266,-2.3214,-2.3789,-2.487,-2.5385,-2.5598,-2.5661,-2.6319,-2.6533,-2.6533,-2.6533,-2.6533,-2.6533,-2.6533,-2.6533,-2.6533,-2.6533,-2.6533,-2.6533,-2.6533,-2.6533,-2.6533,-2.6533,-2.6533,-2.6533,-2.6533,-2.6533,-2.6533,-2.6533,-2.6533,-2.6533,-2.6533,-2.6658,-2.6782,-2.6782,-2.767,-2.8556,-2.9254,-3.0072,-3.0837,-3.1409,-3.1482,-3.1482,-3.1482,-3.1482,-3.1482,-3.1482,-3.1482,-3.1482,-3.1482,-3.1482,-3.1482,-3.1482,-3.1482,-3.1482,-3.1482,-3.1482,-3.1482,-3.1482,-3.1697,-3.2053,-3.2536,-3.268,-3.3145,0.0,0.0,0.0,0.0,0.0,0.0,0.0,0.0,0.0,0.0,0.0,0.0,0.0,0.0,0.0,0.0,0.0,0.0,0.0,0.0,0.0,0.0,0.0,0.0,0.0,0.0,0.0,0.0,0.0,-1.7588,-1.7988,-1.8008,-1.8008,-1.8008,-1.8008,-1.8008,-1.8008,-1.8854,-1.9683,-2.0526,-2.0526,-2.0974,-2.1815,-2.1839,-2.2309,-2.2996,-2.174,-2.2012,-2.3242,-2.29,-2.3527,-2.487,-2.5385,-2.5598,-2.5661,-2.6319,-2.6533,-2.6533,-2.6533,-2.6533,-2.6533,-2.6533,-2.6533,-2.6533,-2.6533,-2.6533,-2.6533,-2.6533,-2.6533,-2.6533,-2.6533,-2.6533,-2.6533,-2.6533,-2.6533,-2.6533,-2.6533,-2.6533,-2.6533,-2.6533,-2.7095,-2.767,-2.767,-2.9066,-3.0208,-3.0208,-3.0896,-3.1467,-3.1482,-3.1482,-3.1482,-3.1482,-3.1482,-3.1482,-3.1482,-3.1482,-3.1482,-3.1482,-3.1482,-3.1482,-3.1482,-3.1482,-3.1482,-3.1482,-3.1482,-3.1482,-3.1482,-3.2216,-3.2563,-3.2594,-3.3245,-3.391,0.0,0.0,0.0,0.0,0.0,0.0,0.0,0.0,0.0,0.0,0.0,0.0,0.0,0.0,0.0,0.0,0.0,0.0,0.0,0.0,0.0,0.0,0.0,0.0,0.0,0.0,0.0,0.0,0.0,0.0,-1.7988,-1.8008,-1.8008,-1.8008,-1.8519,-1.911,-1.9694,-2.0009,-2.059,-2.1428,-2.1428,-2.1877,-2.2689,-2.2689,-2.2823,-2.3078,-2.264,-2.2698,-2.3182,-2.2997,-2.3232,-2.3828,-2.4745,-2.5096,-2.5209,-2.6126,-2.6533,-2.6533,-2.6533,-2.6533,-2.6533,-2.6533,-2.6533,-2.6533,-2.6533,-2.6533,-2.6533,-2.6533,-2.6533,-2.6533,-2.6533,-2.6533,-2.6658,-2.7162,-2.7297,-2.7417,-2.7986,-2.767,-2.7297,-2.7297,-2.792,-2.8556,-2.8556,-2.9504,-3.0329,-3.0329,-3.097,-3.1482,-3.1482,-3.1482,-3.1482,-3.1482,-3.1482,-3.1482,-3.1482,-3.1482,-3.1482,-3.1482,-3.1482,-3.1482,-3.1482,-3.1482,-3.1482,-3.1482,-3.1482,-3.1482,-3.1482,-3.2216,-3.2586,-3.2602,-3.3287,-3.3726,0.0,0.0,0.0,0.0,0.0,0.0,0.0,0.0,0.0,0.0,0.0,0.0,0.0,0.0,0.0,0.0,0.0,0.0,0.0,0.0,0.0,0.0,0.0,0.0,0.0,0.0,0.0,0.0,0.0,0.0,-1.7559,-1.7578,-1.777,-1.8175,-1.9002,-1.9975,-2.1037,-2.1049,-2.1491,-2.2322,-2.2322,-2.2567,-2.3078,-2.3078,-2.3078,-2.3078,-2.3078,-2.3078,-2.3078,-2.3078,-2.3078,-2.3178,-2.4381,-2.482,-2.4958,-2.605,-2.6533,-2.6521,-2.6782,-2.6905,-2.6973,-2.7229,-2.7351,-2.7351,-2.7351,-2.7351,-2.7351,-2.7351,-2.7095,-2.6905,-2.6905,-2.6905,-2.704,-2.7537,-2.792,-2.8298,-2.8876,-2.8556,-2.8117,-2.8117,-2.8812,-2.9442,-2.9442,-3.0133,-3.0703,-3.0703,-3.1161,-3.1482,-3.1482,-3.1482,-3.1482,-3.1482,-3.1482,-3.1482,-3.1482,-3.1482,-3.1482,-3.1482,-3.1482,-3.1482,-3.1482,-3.1482,-3.164,-3.1838,-3.1853,-3.1853,-3.1853,-3.2586,-3.2949,-3.2933,-3.3836,-3.4252,0.0,0.0,0.0,0.0,0.0,0.0,0.0,0.0,0.0,0.0,0.0,0.0,0.0,0.0,0.0,0.0,0.0,0.0,0.0,0.0,0.0,0.0,0.0,0.0,0.0,0.0,0.0,0.0,0.0,-1.6321,-1.6709,-1.6728,-1.7339,-1.8628,-1.9321,-2.0426,-2.1916,-2.1916,-2.2298,-2.3078,-2.3078,-2.3078,-2.3078,-2.3078,-2.3078,-2.3078,-2.3078,-2.3138,-2.3138,-2.3138,-2.3078,-2.3178,-2.4381,-2.482,-2.4958,-2.605,-2.6533,-2.6589,-2.7417,-2.767,-2.7802,-2.862,-2.8939,-2.8939,-2.8939,-2.9002,-2.9002,-2.9002,-2.8363,-2.7736,-2.7736,-2.7736,-2.7736,-2.7802,-2.8427,-2.9066,-2.9066,-2.9066,-2.9066,-2.9066,-2.9766,-3.0329,-3.0329,-3.097,-3.1482,-3.1482,-3.1482,-3.1482,-3.1482,-3.1482,-3.1482,-3.1482,-3.1482,-3.1482,-3.1482,-3.1482,-3.1482,-3.1482,-3.1482,-3.1482,-3.1482,-3.1482,-3.1853,-3.2602,-3.2586,-3.2602,-3.2641,-3.3287,-3.3633,-3.3633,-3.4958,-3.5622,-0.5636,0.0,0.0,0.0,0.0,0.0,0.0,0.0,0.0,0.0,0.0,0.0,0.0,0.0,0.0,0.0,0.0,0.0,0.0,0.0,0.0,0.0,0.0,0.0,0.0,0.0,0.0,0.0,-1.6125,-1.6485,-1.7482,-1.8025,-1.8747,-1.9721,-1.9958,-2.076,-2.2169,-2.2182,-2.2499,-2.3078,-2.3078,-2.3078,-2.3078,-2.3078,-2.3078,-2.3078,-2.3078,-2.3424,-2.3943,-2.3365,-2.3078,-2.3178,-2.4381,-2.482,-2.4958,-2.605,-2.6533,-2.6521,-2.6782,-2.685,-2.6837,-2.7095,-2.7604,-2.8051,-2.8051,-2.8492,-2.9002,-2.9002,-2.8812,-2.862,-2.862,-2.862,-2.8812,-2.9442,-2.9766,-3.0072,-3.0703,-3.0837,-3.0644,-3.0072,-3.0584,-3.1161,-3.1161,-3.1351,-3.1482,-3.1482,-3.1482,-3.1482,-3.1482,-3.1482,-3.1482,-3.1482,-3.1482,-3.1482,-3.1482,-3.1482,-3.1482,-3.1482,-3.1482,-3.1482,-3.1482,-3.1482,-3.1853,-3.2602,-3.2586,-3.2841,-3.3339,-3.3987,-3.4087,-3.3633,-3.4958,-3.5622,0.0,0.0,0.0,0.0,0.0,0.0,0.0,0.0,0.0,0.0,0.0,0.0,0.0,0.0,0.0,0.0,0.0,0.0,0.0,0.0,0.0,0.0,0.0,0.0,0.0,0.0,0.0,-1.5771,-1.6078,-1.6711,-1.767,-1.8427,-1.916,-1.9906,-2.0258,-2.0932,-2.197,-2.197,-2.2246,-2.2786,-2.2786,-2.2852,-2.3078,-2.3078,-2.3078,-2.3078,-2.3078,-2.3543,-2.4292,-2.3767,-2.3767,-2.4138,-2.5066,-2.5357,-2.5501,-2.67,-2.7118,-2.7223,-2.7841,-2.8117,-2.8117,-2.8492,-2.8876,-2.9317,-2.9317,-2.9628,-3.0011,-3.0011,-2.9827,-2.9442,-2.9066,-2.9254,-2.969,-3.0208,-3.0584,-3.0896,-3.1409,-3.1482,-3.1351,-3.0896,-3.1161,-3.1482,-3.1482,-3.1482,-3.1482,-3.1482,-3.1482,-3.1482,-3.1482,-3.1482,-3.1482,-3.1482,-3.1482,-3.1482,-3.1482,-3.1482,-3.1482,-3.1482,-3.1482,-3.1482,-3.1482,-3.1482,-3.2007,-3.2986,-3.3039,-3.3495,-3.4447,-3.4544,-3.4528,-3.4447,-3.5224,-3.5622,0.0,0.0,0.0,0.0,0.0,0.0,-1.1407,-1.1399,0.0,0.0,0.0,0.0,0.0,0.0,0.0,0.0,0.0,0.0,0.0,0.0,0.0,0.0,0.0,0.0,0.0,-1.5526,-1.5584,-1.5633,-1.6312,-1.7034,-1.7688,-1.8436,-1.9048,-1.9593,-2.0283,-2.084,-2.1393,-2.1393,-2.1707,-2.2309,-2.2367,-2.2715,-2.3258,-2.3305,-2.3365,-2.3365,-2.3365,-2.3826,-2.4509,-2.4509,-2.4908,-2.5467,-2.6004,-2.618,-2.6318,-2.7459,-2.7872,-2.8091,-2.9562,-3.0033,-3.0168,-3.094,-3.1278,-3.1351,-3.1351,-3.1409,-3.1482,-3.1482,-3.097,-3.0269,-2.9504,-2.9827,-3.045,-3.045,-3.097,-3.1482,-3.1482,-3.1482,-3.1482,-3.1482,-3.1482,-3.1482,-3.1482,-3.1482,-3.1482,-3.1482,-3.1482,-3.1482,-3.1482,-3.1482,-3.1482,-3.1482,-3.1482,-3.1482,-3.1482,-3.1482,-3.1524,-3.164,-3.1539,-3.1582,-3.1739,-3.1582,-3.2201,-3.3684,-3.3786,-3.4399,-3.5622,-3.4941,-3.4941,-3.5622,-3.5622,-3.5622,0.0,-0.9486,-1.0355,0.0,0.0,0.0,0.0,-1.0864,0.0,0.0,0.0,0.0,0.0,0.0,0.0,0.0,0.0,0.0,0.0,0.0,0.0,0.0,0.0,0.0,0.0,-1.6265,-1.6539,-1.7135,-1.7841,-1.834,-1.8501,-1.9202,-1.9641,-1.9753,-1.991,-2.025,-2.0869,-2.0882,-2.133,-2.2309,-2.2902,-2.3485,-2.4118,-2.4667,-2.4951,-2.4951,-2.4951,-2.5398,-2.6068,-2.6068,-2.5783,-2.5467,-2.6004,-2.618,-2.6263,-2.6964,-2.7226,-2.7308,-2.8185,-2.8455,-2.8538,-2.9274,-2.995,-3.0524,-3.0524,-3.097,-3.1482,-3.1482,-3.1409,-3.1219,-3.1087,-3.1161,-3.1278,-3.1278,-3.1409,-3.1482,-3.1482,-3.1482,-3.1482,-3.1482,-3.1482,-3.1482,-3.1482,-3.1482,-3.1482,-3.1482,-3.1482,-3.1482,-3.1482,-3.1482,-3.1482,-3.1482,-3.1482,-3.1482,-3.1482,-3.1482,-3.1739,-3.2327,-3.1853,-3.1992,-3.313,-3.2089,-3.2391,-3.4382,-3.4941,-3.5316,-3.5622,-3.4941,-3.4941,-3.5622,-3.5622,-3.5622,0.0,0.0,-1.1889,-1.1347,0.0,0.0,0.0,0.0,-1.2674,0.0,0.0,0.0,0.0,0.0,0.0,0.0,0.0,0.0,0.0,0.0,0.0,0.0,0.0,0.0,0.0,-1.7034,-1.7357,-1.8112,-1.8501,-1.8874,-1.9202,-1.9592,-1.9798,-1.9798,-1.9798,-2.0091,-2.0746,-2.0746,-2.1316,-2.247,-2.3152,-2.3811,-2.4392,-2.5094,-2.5398,-2.5398,-2.5398,-2.5837,-2.651,-2.651,-2.6496,-2.651,-2.6773,-2.6903,-2.6975,-2.7607,-2.7781,-2.7867,-2.8584,-2.8986,-2.9288,-2.9604,-3.0248,-3.0896,-3.0896,-3.1161,-3.1482,-3.1482,-3.1482,-3.1482,-3.1482,-3.1482,-3.1482,-3.1482,-3.1482,-3.1482,-3.1482,-3.1482,-3.1482,-3.1482,-3.1482,-3.1482,-3.1482,-3.1482,-3.1482,-3.1482,-3.1482,-3.1482,-3.1482,-3.1482,-3.1482,-3.1482,-3.1482,-3.1482,-3.1482,-3.1482,-3.1796,-3.2532,-3.2272,-3.2516,-3.3531,-3.2917,-3.3166,-3.4576,-3.5253,-3.5622,-3.5622,-3.5253,-3.5253,-3.5622,-3.5622,-3.5622,0.0,0.0,0.0,0.0,0.0,-1.3743,0.0,0.0,0.0,-1.4935,0.0,0.0,0.0,0.0,0.0,0.0,0.0,0.0,0.0,0.0,0.0,0.0,0.0,0.0,0.0,-1.7759,-1.8182,-1.8874,-1.8843,-1.904,-1.9747,-1.9798,-1.9798,-1.9798,-1.9952,-2.0245,-2.0795,-2.0944,-2.152,-2.2614,-2.3437,-2.41,-2.4632,-2.5434,-2.5837,-2.5837,-2.5837,-2.6162,-2.6721,-2.6721,-2.7034,-2.7625,-2.7625,-2.7625,-2.7685,-2.8203,-2.8412,-2.8502,-2.916,-2.9729,-3.0178,-3.0417,-3.0971,-3.1482,-3.1482,-3.1482,-3.1482,-3.1482,-3.1482,-3.1482,-3.1482,-3.1482,-3.1482,-3.1482,-3.1482,-3.1482,-3.1482,-3.1482,-3.1482,-3.1482,-3.1482,-3.1482,-3.1482,-3.1482,-3.1482,-3.1482,-3.1482,-3.1482,-3.1482,-3.1482,-3.1482,-3.1482,-3.1482,-3.1482,-3.1482,-3.1482,-3.1853,-3.2749,-3.2695,-3.3002,-3.3953,-3.4003,-3.4186,-3.4576,-3.5253,-3.5622,-3.5622,-3.5622,-3.5622,-3.5622,-3.5622,-3.5622,0.0,0.0,0.0,0.0,-1.3773,0.0,0.0,0.0,-1.4429,-1.47,0.0,0.0,0.0,0.0,0.0,0.0,0.0,0.0,0.0,0.0,0.0,0.0,0.0,0.0,0.0,0.0,-1.9095,-1.9606,-1.922,-1.9208,-1.9773,-1.9798,-1.9798,-1.9798,-2.0396,-2.0696,-2.0795,-2.1342,-2.1932,-2.2614,-2.3921,-2.4862,-2.5429,-2.6725,-2.7357,-2.7357,-2.7357,-2.7408,-2.7473,-2.7473,-2.7509,-2.7625,-2.7625,-2.7625,-2.7625,-2.7715,-2.7679,-2.7784,-2.8472,-2.8757,-2.8996,-3.0133,-3.0971,-3.1482,-3.1482,-3.1482,-3.1482,-3.1482,-3.1482,-3.1482,-3.1482,-3.1482,-3.1482,-3.1482,-3.1482,-3.1482,-3.1482,-3.1482,-3.1482,-3.1482,-3.1482,-3.1482,-3.1482,-3.1482,-3.1482,-3.1482,-3.1482,-3.1482,-3.1482,-3.1482,-3.1482,-3.1482,-3.1482,-3.1482,-3.1482,-3.1482,-3.2048,-3.3391,-3.2949,-3.3443,-3.5316,-3.5362,-3.5115,-3.4624,-3.5253,-3.5622,-3.5622,-3.5622,-3.5622,-3.5622,-3.5622,-3.5622,0.0,0.0,0.0,0.0,0.0,0.0,0.0,0.0,-1.5658,0.0,0.0,0.0,0.0,0.0,0.0,0.0,0.0,0.0,0.0,0.0,0.0,0.0,0.0,0.0,0.0,0.0,0.0,0.0,0.0,-1.9716,-2.037,-2.0396,-2.0534,-2.089,-2.1197,-2.15,-2.1894,-2.2161,-2.2566,-2.3161,-2.4168,-2.497,-2.557,-2.6594,-2.7215,-2.7625,-2.7625,-2.7625,-2.7625,-2.7625,-2.7625,-2.7625,-2.7625,-2.7625,-2.7625,-2.7625,-2.7625,-2.767,-2.7904,-2.8263,-2.8816,-3.0088,-3.0702,-3.1001,-3.1347,-3.1482,-3.1482,-3.1482,-3.1482,-3.1482,-3.1482,-3.1482,-3.1482,-3.1482,-3.1482,-3.1482,-3.1482,-3.1482,-3.1482,-3.1482,-3.1482,-3.1482,-3.1482,-3.1482,-3.1482,-3.1482,-3.1482,-3.1482,-3.1482,-3.1482,-3.1482,-3.1482,-3.1482,-3.1482,-3.1482,-3.1482,-3.2089,-3.3479,-3.4053,-3.4704,-3.5577,-3.5622,-3.547,-3.5207,-3.547,-3.5622,-3.5622,-3.5622,-3.5622,-3.5622,-3.5622,-3.5622,-1.3312,0.0,0.0,0.0,0.0,0.0,0.0,0.0,0.0,0.0,0.0,0.0,0.0,0.0,0.0,0.0,0.0,0.0,0.0,0.0,0.0,0.0,0.0,0.0,0.0,0.0,0.0,0.0,0.0,0.0,-2.0988,-2.1028,-2.1245,-2.171,-2.1899,-2.2193,-2.2694,-2.2875,-2.3157,-2.361,-2.4298,-2.4971,-2.563,-2.6288,-2.6946,-2.7625,-2.7625,-2.7625,-2.7625,-2.7625,-2.7625,-2.7625,-2.7625,-2.771,-2.781,-2.766,-2.7625,-2.7625,-2.7625,-2.8023,-2.8824,-3.0135,-3.0673,-3.0945,-3.1835,-3.2104,-3.2104,-3.2104,-3.2104,-3.2048,-3.1853,-3.1796,-3.1739,-3.1524,-3.1482,-3.1482,-3.1482,-3.1482,-3.1482,-3.1482,-3.1482,-3.1482,-3.1482,-3.1482,-3.1482,-3.1482,-3.1482,-3.1482,-3.1482,-3.1482,-3.1482,-3.1482,-3.1482,-3.1582,-3.1796,-3.164,-3.2089,-3.3479,-3.4864,-3.5622,-3.5622,-3.5622,-3.5622,-3.5622,-3.5622,-3.5622,-3.5622,-3.5622,-3.5622,-3.5622,-3.5622,-3.5622,0.0,0.0,0.0,-1.5118,0.0,0.0,0.0,0.0,-1.7699,0.0,0.0,0.0,0.0,0.0,0.0,0.0,0.0,0.0,0.0,0.0,0.0,0.0,0.0,0.0,0.0,0.0,0.0,0.0,0.0,0.0,-2.1594,-2.1649,-2.1697,-2.1697,-2.2346,-2.2694,-2.2694,-2.329,-2.3595,-2.361,-2.4298,-2.4971,-2.563,-2.6288,-2.6946,-2.7625,-2.7625,-2.7625,-2.7625,-2.7625,-2.7625,-2.7625,-2.7625,-2.7944,-2.8415,-2.781,-2.7625,-2.7625,-2.7625,-2.8023,-2.8801,-3.0186,-3.1021,-3.1793,-3.3117,-3.3531,-3.3531,-3.3531,-3.3531,-3.3391,-3.2749,-3.2532,-3.2382,-3.1697,-3.1482,-3.1482,-3.1482,-3.1482,-3.1482,-3.1482,-3.1482,-3.1482,-3.1482,-3.1482,-3.1482,-3.1482,-3.1482,-3.1482,-3.1482,-3.1482,-3.1482,-3.1482,-3.1482,-3.1796,-3.2477,-3.191,-3.2089,-3.3479,-3.4864,-3.5622,-3.5622,-3.5622,-3.5622,-3.5622,-3.5622,-3.5622,-3.5622,-3.5622,-3.5622,-3.5622,-3.5622,-3.5622,0.0,0.0,-1.6761,-1.6468,0.0,0.0,0.0,0.0,0.0,0.0,0.0,0.0,0.0,0.0,0.0,0.0,0.0,0.0,0.0,0.0,0.0,0.0,0.0,0.0,0.0,0.0,0.0,0.0,0.0,0.0,0.0,-2.2346,-2.2529,-2.2935,-2.3187,-2.329,-2.329,-2.3508,-2.3595,-2.3595,-2.3834,-2.4522,-2.5615,-2.5839,-2.6768,-2.8189,-2.8189,-2.8415,-2.8764,-2.8764,-2.8764,-2.8764,-2.8764,-2.8904,-2.8996,-2.8415,-2.8448,-2.8764,-2.8764,-2.892,-2.9359,-3.0733,-3.1353,-3.1765,-3.3179,-3.3582,-3.3582,-3.3582,-3.3582,-3.3547,-3.3339,-3.3235,-3.3093,-3.2367,-3.2231,-3.212,-3.1582,-3.191,-3.2064,-3.1582,-3.1894,-3.2231,-3.2231,-3.2231,-3.2064,-3.1582,-3.191,-3.2231,-3.2231,-3.2231,-3.2231,-3.2231,-3.1796,-3.1796,-3.2547,-3.3166,-3.377,-3.4235,-3.5098,-3.5622,-3.5622,-3.5622,-3.5622,-3.5622,-3.5622,-3.5622,-3.5622,-3.5622,-3.5622,-3.5622,-3.5622,-3.5622,-1.6058,-1.6813,0.0,-1.7687,-1.7707,0.0,-1.8393,0.0,0.0,0.0,0.0,0.0,0.0,0.0,0.0,0.0,0.0,0.0,0.0,0.0,0.0,0.0,0.0,0.0,0.0,0.0,-2.024,-2.1054,0.0,0.0,0.0,0.0,-2.3201,-2.3595,-2.3595,-2.3595,-2.3595,-2.3595,-2.3595,-2.3595,-2.3595,-2.4267,-2.5516,-2.5788,-2.6857,-2.8419,-2.8716,-2.9042,-2.9406,-2.9406,-2.9406,-2.9406,-2.9406,-2.954,-2.9629,-2.9042,-2.9058,-2.9406,-2.9406,-2.9406,-2.9643,-3.1013,-3.1656,-3.2124,-3.3501,-3.4088,-3.4301,-3.4301,-3.4301,-3.4252,-3.4037,-3.3937,-3.3786,-3.3093,-3.2949,-3.2841,-3.2351,-3.2625,-3.2734,-3.2007,-3.2272,-3.2586,-3.2586,-3.2586,-3.2437,-3.1951,-3.2477,-3.2895,-3.2641,-3.2788,-3.2841,-3.2641,-3.2367,-3.2461,-3.2949,-3.4186,-3.483,-3.464,-3.5207,-3.5622,-3.5622,-3.5622,-3.5622,-3.5622,-3.5622,-3.5622,-3.5622,-3.5622,-3.5622,-3.5622,-3.5622,-3.5622]}]]